<?xml version='1.0' encoding='UTF-8'?>
<gpx version="1.1" creator="https://www.komoot.de" xmlns="http://www.topografix.com/GPX/1/1" xmlns:xsi="http://www.w3.org/2001/XMLSchema-instance" xsi:schemaLocation="http://www.topografix.com/GPX/1/1 http://www.topografix.com/GPX/1/1/gpx.xsd">
  <metadata>
    <name>63_840Wiesenbergrunde</name>
    <author>
      <link href="https://www.komoot.de">
        <text>komoot</text>
        <type>text/html</type>
      </link>
    </author>
  </metadata>
  <trk>
    <name>63_840Wiesenbergrunde</name>
    <trkseg>
      <trkpt lat="47.539365" lon="7.873107">
        <ele>346.690791</ele>
        <time>2021-11-17T21:49:53.875Z</time>
      </trkpt>
      <trkpt lat="47.539222" lon="7.873416">
        <ele>346.690791</ele>
        <time>2021-11-17T21:49:57.921Z</time>
      </trkpt>
      <trkpt lat="47.538278" lon="7.874319">
        <ele>347.194299</ele>
        <time>2021-11-17T21:50:16.997Z</time>
      </trkpt>
      <trkpt lat="47.537716" lon="7.874966">
        <ele>347.945142</ele>
        <time>2021-11-17T21:50:30.981Z</time>
      </trkpt>
      <trkpt lat="47.537261" lon="7.875237">
        <ele>348.462461</ele>
        <time>2021-11-17T21:50:40.498Z</time>
      </trkpt>
      <trkpt lat="47.537182" lon="7.875293">
        <ele>348.554848</ele>
        <time>2021-11-17T21:50:42.487Z</time>
      </trkpt>
      <trkpt lat="47.536921" lon="7.875537">
        <ele>349.458125</ele>
        <time>2021-11-17T21:50:48.454Z</time>
      </trkpt>
      <trkpt lat="47.536757" lon="7.875759">
        <ele>350.155716</ele>
        <time>2021-11-17T21:50:53.055Z</time>
      </trkpt>
      <trkpt lat="47.536632" lon="7.875912">
        <ele>350.664872</ele>
        <time>2021-11-17T21:50:56.223Z</time>
      </trkpt>
      <trkpt lat="47.536444" lon="7.876177">
        <ele>351.479750</ele>
        <time>2021-11-17T21:51:03.185Z</time>
      </trkpt>
      <trkpt lat="47.535851" lon="7.877319">
        <ele>354.742574</ele>
        <time>2021-11-17T21:51:34.499Z</time>
      </trkpt>
      <trkpt lat="47.535770" lon="7.877432">
        <ele>355.336591</ele>
        <time>2021-11-17T21:51:38.679Z</time>
      </trkpt>
      <trkpt lat="47.535635" lon="7.877484">
        <ele>356.081259</ele>
        <time>2021-11-17T21:51:44.546Z</time>
      </trkpt>
      <trkpt lat="47.535551" lon="7.877487">
        <ele>356.529823</ele>
        <time>2021-11-17T21:51:46.455Z</time>
      </trkpt>
      <trkpt lat="47.535322" lon="7.877590">
        <ele>357.807462</ele>
        <time>2021-11-17T21:51:56.506Z</time>
      </trkpt>
      <trkpt lat="47.535088" lon="7.877742">
        <ele>359.171519</ele>
        <time>2021-11-17T21:52:04.338Z</time>
      </trkpt>
      <trkpt lat="47.534855" lon="7.878090">
        <ele>360.937989</ele>
        <time>2021-11-17T21:52:16.321Z</time>
      </trkpt>
      <trkpt lat="47.534778" lon="7.878270">
        <ele>361.706018</ele>
        <time>2021-11-17T21:52:23.628Z</time>
      </trkpt>
      <trkpt lat="47.534825" lon="7.878414">
        <ele>362.282498</ele>
        <time>2021-11-17T21:52:26.255Z</time>
      </trkpt>
      <trkpt lat="47.534946" lon="7.878790">
        <ele>363.783769</ele>
        <time>2021-11-17T21:52:38.303Z</time>
      </trkpt>
      <trkpt lat="47.534908" lon="7.878975">
        <ele>364.325038</ele>
        <time>2021-11-17T21:52:42.361Z</time>
      </trkpt>
      <trkpt lat="47.534616" lon="7.879490">
        <ele>366.161989</ele>
        <time>2021-11-17T21:52:59.307Z</time>
      </trkpt>
      <trkpt lat="47.533892" lon="7.880353">
        <ele>369.921828</ele>
        <time>2021-11-17T21:53:27.047Z</time>
      </trkpt>
      <trkpt lat="47.533606" lon="7.880961">
        <ele>371.376883</ele>
        <time>2021-11-17T21:53:39.355Z</time>
      </trkpt>
      <trkpt lat="47.533374" lon="7.881639">
        <ele>372.031891</ele>
        <time>2021-11-17T21:53:50.401Z</time>
      </trkpt>
      <trkpt lat="47.533014" lon="7.882949">
        <ele>373.250695</ele>
        <time>2021-11-17T21:54:08.316Z</time>
      </trkpt>
      <trkpt lat="47.532859" lon="7.883508">
        <ele>373.162832</ele>
        <time>2021-11-17T21:54:14.194Z</time>
      </trkpt>
      <trkpt lat="47.532713" lon="7.884122">
        <ele>372.778419</ele>
        <time>2021-11-17T21:54:19.891Z</time>
      </trkpt>
      <trkpt lat="47.532699" lon="7.884224">
        <ele>372.716953</ele>
        <time>2021-11-17T21:54:20.845Z</time>
      </trkpt>
      <trkpt lat="47.532670" lon="7.884773">
        <ele>372.391761</ele>
        <time>2021-11-17T21:54:25.339Z</time>
      </trkpt>
      <trkpt lat="47.532658" lon="7.884989">
        <ele>372.263776</ele>
        <time>2021-11-17T21:54:26.951Z</time>
      </trkpt>
      <trkpt lat="47.532650" lon="7.885569">
        <ele>371.921198</ele>
        <time>2021-11-17T21:54:31.453Z</time>
      </trkpt>
      <trkpt lat="47.532505" lon="7.887120">
        <ele>370.168067</ele>
        <time>2021-11-17T21:54:43.404Z</time>
      </trkpt>
      <trkpt lat="47.532288" lon="7.887728">
        <ele>369.361679</ele>
        <time>2021-11-17T21:54:48.581Z</time>
      </trkpt>
      <trkpt lat="47.532011" lon="7.888896">
        <ele>368.205509</ele>
        <time>2021-11-17T21:54:57.811Z</time>
      </trkpt>
      <trkpt lat="47.531843" lon="7.889349">
        <ele>367.822313</ele>
        <time>2021-11-17T21:55:01.848Z</time>
      </trkpt>
      <trkpt lat="47.531560" lon="7.889776">
        <ele>367.378687</ele>
        <time>2021-11-17T21:55:06.788Z</time>
      </trkpt>
      <trkpt lat="47.531265" lon="7.889937">
        <ele>367.033450</ele>
        <time>2021-11-17T21:55:10.756Z</time>
      </trkpt>
      <trkpt lat="47.531076" lon="7.890029">
        <ele>366.814985</ele>
        <time>2021-11-17T21:55:13.597Z</time>
      </trkpt>
      <trkpt lat="47.530606" lon="7.890373">
        <ele>367.027525</ele>
        <time>2021-11-17T21:55:21.446Z</time>
      </trkpt>
      <trkpt lat="47.530322" lon="7.890690">
        <ele>367.253745</ele>
        <time>2021-11-17T21:55:27.439Z</time>
      </trkpt>
      <trkpt lat="47.529972" lon="7.891210">
        <ele>367.569108</ele>
        <time>2021-11-17T21:55:36.601Z</time>
      </trkpt>
      <trkpt lat="47.529714" lon="7.891609">
        <ele>367.806394</ele>
        <time>2021-11-17T21:55:43.935Z</time>
      </trkpt>
      <trkpt lat="47.529695" lon="7.891638">
        <ele>367.823750</ele>
        <time>2021-11-17T21:55:44.921Z</time>
      </trkpt>
      <trkpt lat="47.529235" lon="7.892158">
        <ele>368.401216</ele>
        <time>2021-11-17T21:55:55.855Z</time>
      </trkpt>
      <trkpt lat="47.528331" lon="7.892682">
        <ele>369.436709</ele>
        <time>2021-11-17T21:56:14.557Z</time>
      </trkpt>
      <trkpt lat="47.528003" lon="7.892732">
        <ele>369.788425</ele>
        <time>2021-11-17T21:56:20.263Z</time>
      </trkpt>
      <trkpt lat="47.527498" lon="7.892650">
        <ele>370.859445</ele>
        <time>2021-11-17T21:56:29.736Z</time>
      </trkpt>
      <trkpt lat="47.527011" lon="7.893061">
        <ele>372.055138</ele>
        <time>2021-11-17T21:56:42.929Z</time>
      </trkpt>
      <trkpt lat="47.526709" lon="7.893617">
        <ele>373.082953</ele>
        <time>2021-11-17T21:56:55.461Z</time>
      </trkpt>
      <trkpt lat="47.526504" lon="7.894030">
        <ele>373.863820</ele>
        <time>2021-11-17T21:57:05.642Z</time>
      </trkpt>
      <trkpt lat="47.526451" lon="7.893983">
        <ele>374.026169</ele>
        <time>2021-11-17T21:57:07.031Z</time>
      </trkpt>
      <trkpt lat="47.526401" lon="7.893964">
        <ele>374.161829</ele>
        <time>2021-11-17T21:57:07.848Z</time>
      </trkpt>
      <trkpt lat="47.526335" lon="7.893960">
        <ele>374.335426</ele>
        <time>2021-11-17T21:57:09.922Z</time>
      </trkpt>
      <trkpt lat="47.526257" lon="7.894278">
        <ele>374.935825</ele>
        <time>2021-11-17T21:57:16.134Z</time>
      </trkpt>
      <trkpt lat="47.525725" lon="7.895110">
        <ele>376.969227</ele>
        <time>2021-11-17T21:57:35.216Z</time>
      </trkpt>
      <trkpt lat="47.525603" lon="7.895265">
        <ele>377.391672</ele>
        <time>2021-11-17T21:57:40.832Z</time>
      </trkpt>
      <trkpt lat="47.525631" lon="7.895442">
        <ele>377.714284</ele>
        <time>2021-11-17T21:57:43.682Z</time>
      </trkpt>
      <trkpt lat="47.525631" lon="7.895583">
        <ele>377.964506</ele>
        <time>2021-11-17T21:57:44.873Z</time>
      </trkpt>
      <trkpt lat="47.525622" lon="7.895944">
        <ele>378.420871</ele>
        <time>2021-11-17T21:57:52.309Z</time>
      </trkpt>
      <trkpt lat="47.525590" lon="7.896117">
        <ele>378.494951</ele>
        <time>2021-11-17T21:57:53.862Z</time>
      </trkpt>
      <trkpt lat="47.525518" lon="7.896336">
        <ele>378.595547</ele>
        <time>2021-11-17T21:57:58.669Z</time>
      </trkpt>
      <trkpt lat="47.524834" lon="7.897636">
        <ele>379.276181</ele>
        <time>2021-11-17T21:58:15.592Z</time>
      </trkpt>
      <trkpt lat="47.524617" lon="7.898216">
        <ele>379.503540</ele>
        <time>2021-11-17T21:58:21.766Z</time>
      </trkpt>
      <trkpt lat="47.524360" lon="7.898951">
        <ele>379.658681</ele>
        <time>2021-11-17T21:58:29.306Z</time>
      </trkpt>
      <trkpt lat="47.524309" lon="7.899115">
        <ele>379.692524</ele>
        <time>2021-11-17T21:58:31.220Z</time>
      </trkpt>
      <trkpt lat="47.523896" lon="7.900001">
        <ele>379.894321</ele>
        <time>2021-11-17T21:58:43.143Z</time>
      </trkpt>
      <trkpt lat="47.523861" lon="7.900049">
        <ele>379.907562</ele>
        <time>2021-11-17T21:58:44.122Z</time>
      </trkpt>
      <trkpt lat="47.523890" lon="7.900131">
        <ele>379.924912</ele>
        <time>2021-11-17T21:58:45.077Z</time>
      </trkpt>
      <trkpt lat="47.523945" lon="7.900256">
        <ele>379.952877</ele>
        <time>2021-11-17T21:58:46.668Z</time>
      </trkpt>
      <trkpt lat="47.523989" lon="7.900340">
        <ele>380.055948</ele>
        <time>2021-11-17T21:58:47.718Z</time>
      </trkpt>
      <trkpt lat="47.523957" lon="7.900371">
        <ele>380.168700</ele>
        <time>2021-11-17T21:58:48.423Z</time>
      </trkpt>
      <trkpt lat="47.523878" lon="7.900445">
        <ele>380.444329</ele>
        <time>2021-11-17T21:58:50.540Z</time>
      </trkpt>
      <trkpt lat="47.523739" lon="7.900557">
        <ele>380.910928</ele>
        <time>2021-11-17T21:58:53.471Z</time>
      </trkpt>
      <trkpt lat="47.523648" lon="7.900606">
        <ele>381.196438</ele>
        <time>2021-11-17T21:58:55.650Z</time>
      </trkpt>
      <trkpt lat="47.523620" lon="7.900698">
        <ele>381.397370</ele>
        <time>2021-11-17T21:58:57.613Z</time>
      </trkpt>
      <trkpt lat="47.523567" lon="7.900820">
        <ele>381.686217</ele>
        <time>2021-11-17T21:58:59.711Z</time>
      </trkpt>
      <trkpt lat="47.523433" lon="7.901043">
        <ele>382.280586</ele>
        <time>2021-11-17T21:59:04.955Z</time>
      </trkpt>
      <trkpt lat="47.523340" lon="7.901197">
        <ele>382.691955</ele>
        <time>2021-11-17T21:59:08.997Z</time>
      </trkpt>
      <trkpt lat="47.523036" lon="7.901580">
        <ele>383.868846</ele>
        <time>2021-11-17T21:59:20.693Z</time>
      </trkpt>
      <trkpt lat="47.522688" lon="7.901843">
        <ele>385.020867</ele>
        <time>2021-11-17T21:59:33.011Z</time>
      </trkpt>
      <trkpt lat="47.522554" lon="7.901999">
        <ele>385.614324</ele>
        <time>2021-11-17T21:59:39.332Z</time>
      </trkpt>
      <trkpt lat="47.522260" lon="7.902356">
        <ele>387.133593</ele>
        <time>2021-11-17T21:59:51.705Z</time>
      </trkpt>
      <trkpt lat="47.522132" lon="7.902476">
        <ele>387.738955</ele>
        <time>2021-11-17T21:59:56.263Z</time>
      </trkpt>
      <trkpt lat="47.522065" lon="7.902526">
        <ele>388.038757</ele>
        <time>2021-11-17T21:59:58.457Z</time>
      </trkpt>
      <trkpt lat="47.522038" lon="7.902562">
        <ele>388.183937</ele>
        <time>2021-11-17T21:59:59.961Z</time>
      </trkpt>
      <trkpt lat="47.522013" lon="7.902637">
        <ele>388.409634</ele>
        <time>2021-11-17T22:00:02.095Z</time>
      </trkpt>
      <trkpt lat="47.521792" lon="7.903347">
        <ele>390.519274</ele>
        <time>2021-11-17T22:00:18.163Z</time>
      </trkpt>
      <trkpt lat="47.521297" lon="7.904312">
        <ele>393.116535</ele>
        <time>2021-11-17T22:00:42.067Z</time>
      </trkpt>
      <trkpt lat="47.520989" lon="7.905130">
        <ele>394.369635</ele>
        <time>2021-11-17T22:00:57.568Z</time>
      </trkpt>
      <trkpt lat="47.520834" lon="7.905586">
        <ele>395.052688</ele>
        <time>2021-11-17T22:01:04.560Z</time>
      </trkpt>
      <trkpt lat="47.520781" lon="7.905743">
        <ele>395.287537</ele>
        <time>2021-11-17T22:01:06.312Z</time>
      </trkpt>
      <trkpt lat="47.520678" lon="7.906050">
        <ele>395.746202</ele>
        <time>2021-11-17T22:01:11.053Z</time>
      </trkpt>
      <trkpt lat="47.520566" lon="7.906668">
        <ele>396.054553</ele>
        <time>2021-11-17T22:01:18.010Z</time>
      </trkpt>
      <trkpt lat="47.520528" lon="7.906930">
        <ele>396.076715</ele>
        <time>2021-11-17T22:01:21.279Z</time>
      </trkpt>
      <trkpt lat="47.520515" lon="7.907103">
        <ele>396.091111</ele>
        <time>2021-11-17T22:01:23.129Z</time>
      </trkpt>
      <trkpt lat="47.520506" lon="7.907236">
        <ele>396.102165</ele>
        <time>2021-11-17T22:01:24.174Z</time>
      </trkpt>
      <trkpt lat="47.520551" lon="7.907422">
        <ele>396.118505</ele>
        <time>2021-11-17T22:01:26.612Z</time>
      </trkpt>
      <trkpt lat="47.520733" lon="7.907655">
        <ele>396.147969</ele>
        <time>2021-11-17T22:01:29.773Z</time>
      </trkpt>
      <trkpt lat="47.520738" lon="7.907839">
        <ele>396.163198</ele>
        <time>2021-11-17T22:01:31.959Z</time>
      </trkpt>
      <trkpt lat="47.520493" lon="7.908683">
        <ele>396.240733</ele>
        <time>2021-11-17T22:01:40.175Z</time>
      </trkpt>
      <trkpt lat="47.519997" lon="7.910833">
        <ele>397.088255</ele>
        <time>2021-11-17T22:02:06.121Z</time>
      </trkpt>
      <trkpt lat="47.519891" lon="7.911129">
        <ele>397.213237</ele>
        <time>2021-11-17T22:02:10.711Z</time>
      </trkpt>
      <trkpt lat="47.519720" lon="7.911522">
        <ele>397.539793</ele>
        <time>2021-11-17T22:02:16.796Z</time>
      </trkpt>
      <trkpt lat="47.519421" lon="7.912098">
        <ele>398.076182</ele>
        <time>2021-11-17T22:02:26.362Z</time>
      </trkpt>
      <trkpt lat="47.517688" lon="7.914418">
        <ele>400.567375</ele>
        <time>2021-11-17T22:03:10.940Z</time>
      </trkpt>
      <trkpt lat="47.517281" lon="7.915238">
        <ele>401.266566</ele>
        <time>2021-11-17T22:03:24.106Z</time>
      </trkpt>
      <trkpt lat="47.517140" lon="7.915259">
        <ele>401.401003</ele>
        <time>2021-11-17T22:03:26.765Z</time>
      </trkpt>
      <trkpt lat="47.516806" lon="7.914896">
        <ele>401.794053</ele>
        <time>2021-11-17T22:03:34.425Z</time>
      </trkpt>
      <trkpt lat="47.516748" lon="7.914873">
        <ele>401.851015</ele>
        <time>2021-11-17T22:03:35.578Z</time>
      </trkpt>
      <trkpt lat="47.516662" lon="7.914835">
        <ele>401.936156</ele>
        <time>2021-11-17T22:03:37.342Z</time>
      </trkpt>
      <trkpt lat="47.516626" lon="7.914830">
        <ele>401.970458</ele>
        <time>2021-11-17T22:03:38.027Z</time>
      </trkpt>
      <trkpt lat="47.516590" lon="7.914840">
        <ele>402.005206</ele>
        <time>2021-11-17T22:03:38.690Z</time>
      </trkpt>
      <trkpt lat="47.516569" lon="7.914864">
        <ele>402.030372</ele>
        <time>2021-11-17T22:03:39.317Z</time>
      </trkpt>
      <trkpt lat="47.516544" lon="7.914936">
        <ele>402.082243</ele>
        <time>2021-11-17T22:03:40.142Z</time>
      </trkpt>
      <trkpt lat="47.516391" lon="7.915243">
        <ele>402.326696</ele>
        <time>2021-11-17T22:03:44.831Z</time>
      </trkpt>
      <trkpt lat="47.516356" lon="7.915289">
        <ele>402.371093</ele>
        <time>2021-11-17T22:03:45.860Z</time>
      </trkpt>
      <trkpt lat="47.515014" lon="7.917030">
        <ele>404.093327</ele>
        <time>2021-11-17T22:04:18.594Z</time>
      </trkpt>
      <trkpt lat="47.514635" lon="7.917349">
        <ele>404.516468</ele>
        <time>2021-11-17T22:04:26.546Z</time>
      </trkpt>
      <trkpt lat="47.514561" lon="7.917409">
        <ele>404.645847</ele>
        <time>2021-11-17T22:04:28.412Z</time>
      </trkpt>
      <trkpt lat="47.514255" lon="7.917714">
        <ele>405.254850</ele>
        <time>2021-11-17T22:04:35.787Z</time>
      </trkpt>
      <trkpt lat="47.513378" lon="7.918393">
        <ele>406.888755</ele>
        <time>2021-11-17T22:04:57.439Z</time>
      </trkpt>
      <trkpt lat="47.513160" lon="7.918764">
        <ele>407.437099</ele>
        <time>2021-11-17T22:05:04.941Z</time>
      </trkpt>
      <trkpt lat="47.513058" lon="7.918896">
        <ele>407.666356</ele>
        <time>2021-11-17T22:05:08.096Z</time>
      </trkpt>
      <trkpt lat="47.512938" lon="7.919052">
        <ele>407.939190</ele>
        <time>2021-11-17T22:05:11.876Z</time>
      </trkpt>
      <trkpt lat="47.512664" lon="7.919306">
        <ele>408.491504</ele>
        <time>2021-11-17T22:05:19.202Z</time>
      </trkpt>
      <trkpt lat="47.512255" lon="7.919538">
        <ele>409.239805</ele>
        <time>2021-11-17T22:05:28.887Z</time>
      </trkpt>
      <trkpt lat="47.512085" lon="7.919732">
        <ele>409.606512</ele>
        <time>2021-11-17T22:05:33.511Z</time>
      </trkpt>
      <trkpt lat="47.511964" lon="7.919989">
        <ele>409.968023</ele>
        <time>2021-11-17T22:05:38.048Z</time>
      </trkpt>
      <trkpt lat="47.511883" lon="7.920133">
        <ele>410.184273</ele>
        <time>2021-11-17T22:05:40.702Z</time>
      </trkpt>
      <trkpt lat="47.511632" lon="7.920105">
        <ele>410.593927</ele>
        <time>2021-11-17T22:05:47.352Z</time>
      </trkpt>
      <trkpt lat="47.511613" lon="7.920183">
        <ele>410.642338</ele>
        <time>2021-11-17T22:05:48.267Z</time>
      </trkpt>
      <trkpt lat="47.511186" lon="7.920984">
        <ele>411.238100</ele>
        <time>2021-11-17T22:06:00.997Z</time>
      </trkpt>
      <trkpt lat="47.511067" lon="7.921207">
        <ele>411.404027</ele>
        <time>2021-11-17T22:06:04.312Z</time>
      </trkpt>
      <trkpt lat="47.511052" lon="7.921232">
        <ele>411.423550</ele>
        <time>2021-11-17T22:06:04.757Z</time>
      </trkpt>
      <trkpt lat="47.510872" lon="7.921477">
        <ele>411.634901</ele>
        <time>2021-11-17T22:06:09.077Z</time>
      </trkpt>
      <trkpt lat="47.510639" lon="7.921796">
        <ele>411.909220</ele>
        <time>2021-11-17T22:06:14.590Z</time>
      </trkpt>
      <trkpt lat="47.510370" lon="7.922027">
        <ele>412.216747</ele>
        <time>2021-11-17T22:06:19.672Z</time>
      </trkpt>
      <trkpt lat="47.509688" lon="7.922616">
        <ele>413.425070</ele>
        <time>2021-11-17T22:06:35.078Z</time>
      </trkpt>
      <trkpt lat="47.509615" lon="7.922742">
        <ele>413.596666</ele>
        <time>2021-11-17T22:06:38.060Z</time>
      </trkpt>
      <trkpt lat="47.509583" lon="7.922962">
        <ele>413.829297</ele>
        <time>2021-11-17T22:06:40.830Z</time>
      </trkpt>
      <trkpt lat="47.509550" lon="7.923245">
        <ele>414.126166</ele>
        <time>2021-11-17T22:06:45.533Z</time>
      </trkpt>
      <trkpt lat="47.509595" lon="7.923295">
        <ele>414.212271</ele>
        <time>2021-11-17T22:06:46.642Z</time>
      </trkpt>
      <trkpt lat="47.509668" lon="7.923400">
        <ele>414.368033</ele>
        <time>2021-11-17T22:06:48.573Z</time>
      </trkpt>
      <trkpt lat="47.509817" lon="7.923703">
        <ele>414.755460</ele>
        <time>2021-11-17T22:06:54.719Z</time>
      </trkpt>
      <trkpt lat="47.509869" lon="7.923971">
        <ele>415.116989</ele>
        <time>2021-11-17T22:06:58.618Z</time>
      </trkpt>
      <trkpt lat="47.509886" lon="7.924134">
        <ele>415.363982</ele>
        <time>2021-11-17T22:07:01.925Z</time>
      </trkpt>
      <trkpt lat="47.509806" lon="7.924174">
        <ele>415.551189</ele>
        <time>2021-11-17T22:07:03.684Z</time>
      </trkpt>
      <trkpt lat="47.509676" lon="7.924247">
        <ele>415.859444</ele>
        <time>2021-11-17T22:07:06.588Z</time>
      </trkpt>
      <trkpt lat="47.509605" lon="7.924290">
        <ele>416.029518</ele>
        <time>2021-11-17T22:07:08.589Z</time>
      </trkpt>
      <trkpt lat="47.509572" lon="7.924311">
        <ele>416.109154</ele>
        <time>2021-11-17T22:07:09.809Z</time>
      </trkpt>
      <trkpt lat="47.509223" lon="7.924628">
        <ele>417.016934</ele>
        <time>2021-11-17T22:07:19.877Z</time>
      </trkpt>
      <trkpt lat="47.509032" lon="7.924863">
        <ele>417.567545</ele>
        <time>2021-11-17T22:07:25.815Z</time>
      </trkpt>
      <trkpt lat="47.509016" lon="7.924882">
        <ele>417.613019</ele>
        <time>2021-11-17T22:07:26.405Z</time>
      </trkpt>
      <trkpt lat="47.508667" lon="7.925295">
        <ele>418.603595</ele>
        <time>2021-11-17T22:07:37.435Z</time>
      </trkpt>
      <trkpt lat="47.508355" lon="7.925609">
        <ele>419.468579</ele>
        <time>2021-11-17T22:07:45.554Z</time>
      </trkpt>
      <trkpt lat="47.508106" lon="7.925799">
        <ele>420.120655</ele>
        <time>2021-11-17T22:07:51.654Z</time>
      </trkpt>
      <trkpt lat="47.508002" lon="7.925879">
        <ele>420.393472</ele>
        <time>2021-11-17T22:07:53.920Z</time>
      </trkpt>
      <trkpt lat="47.507856" lon="7.925990">
        <ele>420.775523</ele>
        <time>2021-11-17T22:07:57.646Z</time>
      </trkpt>
      <trkpt lat="47.506112" lon="7.927414">
        <ele>426.567397</ele>
        <time>2021-11-17T22:08:48.770Z</time>
      </trkpt>
      <trkpt lat="47.505881" lon="7.927601">
        <ele>427.480785</ele>
        <time>2021-11-17T22:08:58.263Z</time>
      </trkpt>
      <trkpt lat="47.505868" lon="7.927611">
        <ele>427.531610</ele>
        <time>2021-11-17T22:08:58.747Z</time>
      </trkpt>
      <trkpt lat="47.505814" lon="7.927657">
        <ele>427.747751</ele>
        <time>2021-11-17T22:09:00.641Z</time>
      </trkpt>
      <trkpt lat="47.505253" lon="7.928170">
        <ele>429.887127</ele>
        <time>2021-11-17T22:09:22.515Z</time>
      </trkpt>
      <trkpt lat="47.504799" lon="7.928777">
        <ele>431.584648</ele>
        <time>2021-11-17T22:09:38.350Z</time>
      </trkpt>
      <trkpt lat="47.504724" lon="7.928871">
        <ele>431.857331</ele>
        <time>2021-11-17T22:09:42.867Z</time>
      </trkpt>
      <trkpt lat="47.504650" lon="7.928941">
        <ele>432.101010</ele>
        <time>2021-11-17T22:09:44.839Z</time>
      </trkpt>
      <trkpt lat="47.504005" lon="7.929312">
        <ele>434.021123</ele>
        <time>2021-11-17T22:10:00.215Z</time>
      </trkpt>
      <trkpt lat="47.503815" lon="7.929426">
        <ele>434.381919</ele>
        <time>2021-11-17T22:10:03.132Z</time>
      </trkpt>
      <trkpt lat="47.503598" lon="7.929585">
        <ele>434.594403</ele>
        <time>2021-11-17T22:10:08.451Z</time>
      </trkpt>
      <trkpt lat="47.503528" lon="7.929650">
        <ele>434.666918</ele>
        <time>2021-11-17T22:10:09.561Z</time>
      </trkpt>
      <trkpt lat="47.503485" lon="7.929688">
        <ele>434.710866</ele>
        <time>2021-11-17T22:10:11.105Z</time>
      </trkpt>
      <trkpt lat="47.503014" lon="7.930220">
        <ele>435.230785</ele>
        <time>2021-11-17T22:10:21.101Z</time>
      </trkpt>
      <trkpt lat="47.502952" lon="7.930314">
        <ele>435.308669</ele>
        <time>2021-11-17T22:10:22.413Z</time>
      </trkpt>
      <trkpt lat="47.502761" lon="7.930610">
        <ele>435.551338</ele>
        <time>2021-11-17T22:10:27.460Z</time>
      </trkpt>
      <trkpt lat="47.502613" lon="7.930856">
        <ele>435.746628</ele>
        <time>2021-11-17T22:10:31.303Z</time>
      </trkpt>
      <trkpt lat="47.502400" lon="7.931256">
        <ele>436.028714</ele>
        <time>2021-11-17T22:10:38.112Z</time>
      </trkpt>
      <trkpt lat="47.502023" lon="7.932158">
        <ele>436.589824</ele>
        <time>2021-11-17T22:10:51.131Z</time>
      </trkpt>
      <trkpt lat="47.501901" lon="7.932351">
        <ele>436.729649</ele>
        <time>2021-11-17T22:10:54.924Z</time>
      </trkpt>
      <trkpt lat="47.501794" lon="7.932466">
        <ele>436.833195</ele>
        <time>2021-11-17T22:10:56.744Z</time>
      </trkpt>
      <trkpt lat="47.501463" lon="7.932668">
        <ele>437.113556</ele>
        <time>2021-11-17T22:11:02.884Z</time>
      </trkpt>
      <trkpt lat="47.501075" lon="7.932885">
        <ele>437.351465</ele>
        <time>2021-11-17T22:11:10.417Z</time>
      </trkpt>
      <trkpt lat="47.500990" lon="7.932950">
        <ele>437.387120</ele>
        <time>2021-11-17T22:11:12.380Z</time>
      </trkpt>
      <trkpt lat="47.500843" lon="7.933102">
        <ele>437.453947</ele>
        <time>2021-11-17T22:11:15.123Z</time>
      </trkpt>
      <trkpt lat="47.500435" lon="7.933872">
        <ele>437.700328</ele>
        <time>2021-11-17T22:11:24.996Z</time>
      </trkpt>
      <trkpt lat="47.500386" lon="7.933937">
        <ele>437.724849</ele>
        <time>2021-11-17T22:11:25.832Z</time>
      </trkpt>
      <trkpt lat="47.500352" lon="7.933976">
        <ele>437.740879</ele>
        <time>2021-11-17T22:11:26.590Z</time>
      </trkpt>
      <trkpt lat="47.500275" lon="7.934029">
        <ele>437.772526</ele>
        <time>2021-11-17T22:11:27.743Z</time>
      </trkpt>
      <trkpt lat="47.500208" lon="7.934071">
        <ele>437.799642</ele>
        <time>2021-11-17T22:11:29.023Z</time>
      </trkpt>
      <trkpt lat="47.500193" lon="7.934023">
        <ele>437.812958</ele>
        <time>2021-11-17T22:11:29.486Z</time>
      </trkpt>
      <trkpt lat="47.500169" lon="7.933984">
        <ele>437.826240</ele>
        <time>2021-11-17T22:11:29.909Z</time>
      </trkpt>
      <trkpt lat="47.500138" lon="7.933956">
        <ele>437.839774</ele>
        <time>2021-11-17T22:11:30.427Z</time>
      </trkpt>
      <trkpt lat="47.500067" lon="7.933946">
        <ele>437.866353</ele>
        <time>2021-11-17T22:11:31.354Z</time>
      </trkpt>
      <trkpt lat="47.500034" lon="7.933965">
        <ele>437.879549</ele>
        <time>2021-11-17T22:11:32.169Z</time>
      </trkpt>
      <trkpt lat="47.499993" lon="7.933864">
        <ele>437.909216</ele>
        <time>2021-11-17T22:11:33.796Z</time>
      </trkpt>
      <trkpt lat="47.499822" lon="7.933272">
        <ele>438.432217</ele>
        <time>2021-11-17T22:11:41.674Z</time>
      </trkpt>
      <trkpt lat="47.499538" lon="7.932868">
        <ele>438.991471</ele>
        <time>2021-11-17T22:11:49.631Z</time>
      </trkpt>
      <trkpt lat="47.499421" lon="7.932805">
        <ele>439.168239</ele>
        <time>2021-11-17T22:11:52.682Z</time>
      </trkpt>
      <trkpt lat="47.499354" lon="7.932769">
        <ele>439.269440</ele>
        <time>2021-11-17T22:11:54.410Z</time>
      </trkpt>
      <trkpt lat="47.499088" lon="7.932741">
        <ele>439.648063</ele>
        <time>2021-11-17T22:12:00.287Z</time>
      </trkpt>
      <trkpt lat="47.498997" lon="7.932758">
        <ele>439.778290</ele>
        <time>2021-11-17T22:12:02.324Z</time>
      </trkpt>
      <trkpt lat="47.498925" lon="7.932781">
        <ele>439.882870</ele>
        <time>2021-11-17T22:12:04.031Z</time>
      </trkpt>
      <trkpt lat="47.498481" lon="7.933011">
        <ele>440.567677</ele>
        <time>2021-11-17T22:12:13.285Z</time>
      </trkpt>
      <trkpt lat="47.498431" lon="7.932995">
        <ele>440.663002</ele>
        <time>2021-11-17T22:12:14.508Z</time>
      </trkpt>
      <trkpt lat="47.498391" lon="7.932972">
        <ele>440.742967</ele>
        <time>2021-11-17T22:12:15.426Z</time>
      </trkpt>
      <trkpt lat="47.498196" lon="7.932613">
        <ele>441.322894</ele>
        <time>2021-11-17T22:12:22.150Z</time>
      </trkpt>
      <trkpt lat="47.498138" lon="7.932522">
        <ele>441.480395</ele>
        <time>2021-11-17T22:12:24.150Z</time>
      </trkpt>
      <trkpt lat="47.498068" lon="7.932426">
        <ele>441.658222</ele>
        <time>2021-11-17T22:12:26.598Z</time>
      </trkpt>
      <trkpt lat="47.497907" lon="7.932254">
        <ele>442.028223</ele>
        <time>2021-11-17T22:12:31.300Z</time>
      </trkpt>
      <trkpt lat="47.497676" lon="7.932013">
        <ele>442.554865</ele>
        <time>2021-11-17T22:12:37.778Z</time>
      </trkpt>
      <trkpt lat="47.497430" lon="7.931757">
        <ele>443.115236</ele>
        <time>2021-11-17T22:12:45.370Z</time>
      </trkpt>
      <trkpt lat="47.497221" lon="7.931528">
        <ele>443.599799</ele>
        <time>2021-11-17T22:12:51.366Z</time>
      </trkpt>
      <trkpt lat="47.497104" lon="7.931414">
        <ele>443.858012</ele>
        <time>2021-11-17T22:12:54.164Z</time>
      </trkpt>
      <trkpt lat="47.496998" lon="7.931330">
        <ele>444.031834</ele>
        <time>2021-11-17T22:12:56.576Z</time>
      </trkpt>
      <trkpt lat="47.496424" lon="7.931075">
        <ele>444.898222</ele>
        <time>2021-11-17T22:13:07.324Z</time>
      </trkpt>
      <trkpt lat="47.496205" lon="7.930904">
        <ele>445.256180</ele>
        <time>2021-11-17T22:13:11.344Z</time>
      </trkpt>
      <trkpt lat="47.496162" lon="7.930842">
        <ele>445.342965</ele>
        <time>2021-11-17T22:13:12.910Z</time>
      </trkpt>
      <trkpt lat="47.496117" lon="7.930763">
        <ele>445.443893</ele>
        <time>2021-11-17T22:13:14.178Z</time>
      </trkpt>
      <trkpt lat="47.496051" lon="7.930607">
        <ele>445.623675</ele>
        <time>2021-11-17T22:13:16.960Z</time>
      </trkpt>
      <trkpt lat="47.495985" lon="7.930428">
        <ele>445.822854</ele>
        <time>2021-11-17T22:13:19.792Z</time>
      </trkpt>
      <trkpt lat="47.495801" lon="7.929891">
        <ele>446.410968</ele>
        <time>2021-11-17T22:13:29.449Z</time>
      </trkpt>
      <trkpt lat="47.495622" lon="7.929400">
        <ele>447.491094</ele>
        <time>2021-11-17T22:13:38.062Z</time>
      </trkpt>
      <trkpt lat="47.495562" lon="7.929221">
        <ele>447.892130</ele>
        <time>2021-11-17T22:13:41.022Z</time>
      </trkpt>
      <trkpt lat="47.495530" lon="7.929063">
        <ele>448.223179</ele>
        <time>2021-11-17T22:13:43.496Z</time>
      </trkpt>
      <trkpt lat="47.495455" lon="7.928595">
        <ele>449.188522</ele>
        <time>2021-11-17T22:13:52.323Z</time>
      </trkpt>
      <trkpt lat="47.495268" lon="7.927740">
        <ele>450.992192</ele>
        <time>2021-11-17T22:14:09.332Z</time>
      </trkpt>
      <trkpt lat="47.495031" lon="7.927006">
        <ele>452.863859</ele>
        <time>2021-11-17T22:14:26.234Z</time>
      </trkpt>
      <trkpt lat="47.494945" lon="7.926765">
        <ele>453.567673</ele>
        <time>2021-11-17T22:14:32.878Z</time>
      </trkpt>
      <trkpt lat="47.494515" lon="7.925509">
        <ele>457.203732</ele>
        <time>2021-11-17T22:15:01.297Z</time>
      </trkpt>
      <trkpt lat="47.494438" lon="7.925289">
        <ele>457.843555</ele>
        <time>2021-11-17T22:15:06.730Z</time>
      </trkpt>
      <trkpt lat="47.494034" lon="7.924101">
        <ele>460.971224</ele>
        <time>2021-11-17T22:15:31.793Z</time>
      </trkpt>
      <trkpt lat="47.493708" lon="7.923049">
        <ele>463.608910</ele>
        <time>2021-11-17T22:15:53.365Z</time>
      </trkpt>
      <trkpt lat="47.493397" lon="7.921760">
        <ele>467.182152</ele>
        <time>2021-11-17T22:16:20.345Z</time>
      </trkpt>
      <trkpt lat="47.493307" lon="7.921373">
        <ele>468.327073</ele>
        <time>2021-11-17T22:16:28.839Z</time>
      </trkpt>
      <trkpt lat="47.493236" lon="7.921091">
        <ele>469.168926</ele>
        <time>2021-11-17T22:16:35.220Z</time>
      </trkpt>
      <trkpt lat="47.493132" lon="7.920716">
        <ele>470.302879</ele>
        <time>2021-11-17T22:16:44.270Z</time>
      </trkpt>
      <trkpt lat="47.492813" lon="7.919900">
        <ele>473.040479</ele>
        <time>2021-11-17T22:17:05.753Z</time>
      </trkpt>
      <trkpt lat="47.492584" lon="7.919482">
        <ele>474.744491</ele>
        <time>2021-11-17T22:17:18.525Z</time>
      </trkpt>
      <trkpt lat="47.492227" lon="7.918989">
        <ele>477.032746</ele>
        <time>2021-11-17T22:17:35.427Z</time>
      </trkpt>
      <trkpt lat="47.491324" lon="7.917985">
        <ele>481.873177</ele>
        <time>2021-11-17T22:18:12.212Z</time>
      </trkpt>
      <trkpt lat="47.490822" lon="7.917158">
        <ele>484.465769</ele>
        <time>2021-11-17T22:18:34.372Z</time>
      </trkpt>
      <trkpt lat="47.490607" lon="7.916690">
        <ele>485.785561</ele>
        <time>2021-11-17T22:18:44.570Z</time>
      </trkpt>
      <trkpt lat="47.490429" lon="7.916164">
        <ele>487.049170</ele>
        <time>2021-11-17T22:18:54.439Z</time>
      </trkpt>
      <trkpt lat="47.490283" lon="7.915612">
        <ele>487.992797</ele>
        <time>2021-11-17T22:19:04.267Z</time>
      </trkpt>
      <trkpt lat="47.489987" lon="7.914083">
        <ele>490.524692</ele>
        <time>2021-11-17T22:19:30.048Z</time>
      </trkpt>
      <trkpt lat="47.489951" lon="7.913893">
        <ele>490.838814</ele>
        <time>2021-11-17T22:19:33.041Z</time>
      </trkpt>
      <trkpt lat="47.489922" lon="7.913738">
        <ele>491.109527</ele>
        <time>2021-11-17T22:19:35.547Z</time>
      </trkpt>
      <trkpt lat="47.489843" lon="7.913398">
        <ele>491.885316</ele>
        <time>2021-11-17T22:19:40.893Z</time>
      </trkpt>
      <trkpt lat="47.489607" lon="7.912646">
        <ele>493.674395</ele>
        <time>2021-11-17T22:19:55.122Z</time>
      </trkpt>
      <trkpt lat="47.489216" lon="7.911685">
        <ele>496.094868</ele>
        <time>2021-11-17T22:20:17.436Z</time>
      </trkpt>
      <trkpt lat="47.489040" lon="7.911300">
        <ele>497.168461</ele>
        <time>2021-11-17T22:20:26.903Z</time>
      </trkpt>
      <trkpt lat="47.488908" lon="7.911009">
        <ele>498.102215</ele>
        <time>2021-11-17T22:20:35.464Z</time>
      </trkpt>
      <trkpt lat="47.488699" lon="7.910498">
        <ele>499.693566</ele>
        <time>2021-11-17T22:20:49.127Z</time>
      </trkpt>
      <trkpt lat="47.488366" lon="7.909318">
        <ele>503.100452</ele>
        <time>2021-11-17T22:21:14.999Z</time>
      </trkpt>
      <trkpt lat="47.488241" lon="7.908835">
        <ele>504.358916</ele>
        <time>2021-11-17T22:21:24.186Z</time>
      </trkpt>
      <trkpt lat="47.488185" lon="7.908663">
        <ele>504.764556</ele>
        <time>2021-11-17T22:21:28.238Z</time>
      </trkpt>
      <trkpt lat="47.488080" lon="7.908344">
        <ele>505.518441</ele>
        <time>2021-11-17T22:21:34.199Z</time>
      </trkpt>
      <trkpt lat="47.487763" lon="7.907711">
        <ele>507.192400</ele>
        <time>2021-11-17T22:21:49.256Z</time>
      </trkpt>
      <trkpt lat="47.487587" lon="7.907459">
        <ele>507.962388</ele>
        <time>2021-11-17T22:21:55.716Z</time>
      </trkpt>
      <trkpt lat="47.487378" lon="7.907191">
        <ele>508.831892</ele>
        <time>2021-11-17T22:22:02.914Z</time>
      </trkpt>
      <trkpt lat="47.487197" lon="7.906946">
        <ele>509.638801</ele>
        <time>2021-11-17T22:22:09.056Z</time>
      </trkpt>
      <trkpt lat="47.486969" lon="7.906583">
        <ele>511.322270</ele>
        <time>2021-11-17T22:22:17.364Z</time>
      </trkpt>
      <trkpt lat="47.486769" lon="7.905976">
        <ele>513.616247</ele>
        <time>2021-11-17T22:22:33.393Z</time>
      </trkpt>
      <trkpt lat="47.486724" lon="7.905485">
        <ele>515.299411</ele>
        <time>2021-11-17T22:22:46.065Z</time>
      </trkpt>
      <trkpt lat="47.486755" lon="7.904487">
        <ele>518.710744</ele>
        <time>2021-11-17T22:23:12.932Z</time>
      </trkpt>
      <trkpt lat="47.486721" lon="7.904326">
        <ele>519.377124</ele>
        <time>2021-11-17T22:23:17.947Z</time>
      </trkpt>
      <trkpt lat="47.486688" lon="7.904238">
        <ele>519.774717</ele>
        <time>2021-11-17T22:23:21.102Z</time>
      </trkpt>
      <trkpt lat="47.486480" lon="7.904016">
        <ele>521.273994</ele>
        <time>2021-11-17T22:23:30.206Z</time>
      </trkpt>
      <trkpt lat="47.486247" lon="7.904043">
        <ele>522.640313</ele>
        <time>2021-11-17T22:23:38.873Z</time>
      </trkpt>
      <trkpt lat="47.486049" lon="7.904262">
        <ele>524.085455</ele>
        <time>2021-11-17T22:23:50.269Z</time>
      </trkpt>
      <trkpt lat="47.485593" lon="7.905145">
        <ele>528.475879</ele>
        <time>2021-11-17T22:24:20.036Z</time>
      </trkpt>
      <trkpt lat="47.485331" lon="7.905337">
        <ele>529.222256</ele>
        <time>2021-11-17T22:24:28.619Z</time>
      </trkpt>
      <trkpt lat="47.485073" lon="7.905345">
        <ele>529.392027</ele>
        <time>2021-11-17T22:24:35.232Z</time>
      </trkpt>
      <trkpt lat="47.485049" lon="7.905336">
        <ele>529.408315</ele>
        <time>2021-11-17T22:24:36.829Z</time>
      </trkpt>
      <trkpt lat="47.484936" lon="7.905289">
        <ele>529.485537</ele>
        <time>2021-11-17T22:24:39.456Z</time>
      </trkpt>
      <trkpt lat="47.484713" lon="7.905133">
        <ele>529.647813</ele>
        <time>2021-11-17T22:24:45.077Z</time>
      </trkpt>
      <trkpt lat="47.484481" lon="7.904947">
        <ele>529.821404</ele>
        <time>2021-11-17T22:24:48.454Z</time>
      </trkpt>
      <trkpt lat="47.484248" lon="7.904856">
        <ele>529.979940</ele>
        <time>2021-11-17T22:24:51.482Z</time>
      </trkpt>
      <trkpt lat="47.484124" lon="7.904824">
        <ele>530.062748</ele>
        <time>2021-11-17T22:24:52.960Z</time>
      </trkpt>
      <trkpt lat="47.484064" lon="7.904808">
        <ele>530.102857</ele>
        <time>2021-11-17T22:24:53.628Z</time>
      </trkpt>
      <trkpt lat="47.484005" lon="7.904793">
        <ele>530.142241</ele>
        <time>2021-11-17T22:24:54.360Z</time>
      </trkpt>
      <trkpt lat="47.483385" lon="7.904708">
        <ele>527.834816</ele>
        <time>2021-11-17T22:25:00.814Z</time>
      </trkpt>
      <trkpt lat="47.483329" lon="7.904705">
        <ele>527.498504</ele>
        <time>2021-11-17T22:25:01.322Z</time>
      </trkpt>
      <trkpt lat="47.483101" lon="7.904680">
        <ele>526.126378</ele>
        <time>2021-11-17T22:25:03.451Z</time>
      </trkpt>
      <trkpt lat="47.482433" lon="7.904538">
        <ele>522.076121</ele>
        <time>2021-11-17T22:25:09.422Z</time>
      </trkpt>
      <trkpt lat="47.482157" lon="7.904346">
        <ele>520.245739</ele>
        <time>2021-11-17T22:25:12.136Z</time>
      </trkpt>
      <trkpt lat="47.481709" lon="7.903892">
        <ele>516.939465</ele>
        <time>2021-11-17T22:25:16.975Z</time>
      </trkpt>
      <trkpt lat="47.481588" lon="7.903776">
        <ele>516.057772</ele>
        <time>2021-11-17T22:25:18.260Z</time>
      </trkpt>
      <trkpt lat="47.481478" lon="7.903693">
        <ele>515.302666</ele>
        <time>2021-11-17T22:25:19.393Z</time>
      </trkpt>
      <trkpt lat="47.480980" lon="7.903461">
        <ele>512.109835</ele>
        <time>2021-11-17T22:25:24.223Z</time>
      </trkpt>
      <trkpt lat="47.478367" lon="7.903166">
        <ele>497.688586</ele>
        <time>2021-11-17T22:25:48.856Z</time>
      </trkpt>
      <trkpt lat="47.478182" lon="7.903109">
        <ele>496.505855</ele>
        <time>2021-11-17T22:25:50.599Z</time>
      </trkpt>
      <trkpt lat="47.478118" lon="7.903075">
        <ele>496.080249</ele>
        <time>2021-11-17T22:25:51.198Z</time>
      </trkpt>
      <trkpt lat="47.476982" lon="7.902234">
        <ele>488.129778</ele>
        <time>2021-11-17T22:26:02.691Z</time>
      </trkpt>
      <trkpt lat="47.476536" lon="7.901977">
        <ele>485.268180</ele>
        <time>2021-11-17T22:26:07.059Z</time>
      </trkpt>
      <trkpt lat="47.476364" lon="7.901870">
        <ele>484.157602</ele>
        <time>2021-11-17T22:26:08.754Z</time>
      </trkpt>
      <trkpt lat="47.475300" lon="7.901112">
        <ele>477.133940</ele>
        <time>2021-11-17T22:26:19.663Z</time>
      </trkpt>
      <trkpt lat="47.475163" lon="7.901034">
        <ele>476.390173</ele>
        <time>2021-11-17T22:26:20.989Z</time>
      </trkpt>
      <trkpt lat="47.474888" lon="7.900841">
        <ele>474.848000</ele>
        <time>2021-11-17T22:26:23.841Z</time>
      </trkpt>
      <trkpt lat="47.474617" lon="7.900560">
        <ele>473.171262</ele>
        <time>2021-11-17T22:26:26.971Z</time>
      </trkpt>
      <trkpt lat="47.474336" lon="7.900125">
        <ele>471.110580</ele>
        <time>2021-11-17T22:26:30.812Z</time>
      </trkpt>
      <trkpt lat="47.474186" lon="7.899915">
        <ele>470.064229</ele>
        <time>2021-11-17T22:26:32.747Z</time>
      </trkpt>
      <trkpt lat="47.474087" lon="7.899774">
        <ele>469.367962</ele>
        <time>2021-11-17T22:26:34.058Z</time>
      </trkpt>
      <trkpt lat="47.473931" lon="7.899567">
        <ele>468.306211</ele>
        <time>2021-11-17T22:26:36.018Z</time>
      </trkpt>
      <trkpt lat="47.473317" lon="7.898945">
        <ele>464.611481</ele>
        <time>2021-11-17T22:26:43.258Z</time>
      </trkpt>
      <trkpt lat="47.471910" lon="7.898392">
        <ele>457.317927</ele>
        <time>2021-11-17T22:26:56.852Z</time>
      </trkpt>
      <trkpt lat="47.471825" lon="7.898370">
        <ele>456.871403</ele>
        <time>2021-11-17T22:26:57.640Z</time>
      </trkpt>
      <trkpt lat="47.471597" lon="7.898344">
        <ele>455.688089</ele>
        <time>2021-11-17T22:26:59.792Z</time>
      </trkpt>
      <trkpt lat="47.471002" lon="7.898222">
        <ele>452.579754</ele>
        <time>2021-11-17T22:27:05.387Z</time>
      </trkpt>
      <trkpt lat="47.469999" lon="7.897879">
        <ele>448.303218</ele>
        <time>2021-11-17T22:27:15.138Z</time>
      </trkpt>
      <trkpt lat="47.469806" lon="7.897795">
        <ele>447.687045</ele>
        <time>2021-11-17T22:27:17.167Z</time>
      </trkpt>
      <trkpt lat="47.469534" lon="7.897638">
        <ele>446.792795</ele>
        <time>2021-11-17T22:27:20.253Z</time>
      </trkpt>
      <trkpt lat="47.469598" lon="7.897405">
        <ele>446.272088</ele>
        <time>2021-11-17T22:27:22.044Z</time>
      </trkpt>
      <trkpt lat="47.469652" lon="7.897139">
        <ele>445.697065</ele>
        <time>2021-11-17T22:27:24.068Z</time>
      </trkpt>
      <trkpt lat="47.469678" lon="7.896938">
        <ele>445.273365</ele>
        <time>2021-11-17T22:27:25.531Z</time>
      </trkpt>
      <trkpt lat="47.469692" lon="7.896826">
        <ele>445.037550</ele>
        <time>2021-11-17T22:27:26.427Z</time>
      </trkpt>
      <trkpt lat="47.469738" lon="7.896220">
        <ele>444.156744</ele>
        <time>2021-11-17T22:27:31.026Z</time>
      </trkpt>
      <trkpt lat="47.469747" lon="7.895922">
        <ele>443.973447</ele>
        <time>2021-11-17T22:27:33.266Z</time>
      </trkpt>
      <trkpt lat="47.469734" lon="7.895575">
        <ele>443.759896</ele>
        <time>2021-11-17T22:27:36.305Z</time>
      </trkpt>
      <trkpt lat="47.469728" lon="7.895384">
        <ele>443.642404</ele>
        <time>2021-11-17T22:27:37.901Z</time>
      </trkpt>
      <trkpt lat="47.469714" lon="7.895204">
        <ele>443.531069</ele>
        <time>2021-11-17T22:27:39.573Z</time>
      </trkpt>
      <trkpt lat="47.469691" lon="7.894970">
        <ele>443.385769</ele>
        <time>2021-11-17T22:27:41.709Z</time>
      </trkpt>
      <trkpt lat="47.469658" lon="7.894567">
        <ele>443.136324</ele>
        <time>2021-11-17T22:27:45.375Z</time>
      </trkpt>
      <trkpt lat="47.469496" lon="7.893085">
        <ele>442.232138</ele>
        <time>2021-11-17T22:27:58.590Z</time>
      </trkpt>
      <trkpt lat="47.469288" lon="7.891996">
        <ele>441.563902</ele>
        <time>2021-11-17T22:28:08.102Z</time>
      </trkpt>
      <trkpt lat="47.468951" lon="7.890216">
        <ele>440.377154</ele>
        <time>2021-11-17T22:28:23.105Z</time>
      </trkpt>
      <trkpt lat="47.468718" lon="7.888938">
        <ele>439.479122</ele>
        <time>2021-11-17T22:28:33.983Z</time>
      </trkpt>
      <trkpt lat="47.468546" lon="7.888014">
        <ele>439.408818</ele>
        <time>2021-11-17T22:28:42.310Z</time>
      </trkpt>
      <trkpt lat="47.468250" lon="7.886308">
        <ele>439.664844</ele>
        <time>2021-11-17T22:29:00.903Z</time>
      </trkpt>
      <trkpt lat="47.468174" lon="7.885724">
        <ele>440.441387</ele>
        <time>2021-11-17T22:29:09.780Z</time>
      </trkpt>
      <trkpt lat="47.468160" lon="7.885412">
        <ele>441.027333</ele>
        <time>2021-11-17T22:29:15.061Z</time>
      </trkpt>
      <trkpt lat="47.468160" lon="7.885131">
        <ele>441.553901</ele>
        <time>2021-11-17T22:29:19.441Z</time>
      </trkpt>
      <trkpt lat="47.468170" lon="7.884753">
        <ele>442.262780</ele>
        <time>2021-11-17T22:29:25.696Z</time>
      </trkpt>
      <trkpt lat="47.468175" lon="7.884477">
        <ele>442.780165</ele>
        <time>2021-11-17T22:29:31.217Z</time>
      </trkpt>
      <trkpt lat="47.468164" lon="7.884354">
        <ele>443.012664</ele>
        <time>2021-11-17T22:29:33.961Z</time>
      </trkpt>
      <trkpt lat="47.468085" lon="7.883534">
        <ele>444.564796</ele>
        <time>2021-11-17T22:29:50.756Z</time>
      </trkpt>
      <trkpt lat="47.467832" lon="7.882502">
        <ele>445.296412</ele>
        <time>2021-11-17T22:30:12.325Z</time>
      </trkpt>
      <trkpt lat="47.467789" lon="7.882188">
        <ele>445.487151</ele>
        <time>2021-11-17T22:30:18.146Z</time>
      </trkpt>
      <trkpt lat="47.467755" lon="7.881902">
        <ele>445.660035</ele>
        <time>2021-11-17T22:30:22.048Z</time>
      </trkpt>
      <trkpt lat="47.467712" lon="7.880819">
        <ele>445.948479</ele>
        <time>2021-11-17T22:30:30.727Z</time>
      </trkpt>
      <trkpt lat="47.467695" lon="7.879712">
        <ele>441.083983</ele>
        <time>2021-11-17T22:30:37.596Z</time>
      </trkpt>
      <trkpt lat="47.467758" lon="7.879308">
        <ele>439.262532</ele>
        <time>2021-11-17T22:30:40.083Z</time>
      </trkpt>
      <trkpt lat="47.467814" lon="7.879126">
        <ele>438.384048</ele>
        <time>2021-11-17T22:30:41.251Z</time>
      </trkpt>
      <trkpt lat="47.467908" lon="7.878819">
        <ele>436.903452</ele>
        <time>2021-11-17T22:30:43.279Z</time>
      </trkpt>
      <trkpt lat="47.468067" lon="7.878427">
        <ele>434.895125</ele>
        <time>2021-11-17T22:30:46.056Z</time>
      </trkpt>
      <trkpt lat="47.468104" lon="7.878354">
        <ele>434.496234</ele>
        <time>2021-11-17T22:30:46.566Z</time>
      </trkpt>
      <trkpt lat="47.468268" lon="7.878083">
        <ele>432.937042</ele>
        <time>2021-11-17T22:30:48.771Z</time>
      </trkpt>
      <trkpt lat="47.468308" lon="7.877998">
        <ele>432.493078</ele>
        <time>2021-11-17T22:30:49.411Z</time>
      </trkpt>
      <trkpt lat="47.468327" lon="7.877957">
        <ele>432.279990</ele>
        <time>2021-11-17T22:30:49.688Z</time>
      </trkpt>
      <trkpt lat="47.468377" lon="7.877826">
        <ele>431.635106</ele>
        <time>2021-11-17T22:30:50.566Z</time>
      </trkpt>
      <trkpt lat="47.468557" lon="7.876917">
        <ele>427.574771</ele>
        <time>2021-11-17T22:30:56.234Z</time>
      </trkpt>
      <trkpt lat="47.468639" lon="7.876439">
        <ele>425.460792</ele>
        <time>2021-11-17T22:30:59.430Z</time>
      </trkpt>
      <trkpt lat="47.468698" lon="7.876140">
        <ele>424.125590</ele>
        <time>2021-11-17T22:31:01.531Z</time>
      </trkpt>
      <trkpt lat="47.468806" lon="7.875696">
        <ele>422.784375</ele>
        <time>2021-11-17T22:31:04.810Z</time>
      </trkpt>
      <trkpt lat="47.468925" lon="7.875205">
        <ele>421.978186</ele>
        <time>2021-11-17T22:31:08.739Z</time>
      </trkpt>
      <trkpt lat="47.468989" lon="7.874967">
        <ele>421.582298</ele>
        <time>2021-11-17T22:31:10.532Z</time>
      </trkpt>
      <trkpt lat="47.469050" lon="7.874738">
        <ele>421.201869</ele>
        <time>2021-11-17T22:31:12.416Z</time>
      </trkpt>
      <trkpt lat="47.469068" lon="7.874689">
        <ele>421.115675</ele>
        <time>2021-11-17T22:31:12.849Z</time>
      </trkpt>
      <trkpt lat="47.469097" lon="7.874606">
        <ele>420.971268</ele>
        <time>2021-11-17T22:31:13.484Z</time>
      </trkpt>
      <trkpt lat="47.469136" lon="7.874516">
        <ele>420.806038</ele>
        <time>2021-11-17T22:31:14.238Z</time>
      </trkpt>
      <trkpt lat="47.469173" lon="7.874432">
        <ele>420.651078</ele>
        <time>2021-11-17T22:31:14.991Z</time>
      </trkpt>
      <trkpt lat="47.469224" lon="7.874328">
        <ele>420.452496</ele>
        <time>2021-11-17T22:31:16.033Z</time>
      </trkpt>
      <trkpt lat="47.469422" lon="7.873965">
        <ele>419.731580</ele>
        <time>2021-11-17T22:31:19.481Z</time>
      </trkpt>
      <trkpt lat="47.469489" lon="7.873809">
        <ele>419.445920</ele>
        <time>2021-11-17T22:31:20.923Z</time>
      </trkpt>
      <trkpt lat="47.469626" lon="7.873477">
        <ele>418.892845</ele>
        <time>2021-11-17T22:31:23.799Z</time>
      </trkpt>
      <trkpt lat="47.469682" lon="7.873326">
        <ele>418.687203</ele>
        <time>2021-11-17T22:31:25.139Z</time>
      </trkpt>
      <trkpt lat="47.469710" lon="7.873249">
        <ele>418.582809</ele>
        <time>2021-11-17T22:31:25.720Z</time>
      </trkpt>
      <trkpt lat="47.469969" lon="7.872276">
        <ele>417.334244</ele>
        <time>2021-11-17T22:31:33.705Z</time>
      </trkpt>
      <trkpt lat="47.470156" lon="7.871491">
        <ele>416.340480</ele>
        <time>2021-11-17T22:31:39.998Z</time>
      </trkpt>
      <trkpt lat="47.470217" lon="7.871214">
        <ele>415.992644</ele>
        <time>2021-11-17T22:31:42.168Z</time>
      </trkpt>
      <trkpt lat="47.470245" lon="7.871088">
        <ele>415.852001</ele>
        <time>2021-11-17T22:31:43.166Z</time>
      </trkpt>
      <trkpt lat="47.470316" lon="7.870753">
        <ele>415.597849</ele>
        <time>2021-11-17T22:31:46.041Z</time>
      </trkpt>
      <trkpt lat="47.470333" lon="7.870669">
        <ele>415.534374</ele>
        <time>2021-11-17T22:31:46.657Z</time>
      </trkpt>
      <trkpt lat="47.470350" lon="7.870570">
        <ele>415.460430</ele>
        <time>2021-11-17T22:31:47.451Z</time>
      </trkpt>
      <trkpt lat="47.470352" lon="7.870555">
        <ele>415.449362</ele>
        <time>2021-11-17T22:31:47.566Z</time>
      </trkpt>
      <trkpt lat="47.470379" lon="7.870338">
        <ele>415.289634</ele>
        <time>2021-11-17T22:31:49.442Z</time>
      </trkpt>
      <trkpt lat="47.470397" lon="7.870147">
        <ele>415.150029</ele>
        <time>2021-11-17T22:31:51.538Z</time>
      </trkpt>
      <trkpt lat="47.470378" lon="7.869626">
        <ele>414.772322</ele>
        <time>2021-11-17T22:31:57.555Z</time>
      </trkpt>
      <trkpt lat="47.470309" lon="7.869201">
        <ele>414.455909</ele>
        <time>2021-11-17T22:32:02.916Z</time>
      </trkpt>
      <trkpt lat="47.470234" lon="7.868884">
        <ele>414.212778</ele>
        <time>2021-11-17T22:32:06.917Z</time>
      </trkpt>
      <trkpt lat="47.470127" lon="7.868484">
        <ele>413.914186</ele>
        <time>2021-11-17T22:32:12.324Z</time>
      </trkpt>
      <trkpt lat="47.469915" lon="7.867494">
        <ele>413.348807</ele>
        <time>2021-11-17T22:32:25.509Z</time>
      </trkpt>
      <trkpt lat="47.469808" lon="7.866690">
        <ele>412.902685</ele>
        <time>2021-11-17T22:32:35.232Z</time>
      </trkpt>
      <trkpt lat="47.469764" lon="7.866452">
        <ele>412.768353</ele>
        <time>2021-11-17T22:32:38.243Z</time>
      </trkpt>
      <trkpt lat="47.469710" lon="7.866208">
        <ele>412.628574</ele>
        <time>2021-11-17T22:32:41.210Z</time>
      </trkpt>
      <trkpt lat="47.469629" lon="7.865918">
        <ele>412.407530</ele>
        <time>2021-11-17T22:32:44.965Z</time>
      </trkpt>
      <trkpt lat="47.469305" lon="7.864692">
        <ele>410.920684</ele>
        <time>2021-11-17T22:32:59.364Z</time>
      </trkpt>
      <trkpt lat="47.469011" lon="7.863405">
        <ele>409.393858</ele>
        <time>2021-11-17T22:33:14.074Z</time>
      </trkpt>
      <trkpt lat="47.468986" lon="7.863323">
        <ele>409.299118</ele>
        <time>2021-11-17T22:33:14.931Z</time>
      </trkpt>
      <trkpt lat="47.468943" lon="7.863195">
        <ele>409.148579</ele>
        <time>2021-11-17T22:33:16.479Z</time>
      </trkpt>
      <trkpt lat="47.468859" lon="7.862978">
        <ele>408.885214</ele>
        <time>2021-11-17T22:33:19.242Z</time>
      </trkpt>
      <trkpt lat="47.468825" lon="7.862900">
        <ele>408.787466</ele>
        <time>2021-11-17T22:33:20.218Z</time>
      </trkpt>
      <trkpt lat="47.468543" lon="7.862357">
        <ele>408.066286</ele>
        <time>2021-11-17T22:33:27.628Z</time>
      </trkpt>
      <trkpt lat="47.468224" lon="7.861805">
        <ele>407.301424</ele>
        <time>2021-11-17T22:33:35.791Z</time>
      </trkpt>
      <trkpt lat="47.467944" lon="7.861300">
        <ele>406.645593</ele>
        <time>2021-11-17T22:33:43.164Z</time>
      </trkpt>
      <trkpt lat="47.467266" lon="7.860107">
        <ele>405.636427</ele>
        <time>2021-11-17T22:34:01.875Z</time>
      </trkpt>
      <trkpt lat="47.467047" lon="7.859682">
        <ele>405.290410</ele>
        <time>2021-11-17T22:34:08.077Z</time>
      </trkpt>
      <trkpt lat="47.466922" lon="7.859398">
        <ele>405.070978</ele>
        <time>2021-11-17T22:34:12.041Z</time>
      </trkpt>
      <trkpt lat="47.466824" lon="7.859137">
        <ele>404.907523</ele>
        <time>2021-11-17T22:34:15.739Z</time>
      </trkpt>
      <trkpt lat="47.466673" lon="7.858620">
        <ele>404.655902</ele>
        <time>2021-11-17T22:34:22.294Z</time>
      </trkpt>
      <trkpt lat="47.466576" lon="7.858236">
        <ele>404.472752</ele>
        <time>2021-11-17T22:34:27.092Z</time>
      </trkpt>
      <trkpt lat="47.466518" lon="7.858022">
        <ele>404.369743</ele>
        <time>2021-11-17T22:34:29.086Z</time>
      </trkpt>
      <trkpt lat="47.466347" lon="7.856973">
        <ele>403.887636</ele>
        <time>2021-11-17T22:34:38.763Z</time>
      </trkpt>
      <trkpt lat="47.466344" lon="7.856945">
        <ele>403.874970</ele>
        <time>2021-11-17T22:34:38.954Z</time>
      </trkpt>
      <trkpt lat="47.466322" lon="7.856655">
        <ele>403.801295</ele>
        <time>2021-11-17T22:34:41.861Z</time>
      </trkpt>
      <trkpt lat="47.466310" lon="7.856541">
        <ele>403.821604</ele>
        <time>2021-11-17T22:34:42.975Z</time>
      </trkpt>
      <trkpt lat="47.466334" lon="7.856525">
        <ele>403.828459</ele>
        <time>2021-11-17T22:34:43.354Z</time>
      </trkpt>
      <trkpt lat="47.466353" lon="7.856496">
        <ele>403.835568</ele>
        <time>2021-11-17T22:34:43.821Z</time>
      </trkpt>
      <trkpt lat="47.466361" lon="7.856459">
        <ele>403.842406</ele>
        <time>2021-11-17T22:34:44.132Z</time>
      </trkpt>
      <trkpt lat="47.466359" lon="7.856420">
        <ele>403.849291</ele>
        <time>2021-11-17T22:34:44.440Z</time>
      </trkpt>
      <trkpt lat="47.466324" lon="7.856362">
        <ele>403.862976</ele>
        <time>2021-11-17T22:34:45.414Z</time>
      </trkpt>
      <trkpt lat="47.466298" lon="7.856354">
        <ele>403.869891</ele>
        <time>2021-11-17T22:34:45.768Z</time>
      </trkpt>
      <trkpt lat="47.466271" lon="7.856363">
        <ele>403.877098</ele>
        <time>2021-11-17T22:34:46.176Z</time>
      </trkpt>
      <trkpt lat="47.466237" lon="7.856421">
        <ele>403.890611</ele>
        <time>2021-11-17T22:34:46.921Z</time>
      </trkpt>
      <trkpt lat="47.466235" lon="7.856461">
        <ele>403.897671</ele>
        <time>2021-11-17T22:34:47.274Z</time>
      </trkpt>
      <trkpt lat="47.466156" lon="7.856481">
        <ele>403.918541</ele>
        <time>2021-11-17T22:34:48.471Z</time>
      </trkpt>
      <trkpt lat="47.465801" lon="7.856657">
        <ele>404.016032</ele>
        <time>2021-11-17T22:34:54.370Z</time>
      </trkpt>
      <trkpt lat="47.465748" lon="7.856649">
        <ele>404.029904</ele>
        <time>2021-11-17T22:34:55.210Z</time>
      </trkpt>
      <trkpt lat="47.465709" lon="7.856610">
        <ele>404.042162</ele>
        <time>2021-11-17T22:34:55.802Z</time>
      </trkpt>
      <trkpt lat="47.465621" lon="7.856321">
        <ele>404.097956</ele>
        <time>2021-11-17T22:34:59.545Z</time>
      </trkpt>
      <trkpt lat="47.465583" lon="7.856194">
        <ele>404.122404</ele>
        <time>2021-11-17T22:35:01.159Z</time>
      </trkpt>
      <trkpt lat="47.465550" lon="7.856132">
        <ele>404.136294</ele>
        <time>2021-11-17T22:35:01.812Z</time>
      </trkpt>
      <trkpt lat="47.465527" lon="7.856111">
        <ele>404.143332</ele>
        <time>2021-11-17T22:35:02.466Z</time>
      </trkpt>
      <trkpt lat="47.465400" lon="7.856122">
        <ele>404.176458</ele>
        <time>2021-11-17T22:35:04.589Z</time>
      </trkpt>
      <trkpt lat="47.464855" lon="7.856521">
        <ele>404.457594</ele>
        <time>2021-11-17T22:35:15.704Z</time>
      </trkpt>
      <trkpt lat="47.464813" lon="7.856540">
        <ele>404.486327</ele>
        <time>2021-11-17T22:35:16.603Z</time>
      </trkpt>
      <trkpt lat="47.464805" lon="7.856519">
        <ele>404.496988</ele>
        <time>2021-11-17T22:35:16.879Z</time>
      </trkpt>
      <trkpt lat="47.464741" lon="7.856458">
        <ele>404.546797</ele>
        <time>2021-11-17T22:35:18.093Z</time>
      </trkpt>
      <trkpt lat="47.464713" lon="7.856451">
        <ele>404.565374</ele>
        <time>2021-11-17T22:35:18.539Z</time>
      </trkpt>
      <trkpt lat="47.464688" lon="7.856453">
        <ele>404.581754</ele>
        <time>2021-11-17T22:35:18.959Z</time>
      </trkpt>
      <trkpt lat="47.464650" lon="7.856478">
        <ele>404.608962</ele>
        <time>2021-11-17T22:35:19.692Z</time>
      </trkpt>
      <trkpt lat="47.464638" lon="7.856496">
        <ele>404.620142</ele>
        <time>2021-11-17T22:35:20.078Z</time>
      </trkpt>
      <trkpt lat="47.464622" lon="7.856523">
        <ele>404.636022</ele>
        <time>2021-11-17T22:35:20.566Z</time>
      </trkpt>
      <trkpt lat="47.464610" lon="7.856554">
        <ele>404.651821</ele>
        <time>2021-11-17T22:35:20.911Z</time>
      </trkpt>
      <trkpt lat="47.464600" lon="7.856587">
        <ele>404.667816</ele>
        <time>2021-11-17T22:35:21.342Z</time>
      </trkpt>
      <trkpt lat="47.464530" lon="7.856598">
        <ele>404.713868</ele>
        <time>2021-11-17T22:35:22.737Z</time>
      </trkpt>
      <trkpt lat="47.464301" lon="7.856662">
        <ele>404.866333</ele>
        <time>2021-11-17T22:35:26.555Z</time>
      </trkpt>
      <trkpt lat="47.464174" lon="7.856697">
        <ele>404.950848</ele>
        <time>2021-11-17T22:35:28.976Z</time>
      </trkpt>
      <trkpt lat="47.463900" lon="7.856772">
        <ele>405.133146</ele>
        <time>2021-11-17T22:35:33.663Z</time>
      </trkpt>
      <trkpt lat="47.463826" lon="7.856840">
        <ele>405.190139</ele>
        <time>2021-11-17T22:35:35.188Z</time>
      </trkpt>
      <trkpt lat="47.463762" lon="7.856925">
        <ele>405.246410</ele>
        <time>2021-11-17T22:35:36.717Z</time>
      </trkpt>
      <trkpt lat="47.463161" lon="7.858061">
        <ele>406.044015</ele>
        <time>2021-11-17T22:35:53.247Z</time>
      </trkpt>
      <trkpt lat="47.463081" lon="7.858188">
        <ele>406.147775</ele>
        <time>2021-11-17T22:35:55.545Z</time>
      </trkpt>
      <trkpt lat="47.462979" lon="7.858360">
        <ele>406.284537</ele>
        <time>2021-11-17T22:35:58.285Z</time>
      </trkpt>
      <trkpt lat="47.462764" lon="7.858828">
        <ele>406.622761</ele>
        <time>2021-11-17T22:36:05.433Z</time>
      </trkpt>
      <trkpt lat="47.462720" lon="7.858959">
        <ele>406.710199</ele>
        <time>2021-11-17T22:36:07.408Z</time>
      </trkpt>
      <trkpt lat="47.462691" lon="7.859060">
        <ele>406.775791</ele>
        <time>2021-11-17T22:36:08.886Z</time>
      </trkpt>
      <trkpt lat="47.462623" lon="7.859309">
        <ele>406.936317</ele>
        <time>2021-11-17T22:36:12.422Z</time>
      </trkpt>
      <trkpt lat="47.462535" lon="7.859721">
        <ele>407.393082</ele>
        <time>2021-11-17T22:36:18.201Z</time>
      </trkpt>
      <trkpt lat="47.462471" lon="7.860097">
        <ele>407.889256</ele>
        <time>2021-11-17T22:36:23.867Z</time>
      </trkpt>
      <trkpt lat="47.462442" lon="7.860255">
        <ele>408.098763</ele>
        <time>2021-11-17T22:36:26.117Z</time>
      </trkpt>
      <trkpt lat="47.462327" lon="7.860669">
        <ele>408.671525</ele>
        <time>2021-11-17T22:36:32.861Z</time>
      </trkpt>
      <trkpt lat="47.462285" lon="7.860769">
        <ele>408.822176</ele>
        <time>2021-11-17T22:36:34.759Z</time>
      </trkpt>
      <trkpt lat="47.462231" lon="7.860873">
        <ele>408.989984</ele>
        <time>2021-11-17T22:36:37.119Z</time>
      </trkpt>
      <trkpt lat="47.461855" lon="7.861499">
        <ele>410.061548</ele>
        <time>2021-11-17T22:36:50.214Z</time>
      </trkpt>
      <trkpt lat="47.461541" lon="7.862217">
        <ele>411.129285</ele>
        <time>2021-11-17T22:37:03.887Z</time>
      </trkpt>
      <trkpt lat="47.461527" lon="7.862242">
        <ele>411.169317</ele>
        <time>2021-11-17T22:37:04.350Z</time>
      </trkpt>
      <trkpt lat="47.461353" lon="7.862539">
        <ele>411.653958</ele>
        <time>2021-11-17T22:37:10.693Z</time>
      </trkpt>
      <trkpt lat="47.461098" lon="7.862848">
        <ele>412.255248</ele>
        <time>2021-11-17T22:37:18.204Z</time>
      </trkpt>
      <trkpt lat="47.460786" lon="7.863164">
        <ele>412.944981</ele>
        <time>2021-11-17T22:37:26.593Z</time>
      </trkpt>
      <trkpt lat="47.460527" lon="7.863440">
        <ele>413.527246</ele>
        <time>2021-11-17T22:37:33.355Z</time>
      </trkpt>
      <trkpt lat="47.460398" lon="7.863603">
        <ele>413.793251</ele>
        <time>2021-11-17T22:37:36.769Z</time>
      </trkpt>
      <trkpt lat="47.460271" lon="7.863810">
        <ele>414.023462</ele>
        <time>2021-11-17T22:37:40.298Z</time>
      </trkpt>
      <trkpt lat="47.460115" lon="7.864146">
        <ele>414.359152</ele>
        <time>2021-11-17T22:37:45.061Z</time>
      </trkpt>
      <trkpt lat="47.460001" lon="7.864512">
        <ele>414.691035</ele>
        <time>2021-11-17T22:37:49.848Z</time>
      </trkpt>
      <trkpt lat="47.459616" lon="7.865526">
        <ele>415.648832</ele>
        <time>2021-11-17T22:38:06.081Z</time>
      </trkpt>
      <trkpt lat="47.459563" lon="7.865651">
        <ele>415.770350</ele>
        <time>2021-11-17T22:38:07.949Z</time>
      </trkpt>
      <trkpt lat="47.459497" lon="7.865844">
        <ele>415.962057</ele>
        <time>2021-11-17T22:38:10.888Z</time>
      </trkpt>
      <trkpt lat="47.459383" lon="7.866214">
        <ele>416.385009</ele>
        <time>2021-11-17T22:38:16.491Z</time>
      </trkpt>
      <trkpt lat="47.459231" lon="7.866811">
        <ele>417.048581</ele>
        <time>2021-11-17T22:38:25.177Z</time>
      </trkpt>
      <trkpt lat="47.459152" lon="7.867074">
        <ele>417.347939</ele>
        <time>2021-11-17T22:38:29.230Z</time>
      </trkpt>
      <trkpt lat="47.459058" lon="7.867339">
        <ele>417.659226</ele>
        <time>2021-11-17T22:38:33.305Z</time>
      </trkpt>
      <trkpt lat="47.458844" lon="7.867795">
        <ele>418.236628</ele>
        <time>2021-11-17T22:38:41.255Z</time>
      </trkpt>
      <trkpt lat="47.458680" lon="7.868173">
        <ele>418.713749</ele>
        <time>2021-11-17T22:38:48.510Z</time>
      </trkpt>
      <trkpt lat="47.458252" lon="7.869378">
        <ele>420.483304</ele>
        <time>2021-11-17T22:39:08.902Z</time>
      </trkpt>
      <trkpt lat="47.458055" lon="7.870048">
        <ele>421.433135</ele>
        <time>2021-11-17T22:39:19.670Z</time>
      </trkpt>
      <trkpt lat="47.457897" lon="7.870571">
        <ele>422.213164</ele>
        <time>2021-11-17T22:39:28.446Z</time>
      </trkpt>
      <trkpt lat="47.457834" lon="7.870782">
        <ele>422.704273</ele>
        <time>2021-11-17T22:39:32.425Z</time>
      </trkpt>
      <trkpt lat="47.457598" lon="7.871461">
        <ele>424.329816</ele>
        <time>2021-11-17T22:39:44.563Z</time>
      </trkpt>
      <trkpt lat="47.457107" lon="7.872555">
        <ele>427.125612</ele>
        <time>2021-11-17T22:40:11.488Z</time>
      </trkpt>
      <trkpt lat="47.456956" lon="7.873025">
        <ele>428.153830</ele>
        <time>2021-11-17T22:40:22.411Z</time>
      </trkpt>
      <trkpt lat="47.456839" lon="7.873690">
        <ele>429.355977</ele>
        <time>2021-11-17T22:40:35.392Z</time>
      </trkpt>
      <trkpt lat="47.456816" lon="7.873911">
        <ele>429.747166</ele>
        <time>2021-11-17T22:40:39.808Z</time>
      </trkpt>
      <trkpt lat="47.456788" lon="7.874217">
        <ele>430.287388</ele>
        <time>2021-11-17T22:40:45.040Z</time>
      </trkpt>
      <trkpt lat="47.456714" lon="7.874531">
        <ele>430.869139</ele>
        <time>2021-11-17T22:40:50.602Z</time>
      </trkpt>
      <trkpt lat="47.456658" lon="7.874665">
        <ele>431.144735</ele>
        <time>2021-11-17T22:40:52.455Z</time>
      </trkpt>
      <trkpt lat="47.456403" lon="7.875046">
        <ele>432.082620</ele>
        <time>2021-11-17T22:41:00.311Z</time>
      </trkpt>
      <trkpt lat="47.455780" lon="7.875652">
        <ele>432.714760</ele>
        <time>2021-11-17T22:41:15.805Z</time>
      </trkpt>
      <trkpt lat="47.455446" lon="7.875966">
        <ele>432.893555</ele>
        <time>2021-11-17T22:41:21.496Z</time>
      </trkpt>
      <trkpt lat="47.455123" lon="7.876253">
        <ele>433.063785</ele>
        <time>2021-11-17T22:41:26.471Z</time>
      </trkpt>
      <trkpt lat="47.454502" lon="7.876895">
        <ele>433.462785</ele>
        <time>2021-11-17T22:41:37.580Z</time>
      </trkpt>
      <trkpt lat="47.454362" lon="7.877045">
        <ele>433.569800</ele>
        <time>2021-11-17T22:41:40.508Z</time>
      </trkpt>
      <trkpt lat="47.453945" lon="7.877554">
        <ele>433.904497</ele>
        <time>2021-11-17T22:41:50.648Z</time>
      </trkpt>
      <trkpt lat="47.453517" lon="7.878069">
        <ele>434.246053</ele>
        <time>2021-11-17T22:42:00.783Z</time>
      </trkpt>
      <trkpt lat="47.453302" lon="7.878355">
        <ele>434.436048</ele>
        <time>2021-11-17T22:42:06.115Z</time>
      </trkpt>
      <trkpt lat="47.453057" lon="7.878652">
        <ele>434.668824</ele>
        <time>2021-11-17T22:42:11.715Z</time>
      </trkpt>
      <trkpt lat="47.452813" lon="7.878981">
        <ele>434.911448</ele>
        <time>2021-11-17T22:42:17.397Z</time>
      </trkpt>
      <trkpt lat="47.452655" lon="7.879223">
        <ele>435.078590</ele>
        <time>2021-11-17T22:42:21.256Z</time>
      </trkpt>
      <trkpt lat="47.452247" lon="7.879980">
        <ele>435.559578</ele>
        <time>2021-11-17T22:42:32.810Z</time>
      </trkpt>
      <trkpt lat="47.451953" lon="7.880518">
        <ele>436.013072</ele>
        <time>2021-11-17T22:42:41.151Z</time>
      </trkpt>
      <trkpt lat="47.451581" lon="7.881111">
        <ele>436.619913</ele>
        <time>2021-11-17T22:42:51.716Z</time>
      </trkpt>
      <trkpt lat="47.451351" lon="7.881477">
        <ele>436.994759</ele>
        <time>2021-11-17T22:42:58.267Z</time>
      </trkpt>
      <trkpt lat="47.451309" lon="7.881545">
        <ele>437.063852</ele>
        <time>2021-11-17T22:42:59.513Z</time>
      </trkpt>
      <trkpt lat="47.451241" lon="7.881654">
        <ele>437.175112</ele>
        <time>2021-11-17T22:43:01.471Z</time>
      </trkpt>
      <trkpt lat="47.451051" lon="7.881948">
        <ele>437.480211</ele>
        <time>2021-11-17T22:43:07.055Z</time>
      </trkpt>
      <trkpt lat="47.450772" lon="7.882435">
        <ele>438.000210</ele>
        <time>2021-11-17T22:43:15.835Z</time>
      </trkpt>
      <trkpt lat="47.450733" lon="7.882508">
        <ele>438.080425</ele>
        <time>2021-11-17T22:43:17.100Z</time>
      </trkpt>
      <trkpt lat="47.450650" lon="7.882664">
        <ele>438.251574</ele>
        <time>2021-11-17T22:43:19.822Z</time>
      </trkpt>
      <trkpt lat="47.450548" lon="7.882846">
        <ele>438.455387</ele>
        <time>2021-11-17T22:43:23.050Z</time>
      </trkpt>
      <trkpt lat="47.450472" lon="7.882973">
        <ele>438.601610</ele>
        <time>2021-11-17T22:43:25.276Z</time>
      </trkpt>
      <trkpt lat="47.450274" lon="7.883264">
        <ele>438.957547</ele>
        <time>2021-11-17T22:43:30.881Z</time>
      </trkpt>
      <trkpt lat="47.449712" lon="7.884119">
        <ele>439.986106</ele>
        <time>2021-11-17T22:43:46.602Z</time>
      </trkpt>
      <trkpt lat="47.449068" lon="7.885121">
        <ele>441.241648</ele>
        <time>2021-11-17T22:44:04.928Z</time>
      </trkpt>
      <trkpt lat="47.449022" lon="7.885187">
        <ele>441.327732</ele>
        <time>2021-11-17T22:44:06.260Z</time>
      </trkpt>
      <trkpt lat="47.448867" lon="7.885429">
        <ele>441.630472</ele>
        <time>2021-11-17T22:44:10.861Z</time>
      </trkpt>
      <trkpt lat="47.448856" lon="7.885449">
        <ele>441.653887</ele>
        <time>2021-11-17T22:44:11.281Z</time>
      </trkpt>
      <trkpt lat="47.448801" lon="7.885554">
        <ele>441.774518</ele>
        <time>2021-11-17T22:44:13.147Z</time>
      </trkpt>
      <trkpt lat="47.448759" lon="7.885611">
        <ele>441.851084</ele>
        <time>2021-11-17T22:44:14.100Z</time>
      </trkpt>
      <trkpt lat="47.448727" lon="7.885648">
        <ele>441.905642</ele>
        <time>2021-11-17T22:44:14.865Z</time>
      </trkpt>
      <trkpt lat="47.448623" lon="7.885730">
        <ele>442.063940</ele>
        <time>2021-11-17T22:44:17.377Z</time>
      </trkpt>
      <trkpt lat="47.448497" lon="7.885784">
        <ele>442.240135</ele>
        <time>2021-11-17T22:44:20.407Z</time>
      </trkpt>
      <trkpt lat="47.448256" lon="7.885830">
        <ele>442.618557</ele>
        <time>2021-11-17T22:44:25.570Z</time>
      </trkpt>
      <trkpt lat="47.447948" lon="7.885889">
        <ele>443.160509</ele>
        <time>2021-11-17T22:44:31.988Z</time>
      </trkpt>
      <trkpt lat="47.447927" lon="7.885893">
        <ele>443.197456</ele>
        <time>2021-11-17T22:44:32.760Z</time>
      </trkpt>
      <trkpt lat="47.447843" lon="7.885915">
        <ele>443.346318</ele>
        <time>2021-11-17T22:44:34.925Z</time>
      </trkpt>
      <trkpt lat="47.447578" lon="7.886047">
        <ele>443.834275</ele>
        <time>2021-11-17T22:44:40.578Z</time>
      </trkpt>
      <trkpt lat="47.447447" lon="7.886184">
        <ele>444.114263</ele>
        <time>2021-11-17T22:44:44.118Z</time>
      </trkpt>
      <trkpt lat="47.447271" lon="7.886367">
        <ele>444.489709</ele>
        <time>2021-11-17T22:44:48.900Z</time>
      </trkpt>
      <trkpt lat="47.446926" lon="7.886788">
        <ele>445.270263</ele>
        <time>2021-11-17T22:44:58.944Z</time>
      </trkpt>
      <trkpt lat="47.446791" lon="7.886928">
        <ele>445.559625</ele>
        <time>2021-11-17T22:45:02.421Z</time>
      </trkpt>
      <trkpt lat="47.446303" lon="7.887408">
        <ele>446.644453</ele>
        <time>2021-11-17T22:45:15.592Z</time>
      </trkpt>
      <trkpt lat="47.446228" lon="7.887482">
        <ele>446.811338</ele>
        <time>2021-11-17T22:45:17.599Z</time>
      </trkpt>
      <trkpt lat="47.446159" lon="7.887548">
        <ele>446.963443</ele>
        <time>2021-11-17T22:45:19.412Z</time>
      </trkpt>
      <trkpt lat="47.445865" lon="7.887829">
        <ele>447.611395</ele>
        <time>2021-11-17T22:45:27.192Z</time>
      </trkpt>
      <trkpt lat="47.445713" lon="7.887975">
        <ele>447.946881</ele>
        <time>2021-11-17T22:45:31.092Z</time>
      </trkpt>
      <trkpt lat="47.445254" lon="7.888414">
        <ele>449.001583</ele>
        <time>2021-11-17T22:45:42.930Z</time>
      </trkpt>
      <trkpt lat="47.445147" lon="7.888511">
        <ele>449.335219</ele>
        <time>2021-11-17T22:45:45.646Z</time>
      </trkpt>
      <trkpt lat="47.444943" lon="7.888709">
        <ele>449.983898</ele>
        <time>2021-11-17T22:45:51.724Z</time>
      </trkpt>
      <trkpt lat="47.444488" lon="7.889150">
        <ele>451.430100</ele>
        <time>2021-11-17T22:46:04.371Z</time>
      </trkpt>
      <trkpt lat="47.444393" lon="7.889238">
        <ele>451.728100</ele>
        <time>2021-11-17T22:46:07.518Z</time>
      </trkpt>
      <trkpt lat="47.444034" lon="7.889556">
        <ele>452.840562</ele>
        <time>2021-11-17T22:46:18.101Z</time>
      </trkpt>
      <trkpt lat="47.443891" lon="7.889667">
        <ele>453.269893</ele>
        <time>2021-11-17T22:46:22.457Z</time>
      </trkpt>
      <trkpt lat="47.443758" lon="7.889758">
        <ele>453.686779</ele>
        <time>2021-11-17T22:46:26.940Z</time>
      </trkpt>
      <trkpt lat="47.443195" lon="7.890087">
        <ele>457.760169</ele>
        <time>2021-11-17T22:46:46.117Z</time>
      </trkpt>
      <trkpt lat="47.442695" lon="7.890269">
        <ele>461.224971</ele>
        <time>2021-11-17T22:47:07.553Z</time>
      </trkpt>
      <trkpt lat="47.441565" lon="7.890682">
        <ele>471.044194</ele>
        <time>2021-11-17T22:48:08.031Z</time>
      </trkpt>
      <trkpt lat="47.441263" lon="7.890792">
        <ele>474.392123</ele>
        <time>2021-11-17T22:48:26.558Z</time>
      </trkpt>
      <trkpt lat="47.440728" lon="7.890993">
        <ele>480.333897</ele>
        <time>2021-11-17T22:48:59.355Z</time>
      </trkpt>
      <trkpt lat="47.440254" lon="7.891376">
        <ele>486.191831</ele>
        <time>2021-11-17T22:49:33.150Z</time>
      </trkpt>
      <trkpt lat="47.439256" lon="7.892823">
        <ele>501.865967</ele>
        <time>2021-11-17T22:51:00.740Z</time>
      </trkpt>
      <trkpt lat="47.439228" lon="7.892871">
        <ele>502.346711</ele>
        <time>2021-11-17T22:51:03.629Z</time>
      </trkpt>
      <trkpt lat="47.439042" lon="7.893234">
        <ele>505.514472</ele>
        <time>2021-11-17T22:51:19.293Z</time>
      </trkpt>
      <trkpt lat="47.438836" lon="7.893774">
        <ele>507.662677</ele>
        <time>2021-11-17T22:51:39.786Z</time>
      </trkpt>
      <trkpt lat="47.438723" lon="7.894209">
        <ele>509.277312</ele>
        <time>2021-11-17T22:51:53.256Z</time>
      </trkpt>
      <trkpt lat="47.438683" lon="7.894397">
        <ele>509.960210</ele>
        <time>2021-11-17T22:51:58.450Z</time>
      </trkpt>
      <trkpt lat="47.438392" lon="7.895853">
        <ele>514.032975</ele>
        <time>2021-11-17T22:52:25.810Z</time>
      </trkpt>
      <trkpt lat="47.438129" lon="7.896764">
        <ele>511.901842</ele>
        <time>2021-11-17T22:52:32.795Z</time>
      </trkpt>
      <trkpt lat="47.438061" lon="7.896935">
        <ele>511.475052</ele>
        <time>2021-11-17T22:52:34.125Z</time>
      </trkpt>
      <trkpt lat="47.438020" lon="7.897061">
        <ele>511.174216</ele>
        <time>2021-11-17T22:52:34.952Z</time>
      </trkpt>
      <trkpt lat="47.437727" lon="7.897775">
        <ele>509.377378</ele>
        <time>2021-11-17T22:52:40.387Z</time>
      </trkpt>
      <trkpt lat="47.437513" lon="7.898238">
        <ele>507.757016</ele>
        <time>2021-11-17T22:52:43.897Z</time>
      </trkpt>
      <trkpt lat="47.437451" lon="7.898374">
        <ele>507.159065</ele>
        <time>2021-11-17T22:52:44.850Z</time>
      </trkpt>
      <trkpt lat="47.436614" lon="7.900163">
        <ele>499.228204</ele>
        <time>2021-11-17T22:52:58.327Z</time>
      </trkpt>
      <trkpt lat="47.436392" lon="7.900644">
        <ele>499.525865</ele>
        <time>2021-11-17T22:53:02.892Z</time>
      </trkpt>
      <trkpt lat="47.436162" lon="7.901123">
        <ele>500.020617</ele>
        <time>2021-11-17T22:53:08.991Z</time>
      </trkpt>
      <trkpt lat="47.435966" lon="7.901542">
        <ele>500.449690</ele>
        <time>2021-11-17T22:53:16.474Z</time>
      </trkpt>
      <trkpt lat="47.435289" lon="7.902539">
        <ele>502.611597</ele>
        <time>2021-11-17T22:53:47.165Z</time>
      </trkpt>
      <trkpt lat="47.434454" lon="7.903404">
        <ele>507.639866</ele>
        <time>2021-11-17T22:54:27.386Z</time>
      </trkpt>
      <trkpt lat="47.433904" lon="7.903847">
        <ele>510.621451</ele>
        <time>2021-11-17T22:54:46.021Z</time>
      </trkpt>
      <trkpt lat="47.433528" lon="7.904076">
        <ele>512.233847</ele>
        <time>2021-11-17T22:54:57.312Z</time>
      </trkpt>
      <trkpt lat="47.433057" lon="7.904364">
        <ele>514.254800</ele>
        <time>2021-11-17T22:55:09.937Z</time>
      </trkpt>
      <trkpt lat="47.432000" lon="7.904989">
        <ele>519.544887</ele>
        <time>2021-11-17T22:55:49.489Z</time>
      </trkpt>
      <trkpt lat="47.431501" lon="7.905134">
        <ele>522.636645</ele>
        <time>2021-11-17T22:56:08.524Z</time>
      </trkpt>
      <trkpt lat="47.431347" lon="7.905140">
        <ele>523.573223</ele>
        <time>2021-11-17T22:56:16.563Z</time>
      </trkpt>
      <trkpt lat="47.430772" lon="7.905115">
        <ele>527.070484</ele>
        <time>2021-11-17T22:56:40.022Z</time>
      </trkpt>
      <trkpt lat="47.429366" lon="7.905049">
        <ele>533.971119</ele>
        <time>2021-11-17T22:57:35.888Z</time>
      </trkpt>
      <trkpt lat="47.427817" lon="7.905261">
        <ele>537.248568</ele>
        <time>2021-11-17T22:58:09.864Z</time>
      </trkpt>
      <trkpt lat="47.426850" lon="7.905086">
        <ele>537.317803</ele>
        <time>2021-11-17T22:58:21.826Z</time>
      </trkpt>
      <trkpt lat="47.426720" lon="7.905004">
        <ele>536.958339</ele>
        <time>2021-11-17T22:58:23.506Z</time>
      </trkpt>
      <trkpt lat="47.426613" lon="7.904841">
        <ele>536.567562</ele>
        <time>2021-11-17T22:58:25.935Z</time>
      </trkpt>
      <trkpt lat="47.426552" lon="7.904727">
        <ele>536.317481</ele>
        <time>2021-11-17T22:58:26.852Z</time>
      </trkpt>
      <trkpt lat="47.426425" lon="7.904463">
        <ele>535.760120</ele>
        <time>2021-11-17T22:58:29.339Z</time>
      </trkpt>
      <trkpt lat="47.426367" lon="7.904349">
        <ele>535.514698</ele>
        <time>2021-11-17T22:58:30.359Z</time>
      </trkpt>
      <trkpt lat="47.426138" lon="7.904113">
        <ele>534.804718</ele>
        <time>2021-11-17T22:58:33.268Z</time>
      </trkpt>
      <trkpt lat="47.425619" lon="7.903851">
        <ele>533.409926</ele>
        <time>2021-11-17T22:58:38.647Z</time>
      </trkpt>
      <trkpt lat="47.425434" lon="7.903707">
        <ele>532.800318</ele>
        <time>2021-11-17T22:58:40.970Z</time>
      </trkpt>
      <trkpt lat="47.425311" lon="7.903615">
        <ele>532.333830</ele>
        <time>2021-11-17T22:58:42.205Z</time>
      </trkpt>
      <trkpt lat="47.423589" lon="7.902766">
        <ele>526.731057</ele>
        <time>2021-11-17T22:59:00.491Z</time>
      </trkpt>
      <trkpt lat="47.423452" lon="7.902645">
        <ele>526.539826</ele>
        <time>2021-11-17T22:59:02.107Z</time>
      </trkpt>
      <trkpt lat="47.423374" lon="7.902581">
        <ele>526.432930</ele>
        <time>2021-11-17T22:59:03.089Z</time>
      </trkpt>
      <trkpt lat="47.423315" lon="7.902540">
        <ele>526.354811</ele>
        <time>2021-11-17T22:59:03.930Z</time>
      </trkpt>
      <trkpt lat="47.423238" lon="7.902495">
        <ele>526.255598</ele>
        <time>2021-11-17T22:59:04.858Z</time>
      </trkpt>
      <trkpt lat="47.423044" lon="7.902393">
        <ele>526.008874</ele>
        <time>2021-11-17T22:59:07.087Z</time>
      </trkpt>
      <trkpt lat="47.422906" lon="7.902320">
        <ele>525.833248</ele>
        <time>2021-11-17T22:59:09.023Z</time>
      </trkpt>
      <trkpt lat="47.421602" lon="7.901655">
        <ele>525.211739</ele>
        <time>2021-11-17T22:59:30.394Z</time>
      </trkpt>
      <trkpt lat="47.421521" lon="7.901542">
        <ele>525.277311</ele>
        <time>2021-11-17T22:59:32.572Z</time>
      </trkpt>
      <trkpt lat="47.421502" lon="7.901465">
        <ele>525.309957</ele>
        <time>2021-11-17T22:59:35.303Z</time>
      </trkpt>
      <trkpt lat="47.421410" lon="7.901506">
        <ele>525.366525</ele>
        <time>2021-11-17T22:59:36.403Z</time>
      </trkpt>
      <trkpt lat="47.421321" lon="7.901553">
        <ele>525.422164</ele>
        <time>2021-11-17T22:59:37.462Z</time>
      </trkpt>
      <trkpt lat="47.421222" lon="7.901610">
        <ele>525.484711</ele>
        <time>2021-11-17T22:59:39.127Z</time>
      </trkpt>
      <trkpt lat="47.421180" lon="7.901635">
        <ele>525.511366</ele>
        <time>2021-11-17T22:59:41.587Z</time>
      </trkpt>
      <trkpt lat="47.420695" lon="7.901920">
        <ele>525.818624</ele>
        <time>2021-11-17T22:59:49.047Z</time>
      </trkpt>
      <trkpt lat="47.420637" lon="7.901954">
        <ele>525.855356</ele>
        <time>2021-11-17T22:59:49.748Z</time>
      </trkpt>
      <trkpt lat="47.420085" lon="7.902235">
        <ele>526.708809</ele>
        <time>2021-11-17T23:00:02.122Z</time>
      </trkpt>
      <trkpt lat="47.419578" lon="7.902441">
        <ele>527.606604</ele>
        <time>2021-11-17T23:00:11.462Z</time>
      </trkpt>
      <trkpt lat="47.419204" lon="7.902583">
        <ele>528.265927</ele>
        <time>2021-11-17T23:00:20.125Z</time>
      </trkpt>
      <trkpt lat="47.419043" lon="7.902685">
        <ele>528.565019</ele>
        <time>2021-11-17T23:00:25.177Z</time>
      </trkpt>
      <trkpt lat="47.418932" lon="7.902787">
        <ele>528.788194</ele>
        <time>2021-11-17T23:00:28.255Z</time>
      </trkpt>
      <trkpt lat="47.418668" lon="7.903098">
        <ele>529.937445</ele>
        <time>2021-11-17T23:00:37.758Z</time>
      </trkpt>
      <trkpt lat="47.418532" lon="7.903258">
        <ele>530.702945</ele>
        <time>2021-11-17T23:00:42.504Z</time>
      </trkpt>
      <trkpt lat="47.418268" lon="7.903613">
        <ele>532.274750</ele>
        <time>2021-11-17T23:00:53.038Z</time>
      </trkpt>
      <trkpt lat="47.418232" lon="7.903669">
        <ele>532.504919</ele>
        <time>2021-11-17T23:00:55.023Z</time>
      </trkpt>
      <trkpt lat="47.418168" lon="7.903812">
        <ele>533.015800</ele>
        <time>2021-11-17T23:00:58.845Z</time>
      </trkpt>
      <trkpt lat="47.417991" lon="7.904019">
        <ele>534.009791</ele>
        <time>2021-11-17T23:01:06.387Z</time>
      </trkpt>
      <trkpt lat="47.417618" lon="7.904179">
        <ele>535.720178</ele>
        <time>2021-11-17T23:01:20.336Z</time>
      </trkpt>
      <trkpt lat="47.417531" lon="7.904238">
        <ele>536.141716</ele>
        <time>2021-11-17T23:01:24.019Z</time>
      </trkpt>
      <trkpt lat="47.417427" lon="7.904326">
        <ele>536.669460</ele>
        <time>2021-11-17T23:01:27.774Z</time>
      </trkpt>
      <trkpt lat="47.417265" lon="7.904453">
        <ele>537.814728</ele>
        <time>2021-11-17T23:01:35.335Z</time>
      </trkpt>
      <trkpt lat="47.416980" lon="7.904605">
        <ele>539.961846</ele>
        <time>2021-11-17T23:01:46.381Z</time>
      </trkpt>
      <trkpt lat="47.416822" lon="7.904701">
        <ele>541.172435</ele>
        <time>2021-11-17T23:01:53.343Z</time>
      </trkpt>
      <trkpt lat="47.416754" lon="7.904710">
        <ele>541.656239</ele>
        <time>2021-11-17T23:01:55.733Z</time>
      </trkpt>
      <trkpt lat="47.416543" lon="7.904651">
        <ele>543.178001</ele>
        <time>2021-11-17T23:02:04.686Z</time>
      </trkpt>
      <trkpt lat="47.416158" lon="7.904395">
        <ele>546.169712</ele>
        <time>2021-11-17T23:02:22.605Z</time>
      </trkpt>
      <trkpt lat="47.415794" lon="7.903917">
        <ele>549.620401</ele>
        <time>2021-11-17T23:02:48.519Z</time>
      </trkpt>
      <trkpt lat="47.415429" lon="7.903578">
        <ele>552.349193</ele>
        <time>2021-11-17T23:03:10.763Z</time>
      </trkpt>
      <trkpt lat="47.414946" lon="7.903337">
        <ele>555.569897</ele>
        <time>2021-11-17T23:03:32.936Z</time>
      </trkpt>
      <trkpt lat="47.414457" lon="7.903126">
        <ele>558.788265</ele>
        <time>2021-11-17T23:03:51.646Z</time>
      </trkpt>
      <trkpt lat="47.414360" lon="7.903055">
        <ele>559.472138</ele>
        <time>2021-11-17T23:03:54.343Z</time>
      </trkpt>
      <trkpt lat="47.413979" lon="7.902876">
        <ele>561.318394</ele>
        <time>2021-11-17T23:04:05.982Z</time>
      </trkpt>
      <trkpt lat="47.413779" lon="7.902818">
        <ele>561.700247</ele>
        <time>2021-11-17T23:04:11.901Z</time>
      </trkpt>
      <trkpt lat="47.413454" lon="7.902818">
        <ele>562.309144</ele>
        <time>2021-11-17T23:04:19.751Z</time>
      </trkpt>
      <trkpt lat="47.413324" lon="7.902797">
        <ele>562.554153</ele>
        <time>2021-11-17T23:04:22.814Z</time>
      </trkpt>
      <trkpt lat="47.413185" lon="7.902732">
        <ele>562.827302</ele>
        <time>2021-11-17T23:04:25.788Z</time>
      </trkpt>
      <trkpt lat="47.412722" lon="7.902491">
        <ele>563.746986</ele>
        <time>2021-11-17T23:04:33.512Z</time>
      </trkpt>
      <trkpt lat="47.412218" lon="7.902425">
        <ele>564.827937</ele>
        <time>2021-11-17T23:04:41.931Z</time>
      </trkpt>
      <trkpt lat="47.412053" lon="7.902324">
        <ele>565.314313</ele>
        <time>2021-11-17T23:04:45.942Z</time>
      </trkpt>
      <trkpt lat="47.411995" lon="7.902289">
        <ele>565.484929</ele>
        <time>2021-11-17T23:04:47.763Z</time>
      </trkpt>
      <trkpt lat="47.411203" lon="7.901793">
        <ele>567.827514</ele>
        <time>2021-11-17T23:05:11.052Z</time>
      </trkpt>
      <trkpt lat="47.410416" lon="7.901443">
        <ele>570.274925</ele>
        <time>2021-11-17T23:05:35.619Z</time>
      </trkpt>
      <trkpt lat="47.410305" lon="7.901395">
        <ele>570.675943</ele>
        <time>2021-11-17T23:05:39.092Z</time>
      </trkpt>
      <trkpt lat="47.410000" lon="7.901340">
        <ele>571.741328</ele>
        <time>2021-11-17T23:05:47.283Z</time>
      </trkpt>
      <trkpt lat="47.408980" lon="7.901427">
        <ele>575.283905</ele>
        <time>2021-11-17T23:06:15.861Z</time>
      </trkpt>
      <trkpt lat="47.408633" lon="7.901528">
        <ele>576.923528</ele>
        <time>2021-11-17T23:06:26.865Z</time>
      </trkpt>
      <trkpt lat="47.408249" lon="7.901503">
        <ele>578.822066</ele>
        <time>2021-11-17T23:06:38.959Z</time>
      </trkpt>
      <trkpt lat="47.407950" lon="7.901419">
        <ele>580.325378</ele>
        <time>2021-11-17T23:06:48.931Z</time>
      </trkpt>
      <trkpt lat="47.407700" lon="7.901346">
        <ele>581.584088</ele>
        <time>2021-11-17T23:06:57.494Z</time>
      </trkpt>
      <trkpt lat="47.407183" lon="7.901226">
        <ele>584.169030</ele>
        <time>2021-11-17T23:07:15.978Z</time>
      </trkpt>
      <trkpt lat="47.406056" lon="7.900591">
        <ele>593.557967</ele>
        <time>2021-11-17T23:08:13.081Z</time>
      </trkpt>
      <trkpt lat="47.405726" lon="7.900247">
        <ele>596.752350</ele>
        <time>2021-11-17T23:08:32.652Z</time>
      </trkpt>
      <trkpt lat="47.405648" lon="7.900181">
        <ele>597.463303</ele>
        <time>2021-11-17T23:08:37.528Z</time>
      </trkpt>
      <trkpt lat="47.405377" lon="7.900042">
        <ele>599.705428</ele>
        <time>2021-11-17T23:08:51.092Z</time>
      </trkpt>
      <trkpt lat="47.404927" lon="7.899940">
        <ele>603.217264</ele>
        <time>2021-11-17T23:09:13.576Z</time>
      </trkpt>
      <trkpt lat="47.404734" lon="7.899896">
        <ele>604.723653</ele>
        <time>2021-11-17T23:09:22.671Z</time>
      </trkpt>
      <trkpt lat="47.404616" lon="7.899819">
        <ele>605.718707</ele>
        <time>2021-11-17T23:09:29.212Z</time>
      </trkpt>
      <trkpt lat="47.404452" lon="7.899711">
        <ele>607.103745</ele>
        <time>2021-11-17T23:09:37.404Z</time>
      </trkpt>
      <trkpt lat="47.403746" lon="7.898667">
        <ele>614.536252</ele>
        <time>2021-11-17T23:10:19.754Z</time>
      </trkpt>
      <trkpt lat="47.403389" lon="7.898027">
        <ele>618.350257</ele>
        <time>2021-11-17T23:10:41.088Z</time>
      </trkpt>
      <trkpt lat="47.403337" lon="7.897962">
        <ele>618.813066</ele>
        <time>2021-11-17T23:10:44.628Z</time>
      </trkpt>
      <trkpt lat="47.403251" lon="7.897904">
        <ele>619.455404</ele>
        <time>2021-11-17T23:10:48.500Z</time>
      </trkpt>
      <trkpt lat="47.402533" lon="7.897738">
        <ele>624.393326</ele>
        <time>2021-11-17T23:11:18.290Z</time>
      </trkpt>
      <trkpt lat="47.402452" lon="7.897680">
        <ele>625.063622</ele>
        <time>2021-11-17T23:11:21.535Z</time>
      </trkpt>
      <trkpt lat="47.401903" lon="7.897350">
        <ele>629.992333</ele>
        <time>2021-11-17T23:11:52.570Z</time>
      </trkpt>
      <trkpt lat="47.400945" lon="7.896926">
        <ele>638.308581</ele>
        <time>2021-11-17T23:12:39.728Z</time>
      </trkpt>
      <trkpt lat="47.400890" lon="7.896903">
        <ele>638.783915</ele>
        <time>2021-11-17T23:12:44.519Z</time>
      </trkpt>
      <trkpt lat="47.400751" lon="7.896863">
        <ele>639.942555</ele>
        <time>2021-11-17T23:12:50.841Z</time>
      </trkpt>
      <trkpt lat="47.399796" lon="7.896698">
        <ele>647.358845</ele>
        <time>2021-11-17T23:13:38.168Z</time>
      </trkpt>
      <trkpt lat="47.399633" lon="7.896675">
        <ele>648.621815</ele>
        <time>2021-11-17T23:13:44.460Z</time>
      </trkpt>
      <trkpt lat="47.399538" lon="7.896644">
        <ele>649.372229</ele>
        <time>2021-11-17T23:13:49.201Z</time>
      </trkpt>
      <trkpt lat="47.399246" lon="7.896363">
        <ele>652.060156</ele>
        <time>2021-11-17T23:14:05.260Z</time>
      </trkpt>
      <trkpt lat="47.398784" lon="7.895173">
        <ele>657.107141</ele>
        <time>2021-11-17T23:14:39.287Z</time>
      </trkpt>
      <trkpt lat="47.397727" lon="7.893516">
        <ele>663.558347</ele>
        <time>2021-11-17T23:15:27.988Z</time>
      </trkpt>
      <trkpt lat="47.397426" lon="7.893177">
        <ele>664.599564</ele>
        <time>2021-11-17T23:15:37.422Z</time>
      </trkpt>
      <trkpt lat="47.396808" lon="7.892644">
        <ele>666.568163</ele>
        <time>2021-11-17T23:15:54.294Z</time>
      </trkpt>
      <trkpt lat="47.396399" lon="7.892118">
        <ele>667.709432</ele>
        <time>2021-11-17T23:16:06.120Z</time>
      </trkpt>
      <trkpt lat="47.395697" lon="7.890534">
        <ele>669.798717</ele>
        <time>2021-11-17T23:16:33.070Z</time>
      </trkpt>
      <trkpt lat="47.394937" lon="7.889307">
        <ele>671.960270</ele>
        <time>2021-11-17T23:16:56.971Z</time>
      </trkpt>
      <trkpt lat="47.394848" lon="7.889167">
        <ele>672.218237</ele>
        <time>2021-11-17T23:16:59.801Z</time>
      </trkpt>
      <trkpt lat="47.394678" lon="7.888935">
        <ele>672.677462</ele>
        <time>2021-11-17T23:17:05.072Z</time>
      </trkpt>
      <trkpt lat="47.394482" lon="7.888702">
        <ele>673.176654</ele>
        <time>2021-11-17T23:17:11.077Z</time>
      </trkpt>
      <trkpt lat="47.394359" lon="7.888578">
        <ele>673.472128</ele>
        <time>2021-11-17T23:17:14.751Z</time>
      </trkpt>
      <trkpt lat="47.394146" lon="7.888371">
        <ele>674.462098</ele>
        <time>2021-11-17T23:17:20.842Z</time>
      </trkpt>
      <trkpt lat="47.393995" lon="7.888223">
        <ele>675.449155</ele>
        <time>2021-11-17T23:17:26.242Z</time>
      </trkpt>
      <trkpt lat="47.393916" lon="7.888143">
        <ele>675.970861</ele>
        <time>2021-11-17T23:17:28.435Z</time>
      </trkpt>
      <trkpt lat="47.393730" lon="7.887967">
        <ele>677.174011</ele>
        <time>2021-11-17T23:17:35.749Z</time>
      </trkpt>
      <trkpt lat="47.393623" lon="7.887857">
        <ele>677.884074</ele>
        <time>2021-11-17T23:17:38.897Z</time>
      </trkpt>
      <trkpt lat="47.393478" lon="7.887667">
        <ele>678.939825</ele>
        <time>2021-11-17T23:17:46.827Z</time>
      </trkpt>
      <trkpt lat="47.393429" lon="7.887604">
        <ele>679.293658</ele>
        <time>2021-11-17T23:17:49.167Z</time>
      </trkpt>
      <trkpt lat="47.393034" lon="7.887066">
        <ele>682.220168</ele>
        <time>2021-11-17T23:18:10.368Z</time>
      </trkpt>
      <trkpt lat="47.392970" lon="7.886964">
        <ele>682.732985</ele>
        <time>2021-11-17T23:18:14.713Z</time>
      </trkpt>
      <trkpt lat="47.392849" lon="7.886770">
        <ele>683.826459</ele>
        <time>2021-11-17T23:18:23.265Z</time>
      </trkpt>
      <trkpt lat="47.392831" lon="7.886731">
        <ele>684.101577</ele>
        <time>2021-11-17T23:18:24.908Z</time>
      </trkpt>
      <trkpt lat="47.392756" lon="7.886570">
        <ele>685.240689</ele>
        <time>2021-11-17T23:18:32.854Z</time>
      </trkpt>
      <trkpt lat="47.392679" lon="7.886220">
        <ele>687.385718</ele>
        <time>2021-11-17T23:18:46.015Z</time>
      </trkpt>
      <trkpt lat="47.392677" lon="7.886170">
        <ele>687.677656</ele>
        <time>2021-11-17T23:18:48.767Z</time>
      </trkpt>
      <trkpt lat="47.392666" lon="7.885811">
        <ele>689.772266</ele>
        <time>2021-11-17T23:19:02.428Z</time>
      </trkpt>
      <trkpt lat="47.392623" lon="7.885495">
        <ele>691.650945</ele>
        <time>2021-11-17T23:19:14.066Z</time>
      </trkpt>
      <trkpt lat="47.392609" lon="7.885409">
        <ele>692.166495</ele>
        <time>2021-11-17T23:19:17.535Z</time>
      </trkpt>
      <trkpt lat="47.392513" lon="7.884798">
        <ele>695.822436</ele>
        <time>2021-11-17T23:19:38.756Z</time>
      </trkpt>
      <trkpt lat="47.392466" lon="7.884585">
        <ele>697.128218</ele>
        <time>2021-11-17T23:19:46.459Z</time>
      </trkpt>
      <trkpt lat="47.392294" lon="7.884155">
        <ele>699.231386</ele>
        <time>2021-11-17T23:20:00.394Z</time>
      </trkpt>
      <trkpt lat="47.392254" lon="7.884010">
        <ele>699.445541</ele>
        <time>2021-11-17T23:20:03.913Z</time>
      </trkpt>
      <trkpt lat="47.392243" lon="7.883926">
        <ele>699.562561</ele>
        <time>2021-11-17T23:20:06.821Z</time>
      </trkpt>
      <trkpt lat="47.392257" lon="7.883748">
        <ele>699.807656</ele>
        <time>2021-11-17T23:20:11.170Z</time>
      </trkpt>
      <trkpt lat="47.392295" lon="7.883568">
        <ele>700.065542</ele>
        <time>2021-11-17T23:20:15.085Z</time>
      </trkpt>
      <trkpt lat="47.392327" lon="7.883402">
        <ele>700.301611</ele>
        <time>2021-11-17T23:20:18.719Z</time>
      </trkpt>
      <trkpt lat="47.392391" lon="7.882852">
        <ele>701.064898</ele>
        <time>2021-11-17T23:20:27.794Z</time>
      </trkpt>
      <trkpt lat="47.392399" lon="7.882631">
        <ele>701.367599</ele>
        <time>2021-11-17T23:20:30.953Z</time>
      </trkpt>
      <trkpt lat="47.392394" lon="7.882220">
        <ele>701.929828</ele>
        <time>2021-11-17T23:20:34.573Z</time>
      </trkpt>
      <trkpt lat="47.392492" lon="7.881363">
        <ele>701.585535</ele>
        <time>2021-11-17T23:20:40.753Z</time>
      </trkpt>
      <trkpt lat="47.392530" lon="7.881231">
        <ele>701.181398</ele>
        <time>2021-11-17T23:20:41.669Z</time>
      </trkpt>
      <trkpt lat="47.392576" lon="7.881042">
        <ele>700.615527</ele>
        <time>2021-11-17T23:20:43.033Z</time>
      </trkpt>
      <trkpt lat="47.392973" lon="7.879797">
        <ele>696.738130</ele>
        <time>2021-11-17T23:20:52.059Z</time>
      </trkpt>
      <trkpt lat="47.393030" lon="7.879335">
        <ele>695.415028</ele>
        <time>2021-11-17T23:20:55.012Z</time>
      </trkpt>
      <trkpt lat="47.392980" lon="7.878739">
        <ele>692.482112</ele>
        <time>2021-11-17T23:20:58.733Z</time>
      </trkpt>
      <trkpt lat="47.392853" lon="7.877912">
        <ele>687.988538</ele>
        <time>2021-11-17T23:21:03.963Z</time>
      </trkpt>
      <trkpt lat="47.392796" lon="7.877526">
        <ele>685.895042</ele>
        <time>2021-11-17T23:21:06.352Z</time>
      </trkpt>
      <trkpt lat="47.392627" lon="7.875850">
        <ele>675.414073</ele>
        <time>2021-11-17T23:21:16.167Z</time>
      </trkpt>
      <trkpt lat="47.392620" lon="7.875265">
        <ele>671.188111</ele>
        <time>2021-11-17T23:21:19.550Z</time>
      </trkpt>
      <trkpt lat="47.392622" lon="7.875217">
        <ele>670.840763</ele>
        <time>2021-11-17T23:21:19.816Z</time>
      </trkpt>
      <trkpt lat="47.392645" lon="7.874997">
        <ele>669.232924</ele>
        <time>2021-11-17T23:21:21.129Z</time>
      </trkpt>
      <trkpt lat="47.392733" lon="7.874549">
        <ele>665.863679</ele>
        <time>2021-11-17T23:21:23.803Z</time>
      </trkpt>
      <trkpt lat="47.392729" lon="7.874456">
        <ele>665.190612</ele>
        <time>2021-11-17T23:21:24.338Z</time>
      </trkpt>
      <trkpt lat="47.392680" lon="7.874314">
        <ele>664.039429</ele>
        <time>2021-11-17T23:21:25.265Z</time>
      </trkpt>
      <trkpt lat="47.392178" lon="7.872950">
        <ele>656.522297</ele>
        <time>2021-11-17T23:21:34.356Z</time>
      </trkpt>
      <trkpt lat="47.392145" lon="7.872809">
        <ele>655.885498</ele>
        <time>2021-11-17T23:21:35.223Z</time>
      </trkpt>
      <trkpt lat="47.392122" lon="7.872711">
        <ele>655.442768</ele>
        <time>2021-11-17T23:21:35.956Z</time>
      </trkpt>
      <trkpt lat="47.392003" lon="7.871960">
        <ele>652.150539</ele>
        <time>2021-11-17T23:21:42.001Z</time>
      </trkpt>
      <trkpt lat="47.391971" lon="7.871747">
        <ele>651.219244</ele>
        <time>2021-11-17T23:21:43.274Z</time>
      </trkpt>
      <trkpt lat="47.391928" lon="7.871611">
        <ele>650.578545</ele>
        <time>2021-11-17T23:21:45.788Z</time>
      </trkpt>
      <trkpt lat="47.391668" lon="7.871191">
        <ele>649.639652</ele>
        <time>2021-11-17T23:21:50.066Z</time>
      </trkpt>
      <trkpt lat="47.391313" lon="7.870991">
        <ele>648.748662</ele>
        <time>2021-11-17T23:21:54.152Z</time>
      </trkpt>
      <trkpt lat="47.391248" lon="7.870968">
        <ele>648.591921</ele>
        <time>2021-11-17T23:21:57.272Z</time>
      </trkpt>
      <trkpt lat="47.391246" lon="7.870873">
        <ele>648.441028</ele>
        <time>2021-11-17T23:21:57.828Z</time>
      </trkpt>
      <trkpt lat="47.390810" lon="7.869784">
        <ele>646.432443</ele>
        <time>2021-11-17T23:22:07.974Z</time>
      </trkpt>
      <trkpt lat="47.390135" lon="7.868913">
        <ele>639.210519</ele>
        <time>2021-11-17T23:22:16.195Z</time>
      </trkpt>
      <trkpt lat="47.389999" lon="7.868629">
        <ele>637.225551</ele>
        <time>2021-11-17T23:22:18.240Z</time>
      </trkpt>
      <trkpt lat="47.389908" lon="7.868143">
        <ele>634.348258</ele>
        <time>2021-11-17T23:22:21.159Z</time>
      </trkpt>
      <trkpt lat="47.389913" lon="7.867526">
        <ele>630.666544</ele>
        <time>2021-11-17T23:22:24.666Z</time>
      </trkpt>
      <trkpt lat="47.390028" lon="7.865801">
        <ele>615.761472</ele>
        <time>2021-11-17T23:22:34.500Z</time>
      </trkpt>
      <trkpt lat="47.390057" lon="7.865367">
        <ele>612.011365</ele>
        <time>2021-11-17T23:22:36.978Z</time>
      </trkpt>
      <trkpt lat="47.390138" lon="7.864689">
        <ele>606.711617</ele>
        <time>2021-11-17T23:22:40.918Z</time>
      </trkpt>
      <trkpt lat="47.390658" lon="7.863426">
        <ele>597.572896</ele>
        <time>2021-11-17T23:22:49.594Z</time>
      </trkpt>
      <trkpt lat="47.390852" lon="7.863147">
        <ele>595.100342</ele>
        <time>2021-11-17T23:22:52.010Z</time>
      </trkpt>
      <trkpt lat="47.391861" lon="7.862140">
        <ele>586.008053</ele>
        <time>2021-11-17T23:23:02.939Z</time>
      </trkpt>
      <trkpt lat="47.391930" lon="7.862028">
        <ele>585.312359</ele>
        <time>2021-11-17T23:23:03.862Z</time>
      </trkpt>
      <trkpt lat="47.392013" lon="7.861871">
        <ele>584.397229</ele>
        <time>2021-11-17T23:23:05.055Z</time>
      </trkpt>
      <trkpt lat="47.392159" lon="7.861591">
        <ele>582.773577</ele>
        <time>2021-11-17T23:23:07.265Z</time>
      </trkpt>
      <trkpt lat="47.392252" lon="7.861291">
        <ele>581.257750</ele>
        <time>2021-11-17T23:23:09.288Z</time>
      </trkpt>
      <trkpt lat="47.392446" lon="7.860609">
        <ele>578.295816</ele>
        <time>2021-11-17T23:23:13.842Z</time>
      </trkpt>
      <trkpt lat="47.392873" lon="7.859213">
        <ele>572.956635</ele>
        <time>2021-11-17T23:23:23.435Z</time>
      </trkpt>
      <trkpt lat="47.393583" lon="7.857849">
        <ele>568.042942</ele>
        <time>2021-11-17T23:23:35.142Z</time>
      </trkpt>
      <trkpt lat="47.393712" lon="7.857629">
        <ele>567.347190</ele>
        <time>2021-11-17T23:23:37.148Z</time>
      </trkpt>
      <trkpt lat="47.393747" lon="7.857569">
        <ele>567.157860</ele>
        <time>2021-11-17T23:23:37.678Z</time>
      </trkpt>
      <trkpt lat="47.393840" lon="7.857424">
        <ele>566.680380</ele>
        <time>2021-11-17T23:23:39.059Z</time>
      </trkpt>
      <trkpt lat="47.394330" lon="7.856716">
        <ele>564.260018</ele>
        <time>2021-11-17T23:23:45.900Z</time>
      </trkpt>
      <trkpt lat="47.394762" lon="7.856268">
        <ele>562.050062</ele>
        <time>2021-11-17T23:23:51.062Z</time>
      </trkpt>
      <trkpt lat="47.394873" lon="7.856111">
        <ele>561.394286</ele>
        <time>2021-11-17T23:23:52.522Z</time>
      </trkpt>
      <trkpt lat="47.394997" lon="7.855921">
        <ele>560.631907</ele>
        <time>2021-11-17T23:23:54.295Z</time>
      </trkpt>
      <trkpt lat="47.395030" lon="7.855860">
        <ele>560.406341</ele>
        <time>2021-11-17T23:23:54.812Z</time>
      </trkpt>
      <trkpt lat="47.395075" lon="7.855775">
        <ele>560.094632</ele>
        <time>2021-11-17T23:23:55.495Z</time>
      </trkpt>
      <trkpt lat="47.395196" lon="7.855528">
        <ele>559.213901</ele>
        <time>2021-11-17T23:23:57.518Z</time>
      </trkpt>
      <trkpt lat="47.395261" lon="7.855418">
        <ele>558.792117</ele>
        <time>2021-11-17T23:23:58.465Z</time>
      </trkpt>
      <trkpt lat="47.395350" lon="7.855275">
        <ele>558.230984</ele>
        <time>2021-11-17T23:23:59.729Z</time>
      </trkpt>
      <trkpt lat="47.395428" lon="7.855175">
        <ele>557.790270</ele>
        <time>2021-11-17T23:24:00.773Z</time>
      </trkpt>
      <trkpt lat="47.395483" lon="7.855116">
        <ele>557.500218</ele>
        <time>2021-11-17T23:24:01.422Z</time>
      </trkpt>
      <trkpt lat="47.395563" lon="7.855042">
        <ele>557.097436</ele>
        <time>2021-11-17T23:24:02.313Z</time>
      </trkpt>
      <trkpt lat="47.395630" lon="7.854989">
        <ele>556.773120</ele>
        <time>2021-11-17T23:24:03.018Z</time>
      </trkpt>
      <trkpt lat="47.396094" lon="7.854648">
        <ele>554.674623</ele>
        <time>2021-11-17T23:24:07.880Z</time>
      </trkpt>
      <trkpt lat="47.396458" lon="7.854340">
        <ele>552.995737</ele>
        <time>2021-11-17T23:24:11.822Z</time>
      </trkpt>
      <trkpt lat="47.396705" lon="7.854100">
        <ele>551.812505</ele>
        <time>2021-11-17T23:24:14.708Z</time>
      </trkpt>
      <trkpt lat="47.396734" lon="7.854071">
        <ele>551.672347</ele>
        <time>2021-11-17T23:24:15.044Z</time>
      </trkpt>
      <trkpt lat="47.396904" lon="7.853864">
        <ele>550.790626</ele>
        <time>2021-11-17T23:24:17.320Z</time>
      </trkpt>
      <trkpt lat="47.396956" lon="7.853787">
        <ele>550.495955</ele>
        <time>2021-11-17T23:24:18.029Z</time>
      </trkpt>
      <trkpt lat="47.397013" lon="7.853694">
        <ele>550.156065</ele>
        <time>2021-11-17T23:24:18.892Z</time>
      </trkpt>
      <trkpt lat="47.397171" lon="7.853390">
        <ele>549.163520</ele>
        <time>2021-11-17T23:24:21.634Z</time>
      </trkpt>
      <trkpt lat="47.397240" lon="7.853282">
        <ele>549.044909</ele>
        <time>2021-11-17T23:24:22.679Z</time>
      </trkpt>
      <trkpt lat="47.397399" lon="7.853113">
        <ele>548.813794</ele>
        <time>2021-11-17T23:24:24.940Z</time>
      </trkpt>
      <trkpt lat="47.397466" lon="7.853058">
        <ele>548.723356</ele>
        <time>2021-11-17T23:24:25.713Z</time>
      </trkpt>
      <trkpt lat="47.397584" lon="7.852978">
        <ele>548.570166</ele>
        <time>2021-11-17T23:24:27.140Z</time>
      </trkpt>
      <trkpt lat="47.397811" lon="7.852864">
        <ele>548.287277</ele>
        <time>2021-11-17T23:24:30.007Z</time>
      </trkpt>
      <trkpt lat="47.399819" lon="7.851860">
        <ele>544.568753</ele>
        <time>2021-11-17T23:24:58.068Z</time>
      </trkpt>
      <trkpt lat="47.400748" lon="7.852175">
        <ele>540.931289</ele>
        <time>2021-11-17T23:25:07.233Z</time>
      </trkpt>
      <trkpt lat="47.400993" lon="7.852181">
        <ele>538.863577</ele>
        <time>2021-11-17T23:25:09.442Z</time>
      </trkpt>
      <trkpt lat="47.401365" lon="7.852088">
        <ele>535.679836</ele>
        <time>2021-11-17T23:25:12.752Z</time>
      </trkpt>
      <trkpt lat="47.401481" lon="7.852058">
        <ele>534.686088</ele>
        <time>2021-11-17T23:25:13.762Z</time>
      </trkpt>
      <trkpt lat="47.401845" lon="7.851841">
        <ele>531.373847</ele>
        <time>2021-11-17T23:25:17.138Z</time>
      </trkpt>
      <trkpt lat="47.402868" lon="7.850841">
        <ele>521.612481</ele>
        <time>2021-11-17T23:25:27.656Z</time>
      </trkpt>
      <trkpt lat="47.403486" lon="7.850249">
        <ele>515.943404</ele>
        <time>2021-11-17T23:25:34.265Z</time>
      </trkpt>
      <trkpt lat="47.404383" lon="7.849389">
        <ele>512.340459</ele>
        <time>2021-11-17T23:25:45.153Z</time>
      </trkpt>
      <trkpt lat="47.404599" lon="7.849165">
        <ele>511.831125</ele>
        <time>2021-11-17T23:25:48.373Z</time>
      </trkpt>
      <trkpt lat="47.404726" lon="7.848932">
        <ele>511.440328</ele>
        <time>2021-11-17T23:25:50.855Z</time>
      </trkpt>
      <trkpt lat="47.404852" lon="7.848646">
        <ele>510.994552</ele>
        <time>2021-11-17T23:25:54.912Z</time>
      </trkpt>
      <trkpt lat="47.404908" lon="7.848505">
        <ele>510.780994</ele>
        <time>2021-11-17T23:25:56.175Z</time>
      </trkpt>
      <trkpt lat="47.405700" lon="7.846541">
        <ele>509.890149</ele>
        <time>2021-11-17T23:26:17.174Z</time>
      </trkpt>
      <trkpt lat="47.405939" lon="7.846047">
        <ele>509.730623</ele>
        <time>2021-11-17T23:26:22.623Z</time>
      </trkpt>
      <trkpt lat="47.406156" lon="7.845724">
        <ele>509.212155</ele>
        <time>2021-11-17T23:26:26.859Z</time>
      </trkpt>
      <trkpt lat="47.406444" lon="7.845434">
        <ele>508.579344</ele>
        <time>2021-11-17T23:26:31.674Z</time>
      </trkpt>
      <trkpt lat="47.406668" lon="7.845324">
        <ele>508.150750</ele>
        <time>2021-11-17T23:26:34.884Z</time>
      </trkpt>
      <trkpt lat="47.407704" lon="7.845059">
        <ele>505.780155</ele>
        <time>2021-11-17T23:26:45.954Z</time>
      </trkpt>
      <trkpt lat="47.408170" lon="7.844961">
        <ele>503.065005</ele>
        <time>2021-11-17T23:26:50.309Z</time>
      </trkpt>
      <trkpt lat="47.408437" lon="7.844931">
        <ele>501.520404</ele>
        <time>2021-11-17T23:26:52.768Z</time>
      </trkpt>
      <trkpt lat="47.408741" lon="7.844947">
        <ele>499.765707</ele>
        <time>2021-11-17T23:26:55.519Z</time>
      </trkpt>
      <trkpt lat="47.409142" lon="7.844968">
        <ele>497.451138</ele>
        <time>2021-11-17T23:26:59.190Z</time>
      </trkpt>
      <trkpt lat="47.409210" lon="7.844968">
        <ele>497.058889</ele>
        <time>2021-11-17T23:26:59.773Z</time>
      </trkpt>
      <trkpt lat="47.409459" lon="7.844940">
        <ele>495.680927</ele>
        <time>2021-11-17T23:27:02.021Z</time>
      </trkpt>
      <trkpt lat="47.409665" lon="7.844882">
        <ele>494.635641</ele>
        <time>2021-11-17T23:27:03.893Z</time>
      </trkpt>
      <trkpt lat="47.409752" lon="7.844850">
        <ele>494.188754</ele>
        <time>2021-11-17T23:27:04.679Z</time>
      </trkpt>
      <trkpt lat="47.409830" lon="7.844820">
        <ele>493.787006</ele>
        <time>2021-11-17T23:27:05.420Z</time>
      </trkpt>
      <trkpt lat="47.409986" lon="7.844760">
        <ele>492.983511</ele>
        <time>2021-11-17T23:27:06.886Z</time>
      </trkpt>
      <trkpt lat="47.410148" lon="7.844709">
        <ele>492.157895</ele>
        <time>2021-11-17T23:27:08.444Z</time>
      </trkpt>
      <trkpt lat="47.410293" lon="7.844651">
        <ele>491.409126</ele>
        <time>2021-11-17T23:27:09.887Z</time>
      </trkpt>
      <trkpt lat="47.410433" lon="7.844607">
        <ele>490.695683</ele>
        <time>2021-11-17T23:27:11.240Z</time>
      </trkpt>
      <trkpt lat="47.411166" lon="7.844371">
        <ele>487.026010</ele>
        <time>2021-11-17T23:27:18.621Z</time>
      </trkpt>
      <trkpt lat="47.411235" lon="7.844348">
        <ele>486.830193</ele>
        <time>2021-11-17T23:27:19.390Z</time>
      </trkpt>
      <trkpt lat="47.411264" lon="7.844343">
        <ele>486.749366</ele>
        <time>2021-11-17T23:27:19.787Z</time>
      </trkpt>
      <trkpt lat="47.411785" lon="7.844178">
        <ele>485.274296</ele>
        <time>2021-11-17T23:27:25.414Z</time>
      </trkpt>
      <trkpt lat="47.412769" lon="7.843850">
        <ele>482.481781</ele>
        <time>2021-11-17T23:27:36.011Z</time>
      </trkpt>
      <trkpt lat="47.412891" lon="7.843894">
        <ele>482.134127</ele>
        <time>2021-11-17T23:27:37.848Z</time>
      </trkpt>
      <trkpt lat="47.413673" lon="7.843752">
        <ele>480.581168</ele>
        <time>2021-11-17T23:27:49.656Z</time>
      </trkpt>
      <trkpt lat="47.414334" lon="7.843765">
        <ele>479.278266</ele>
        <time>2021-11-17T23:27:59.988Z</time>
      </trkpt>
      <trkpt lat="47.414534" lon="7.843769">
        <ele>478.884044</ele>
        <time>2021-11-17T23:28:03.523Z</time>
      </trkpt>
      <trkpt lat="47.414737" lon="7.843840">
        <ele>478.594017</ele>
        <time>2021-11-17T23:28:07.243Z</time>
      </trkpt>
      <trkpt lat="47.415123" lon="7.843938">
        <ele>478.628883</ele>
        <time>2021-11-17T23:28:14.699Z</time>
      </trkpt>
      <trkpt lat="47.415184" lon="7.843954">
        <ele>478.634399</ele>
        <time>2021-11-17T23:28:16.164Z</time>
      </trkpt>
      <trkpt lat="47.416215" lon="7.844386">
        <ele>478.729800</ele>
        <time>2021-11-17T23:28:40.438Z</time>
      </trkpt>
      <trkpt lat="47.417039" lon="7.844872">
        <ele>477.656631</ele>
        <time>2021-11-17T23:28:57.988Z</time>
      </trkpt>
      <trkpt lat="47.417634" lon="7.845250">
        <ele>476.604891</ele>
        <time>2021-11-17T23:29:08.268Z</time>
      </trkpt>
      <trkpt lat="47.417834" lon="7.845378">
        <ele>476.250955</ele>
        <time>2021-11-17T23:29:11.422Z</time>
      </trkpt>
      <trkpt lat="47.418505" lon="7.845770">
        <ele>474.193577</ele>
        <time>2021-11-17T23:29:21.900Z</time>
      </trkpt>
      <trkpt lat="47.418787" lon="7.845930">
        <ele>473.122811</ele>
        <time>2021-11-17T23:29:26.146Z</time>
      </trkpt>
      <trkpt lat="47.419677" lon="7.846349">
        <ele>469.811745</ele>
        <time>2021-11-17T23:29:39.395Z</time>
      </trkpt>
      <trkpt lat="47.420292" lon="7.846569">
        <ele>467.783905</ele>
        <time>2021-11-17T23:29:48.511Z</time>
      </trkpt>
      <trkpt lat="47.421216" lon="7.846840">
        <ele>464.826112</ele>
        <time>2021-11-17T23:30:02.462Z</time>
      </trkpt>
      <trkpt lat="47.421469" lon="7.846914">
        <ele>464.016324</ele>
        <time>2021-11-17T23:30:06.271Z</time>
      </trkpt>
      <trkpt lat="47.421782" lon="7.847034">
        <ele>463.146080</ele>
        <time>2021-11-17T23:30:10.993Z</time>
      </trkpt>
      <trkpt lat="47.422224" lon="7.847204">
        <ele>461.970867</ele>
        <time>2021-11-17T23:30:17.701Z</time>
      </trkpt>
      <trkpt lat="47.422830" lon="7.847504">
        <ele>460.326391</ele>
        <time>2021-11-17T23:30:27.278Z</time>
      </trkpt>
      <trkpt lat="47.423160" lon="7.847639">
        <ele>459.445324</ele>
        <time>2021-11-17T23:30:32.636Z</time>
      </trkpt>
      <trkpt lat="47.423175" lon="7.847645">
        <ele>459.405338</ele>
        <time>2021-11-17T23:30:32.881Z</time>
      </trkpt>
      <trkpt lat="47.423326" lon="7.847739">
        <ele>459.061528</ele>
        <time>2021-11-17T23:30:35.574Z</time>
      </trkpt>
      <trkpt lat="47.423401" lon="7.847760">
        <ele>458.944361</ele>
        <time>2021-11-17T23:30:36.837Z</time>
      </trkpt>
      <trkpt lat="47.423488" lon="7.847784">
        <ele>458.808517</ele>
        <time>2021-11-17T23:30:38.317Z</time>
      </trkpt>
      <trkpt lat="47.423788" lon="7.847858">
        <ele>458.341673</ele>
        <time>2021-11-17T23:30:43.267Z</time>
      </trkpt>
      <trkpt lat="47.423887" lon="7.847874">
        <ele>458.188810</ele>
        <time>2021-11-17T23:30:45.019Z</time>
      </trkpt>
      <trkpt lat="47.424743" lon="7.847935">
        <ele>456.873392</ele>
        <time>2021-11-17T23:30:59.247Z</time>
      </trkpt>
      <trkpt lat="47.425016" lon="7.848030">
        <ele>456.442902</ele>
        <time>2021-11-17T23:31:03.983Z</time>
      </trkpt>
      <trkpt lat="47.425093" lon="7.848037">
        <ele>456.312297</ele>
        <time>2021-11-17T23:31:05.280Z</time>
      </trkpt>
      <trkpt lat="47.425165" lon="7.848031">
        <ele>456.186820</ele>
        <time>2021-11-17T23:31:06.362Z</time>
      </trkpt>
      <trkpt lat="47.427648" lon="7.848283">
        <ele>451.840339</ele>
        <time>2021-11-17T23:31:46.320Z</time>
      </trkpt>
      <trkpt lat="47.428268" lon="7.848175">
        <ele>450.741973</ele>
        <time>2021-11-17T23:31:56.420Z</time>
      </trkpt>
      <trkpt lat="47.428781" lon="7.847991">
        <ele>449.752357</ele>
        <time>2021-11-17T23:32:04.857Z</time>
      </trkpt>
      <trkpt lat="47.429321" lon="7.847805">
        <ele>448.584349</ele>
        <time>2021-11-17T23:32:13.755Z</time>
      </trkpt>
      <trkpt lat="47.429436" lon="7.847758">
        <ele>448.333008</ele>
        <time>2021-11-17T23:32:15.583Z</time>
      </trkpt>
      <trkpt lat="47.430098" lon="7.847528">
        <ele>446.900476</ele>
        <time>2021-11-17T23:32:26.171Z</time>
      </trkpt>
      <trkpt lat="47.430641" lon="7.847433">
        <ele>445.668795</ele>
        <time>2021-11-17T23:32:34.412Z</time>
      </trkpt>
      <trkpt lat="47.431292" lon="7.847484">
        <ele>444.107789</ele>
        <time>2021-11-17T23:32:44.109Z</time>
      </trkpt>
      <trkpt lat="47.431726" lon="7.847615">
        <ele>443.047134</ele>
        <time>2021-11-17T23:32:50.985Z</time>
      </trkpt>
      <trkpt lat="47.432368" lon="7.847858">
        <ele>441.629108</ele>
        <time>2021-11-17T23:33:01.443Z</time>
      </trkpt>
      <trkpt lat="47.432515" lon="7.847914">
        <ele>441.374116</ele>
        <time>2021-11-17T23:33:03.992Z</time>
      </trkpt>
      <trkpt lat="47.433365" lon="7.848309">
        <ele>439.877435</ele>
        <time>2021-11-17T23:33:18.284Z</time>
      </trkpt>
      <trkpt lat="47.433528" lon="7.848396">
        <ele>439.586334</ele>
        <time>2021-11-17T23:33:21.285Z</time>
      </trkpt>
      <trkpt lat="47.433795" lon="7.848524">
        <ele>439.114845</ele>
        <time>2021-11-17T23:33:25.864Z</time>
      </trkpt>
      <trkpt lat="47.434500" lon="7.848920">
        <ele>437.711820</ele>
        <time>2021-11-17T23:33:38.307Z</time>
      </trkpt>
      <trkpt lat="47.436050" lon="7.850036">
        <ele>434.696941</ele>
        <time>2021-11-17T23:34:05.145Z</time>
      </trkpt>
      <trkpt lat="47.436267" lon="7.850149">
        <ele>434.348214</ele>
        <time>2021-11-17T23:34:08.819Z</time>
      </trkpt>
      <trkpt lat="47.436479" lon="7.850260">
        <ele>434.007317</ele>
        <time>2021-11-17T23:34:12.749Z</time>
      </trkpt>
      <trkpt lat="47.436538" lon="7.850283">
        <ele>433.914830</ele>
        <time>2021-11-17T23:34:13.619Z</time>
      </trkpt>
      <trkpt lat="47.436663" lon="7.850327">
        <ele>433.720065</ele>
        <time>2021-11-17T23:34:16.053Z</time>
      </trkpt>
      <trkpt lat="47.437310" lon="7.850269">
        <ele>432.802647</ele>
        <time>2021-11-17T23:34:27.273Z</time>
      </trkpt>
      <trkpt lat="47.437750" lon="7.850017">
        <ele>432.371801</ele>
        <time>2021-11-17T23:34:35.870Z</time>
      </trkpt>
      <trkpt lat="47.438127" lon="7.849642">
        <ele>431.956913</ele>
        <time>2021-11-17T23:34:44.243Z</time>
      </trkpt>
      <trkpt lat="47.442391" lon="7.843670">
        <ele>424.777839</ele>
        <time>2021-11-17T23:36:23.537Z</time>
      </trkpt>
      <trkpt lat="47.443079" lon="7.842585">
        <ele>422.818880</ele>
        <time>2021-11-17T23:36:39.617Z</time>
      </trkpt>
      <trkpt lat="47.444584" lon="7.839628">
        <ele>416.814901</ele>
        <time>2021-11-17T23:37:17.742Z</time>
      </trkpt>
      <trkpt lat="47.445072" lon="7.838787">
        <ele>414.762144</ele>
        <time>2021-11-17T23:37:28.854Z</time>
      </trkpt>
      <trkpt lat="47.445528" lon="7.838233">
        <ele>413.043759</ele>
        <time>2021-11-17T23:37:37.563Z</time>
      </trkpt>
      <trkpt lat="47.446064" lon="7.837840">
        <ele>411.301795</ele>
        <time>2021-11-17T23:37:46.386Z</time>
      </trkpt>
      <trkpt lat="47.446145" lon="7.837696">
        <ele>410.932984</ele>
        <time>2021-11-17T23:37:48.269Z</time>
      </trkpt>
      <trkpt lat="47.447146" lon="7.836805">
        <ele>407.779257</ele>
        <time>2021-11-17T23:38:05.729Z</time>
      </trkpt>
      <trkpt lat="47.448622" lon="7.835311">
        <ele>403.329314</ele>
        <time>2021-11-17T23:38:32.770Z</time>
      </trkpt>
      <trkpt lat="47.448978" lon="7.835062">
        <ele>402.402186</ele>
        <time>2021-11-17T23:38:38.845Z</time>
      </trkpt>
      <trkpt lat="47.448956" lon="7.834983">
        <ele>402.266168</ele>
        <time>2021-11-17T23:38:39.745Z</time>
      </trkpt>
      <trkpt lat="47.449275" lon="7.834788">
        <ele>401.506548</ele>
        <time>2021-11-17T23:38:43.554Z</time>
      </trkpt>
      <trkpt lat="47.449505" lon="7.834629">
        <ele>401.195235</ele>
        <time>2021-11-17T23:38:46.433Z</time>
      </trkpt>
      <trkpt lat="47.449669" lon="7.834494">
        <ele>400.965088</ele>
        <time>2021-11-17T23:38:48.525Z</time>
      </trkpt>
      <trkpt lat="47.449811" lon="7.834354">
        <ele>400.755824</ele>
        <time>2021-11-17T23:38:50.554Z</time>
      </trkpt>
      <trkpt lat="47.450016" lon="7.834124">
        <ele>400.440303</ele>
        <time>2021-11-17T23:38:53.521Z</time>
      </trkpt>
      <trkpt lat="47.451121" lon="7.832696">
        <ele>399.187966</ele>
        <time>2021-11-17T23:39:12.053Z</time>
      </trkpt>
      <trkpt lat="47.451327" lon="7.832461">
        <ele>399.112069</ele>
        <time>2021-11-17T23:39:15.980Z</time>
      </trkpt>
      <trkpt lat="47.451426" lon="7.832356">
        <ele>399.076528</ele>
        <time>2021-11-17T23:39:17.647Z</time>
      </trkpt>
      <trkpt lat="47.451701" lon="7.832106">
        <ele>398.982358</ele>
        <time>2021-11-17T23:39:22.463Z</time>
      </trkpt>
      <trkpt lat="47.451989" lon="7.831857">
        <ele>398.885037</ele>
        <time>2021-11-17T23:39:27.568Z</time>
      </trkpt>
      <trkpt lat="47.452175" lon="7.831696">
        <ele>398.801215</ele>
        <time>2021-11-17T23:39:31.032Z</time>
      </trkpt>
      <trkpt lat="47.452373" lon="7.831505">
        <ele>398.610578</ele>
        <time>2021-11-17T23:39:34.339Z</time>
      </trkpt>
      <trkpt lat="47.452618" lon="7.831252">
        <ele>398.369607</ele>
        <time>2021-11-17T23:39:38.511Z</time>
      </trkpt>
      <trkpt lat="47.453117" lon="7.830630">
        <ele>397.843333</ele>
        <time>2021-11-17T23:39:46.779Z</time>
      </trkpt>
      <trkpt lat="47.453250" lon="7.830464">
        <ele>397.702988</ele>
        <time>2021-11-17T23:39:48.766Z</time>
      </trkpt>
      <trkpt lat="47.453398" lon="7.830308">
        <ele>397.556426</ele>
        <time>2021-11-17T23:39:51.046Z</time>
      </trkpt>
      <trkpt lat="47.453492" lon="7.830220">
        <ele>397.466712</ele>
        <time>2021-11-17T23:39:52.271Z</time>
      </trkpt>
      <trkpt lat="47.453757" lon="7.829984">
        <ele>396.966625</ele>
        <time>2021-11-17T23:39:55.880Z</time>
      </trkpt>
      <trkpt lat="47.453989" lon="7.829813">
        <ele>396.442612</ele>
        <time>2021-11-17T23:39:58.639Z</time>
      </trkpt>
      <trkpt lat="47.454287" lon="7.829611">
        <ele>395.779935</ele>
        <time>2021-11-17T23:40:02.063Z</time>
      </trkpt>
      <trkpt lat="47.454472" lon="7.829506">
        <ele>395.379360</ele>
        <time>2021-11-17T23:40:04.312Z</time>
      </trkpt>
      <trkpt lat="47.454625" lon="7.829495">
        <ele>395.069702</ele>
        <time>2021-11-17T23:40:05.858Z</time>
      </trkpt>
      <trkpt lat="47.454803" lon="7.829577">
        <ele>394.692819</ele>
        <time>2021-11-17T23:40:07.979Z</time>
      </trkpt>
      <trkpt lat="47.455119" lon="7.829864">
        <ele>393.943178</ele>
        <time>2021-11-17T23:40:12.035Z</time>
      </trkpt>
      <trkpt lat="47.455185" lon="7.829882">
        <ele>393.807509</ele>
        <time>2021-11-17T23:40:12.708Z</time>
      </trkpt>
      <trkpt lat="47.455265" lon="7.829874">
        <ele>393.694742</ele>
        <time>2021-11-17T23:40:13.542Z</time>
      </trkpt>
      <trkpt lat="47.455471" lon="7.829717">
        <ele>393.452399</ele>
        <time>2021-11-17T23:40:16.369Z</time>
      </trkpt>
      <trkpt lat="47.455556" lon="7.829615">
        <ele>393.337933</ele>
        <time>2021-11-17T23:40:17.503Z</time>
      </trkpt>
      <trkpt lat="47.455802" lon="7.829313">
        <ele>393.003602</ele>
        <time>2021-11-17T23:40:21.494Z</time>
      </trkpt>
      <trkpt lat="47.455924" lon="7.829166">
        <ele>392.839041</ele>
        <time>2021-11-17T23:40:23.349Z</time>
      </trkpt>
      <trkpt lat="47.455989" lon="7.829100">
        <ele>392.756591</ele>
        <time>2021-11-17T23:40:24.552Z</time>
      </trkpt>
      <trkpt lat="47.456107" lon="7.828977">
        <ele>392.605625</ele>
        <time>2021-11-17T23:40:26.255Z</time>
      </trkpt>
      <trkpt lat="47.456883" lon="7.828406">
        <ele>391.885675</ele>
        <time>2021-11-17T23:40:37.289Z</time>
      </trkpt>
      <trkpt lat="47.457111" lon="7.828245">
        <ele>391.915612</ele>
        <time>2021-11-17T23:40:41.608Z</time>
      </trkpt>
      <trkpt lat="47.457158" lon="7.828212">
        <ele>391.921777</ele>
        <time>2021-11-17T23:40:42.235Z</time>
      </trkpt>
      <trkpt lat="47.457581" lon="7.827803">
        <ele>391.981660</ele>
        <time>2021-11-17T23:40:50.365Z</time>
      </trkpt>
      <trkpt lat="47.457644" lon="7.827725">
        <ele>391.991395</ele>
        <time>2021-11-17T23:40:51.585Z</time>
      </trkpt>
      <trkpt lat="47.457712" lon="7.827647">
        <ele>392.001592</ele>
        <time>2021-11-17T23:40:52.927Z</time>
      </trkpt>
      <trkpt lat="47.457842" lon="7.827433">
        <ele>392.024640</ele>
        <time>2021-11-17T23:40:56.126Z</time>
      </trkpt>
      <trkpt lat="47.458019" lon="7.827141">
        <ele>392.056059</ele>
        <time>2021-11-17T23:41:00.455Z</time>
      </trkpt>
      <trkpt lat="47.458261" lon="7.826740">
        <ele>392.055605</ele>
        <time>2021-11-17T23:41:06.597Z</time>
      </trkpt>
      <trkpt lat="47.458747" lon="7.825916">
        <ele>391.945646</ele>
        <time>2021-11-17T23:41:17.945Z</time>
      </trkpt>
      <trkpt lat="47.458942" lon="7.825616">
        <ele>391.903798</ele>
        <time>2021-11-17T23:41:22.205Z</time>
      </trkpt>
      <trkpt lat="47.458995" lon="7.825541">
        <ele>391.892888</ele>
        <time>2021-11-17T23:41:23.364Z</time>
      </trkpt>
      <trkpt lat="47.459101" lon="7.825404">
        <ele>391.871951</ele>
        <time>2021-11-17T23:41:25.601Z</time>
      </trkpt>
      <trkpt lat="47.459273" lon="7.825195">
        <ele>391.838843</ele>
        <time>2021-11-17T23:41:28.348Z</time>
      </trkpt>
      <trkpt lat="47.459476" lon="7.824983">
        <ele>391.647446</ele>
        <time>2021-11-17T23:41:31.347Z</time>
      </trkpt>
      <trkpt lat="47.459583" lon="7.824865">
        <ele>391.333609</ele>
        <time>2021-11-17T23:41:33.002Z</time>
      </trkpt>
      <trkpt lat="47.459717" lon="7.824715">
        <ele>390.938455</ele>
        <time>2021-11-17T23:41:35.043Z</time>
      </trkpt>
      <trkpt lat="47.459781" lon="7.824650">
        <ele>390.755903</ele>
        <time>2021-11-17T23:41:35.855Z</time>
      </trkpt>
      <trkpt lat="47.460099" lon="7.824303">
        <ele>389.826689</ele>
        <time>2021-11-17T23:41:40.182Z</time>
      </trkpt>
      <trkpt lat="47.460235" lon="7.824168">
        <ele>389.441558</ele>
        <time>2021-11-17T23:41:41.983Z</time>
      </trkpt>
      <trkpt lat="47.460305" lon="7.824097">
        <ele>389.241976</ele>
        <time>2021-11-17T23:41:42.860Z</time>
      </trkpt>
      <trkpt lat="47.460395" lon="7.824018">
        <ele>388.995890</ele>
        <time>2021-11-17T23:41:43.887Z</time>
      </trkpt>
      <trkpt lat="47.460476" lon="7.823773">
        <ele>388.562322</ele>
        <time>2021-11-17T23:41:46.574Z</time>
      </trkpt>
      <trkpt lat="47.460497" lon="7.823707">
        <ele>388.446359</ele>
        <time>2021-11-17T23:41:47.312Z</time>
      </trkpt>
      <trkpt lat="47.460652" lon="7.823230">
        <ele>387.605003</ele>
        <time>2021-11-17T23:41:52.475Z</time>
      </trkpt>
      <trkpt lat="47.460919" lon="7.822346">
        <ele>385.291864</ele>
        <time>2021-11-17T23:42:01.794Z</time>
      </trkpt>
      <trkpt lat="47.461386" lon="7.820911">
        <ele>381.468566</ele>
        <time>2021-11-17T23:42:17.106Z</time>
      </trkpt>
      <trkpt lat="47.461451" lon="7.820719">
        <ele>381.046931</ele>
        <time>2021-11-17T23:42:19.244Z</time>
      </trkpt>
      <trkpt lat="47.461546" lon="7.820441">
        <ele>380.587649</ele>
        <time>2021-11-17T23:42:22.255Z</time>
      </trkpt>
      <trkpt lat="47.461612" lon="7.820356">
        <ele>380.396795</ele>
        <time>2021-11-17T23:42:23.621Z</time>
      </trkpt>
      <trkpt lat="47.461730" lon="7.820282">
        <ele>380.117278</ele>
        <time>2021-11-17T23:42:25.504Z</time>
      </trkpt>
      <trkpt lat="47.461722" lon="7.820179">
        <ele>379.964412</ele>
        <time>2021-11-17T23:42:26.193Z</time>
      </trkpt>
      <trkpt lat="47.461754" lon="7.819910">
        <ele>379.561693</ele>
        <time>2021-11-17T23:42:28.228Z</time>
      </trkpt>
      <trkpt lat="47.461772" lon="7.819834">
        <ele>379.442959</ele>
        <time>2021-11-17T23:42:28.792Z</time>
      </trkpt>
      <trkpt lat="47.461818" lon="7.819635">
        <ele>379.132869</ele>
        <time>2021-11-17T23:42:30.252Z</time>
      </trkpt>
      <trkpt lat="47.461832" lon="7.819582">
        <ele>379.048970</ele>
        <time>2021-11-17T23:42:30.700Z</time>
      </trkpt>
      <trkpt lat="47.461833" lon="7.819386">
        <ele>378.759972</ele>
        <time>2021-11-17T23:42:32.237Z</time>
      </trkpt>
      <trkpt lat="47.461803" lon="7.819336">
        <ele>378.661404</ele>
        <time>2021-11-17T23:42:32.729Z</time>
      </trkpt>
      <trkpt lat="47.461912" lon="7.819188">
        <ele>378.338717</ele>
        <time>2021-11-17T23:42:34.311Z</time>
      </trkpt>
      <trkpt lat="47.461960" lon="7.819120">
        <ele>378.193767</ele>
        <time>2021-11-17T23:42:35.132Z</time>
      </trkpt>
      <trkpt lat="47.462012" lon="7.818948">
        <ele>377.915963</ele>
        <time>2021-11-17T23:42:36.689Z</time>
      </trkpt>
      <trkpt lat="47.462122" lon="7.818441">
        <ele>377.252473</ele>
        <time>2021-11-17T23:42:40.990Z</time>
      </trkpt>
      <trkpt lat="47.462262" lon="7.817447">
        <ele>377.029659</ele>
        <time>2021-11-17T23:42:50.141Z</time>
      </trkpt>
      <trkpt lat="47.462434" lon="7.816598">
        <ele>376.835164</ele>
        <time>2021-11-17T23:42:58.996Z</time>
      </trkpt>
      <trkpt lat="47.462785" lon="7.815763">
        <ele>376.653828</ele>
        <time>2021-11-17T23:43:08.723Z</time>
      </trkpt>
      <trkpt lat="47.462859" lon="7.815548">
        <ele>376.626736</ele>
        <time>2021-11-17T23:43:11.288Z</time>
      </trkpt>
      <trkpt lat="47.462865" lon="7.815524">
        <ele>376.623862</ele>
        <time>2021-11-17T23:43:11.570Z</time>
      </trkpt>
      <trkpt lat="47.462867" lon="7.815468">
        <ele>376.617565</ele>
        <time>2021-11-17T23:43:12.096Z</time>
      </trkpt>
      <trkpt lat="47.462863" lon="7.815440">
        <ele>376.614351</ele>
        <time>2021-11-17T23:43:12.405Z</time>
      </trkpt>
      <trkpt lat="47.462902" lon="7.815377">
        <ele>376.604759</ele>
        <time>2021-11-17T23:43:13.446Z</time>
      </trkpt>
      <trkpt lat="47.463209" lon="7.814244">
        <ele>376.467688</ele>
        <time>2021-11-17T23:43:29.616Z</time>
      </trkpt>
      <trkpt lat="47.463323" lon="7.813790">
        <ele>376.413303</ele>
        <time>2021-11-17T23:43:35.996Z</time>
      </trkpt>
      <trkpt lat="47.463516" lon="7.813197">
        <ele>376.210646</ele>
        <time>2021-11-17T23:43:44.617Z</time>
      </trkpt>
      <trkpt lat="47.463585" lon="7.813014">
        <ele>376.128584</ele>
        <time>2021-11-17T23:43:47.252Z</time>
      </trkpt>
      <trkpt lat="47.463671" lon="7.812852">
        <ele>376.047918</ele>
        <time>2021-11-17T23:43:49.779Z</time>
      </trkpt>
      <trkpt lat="47.463905" lon="7.812397">
        <ele>375.824028</ele>
        <time>2021-11-17T23:43:56.544Z</time>
      </trkpt>
      <trkpt lat="47.463958" lon="7.812269">
        <ele>375.765245</ele>
        <time>2021-11-17T23:43:58.435Z</time>
      </trkpt>
      <trkpt lat="47.464174" lon="7.811536">
        <ele>375.452097</ele>
        <time>2021-11-17T23:44:08.066Z</time>
      </trkpt>
      <trkpt lat="47.464316" lon="7.810976">
        <ele>375.317190</ele>
        <time>2021-11-17T23:44:15.531Z</time>
      </trkpt>
      <trkpt lat="47.464325" lon="7.810936">
        <ele>375.313164</ele>
        <time>2021-11-17T23:44:15.979Z</time>
      </trkpt>
      <trkpt lat="47.464370" lon="7.810752">
        <ele>375.294475</ele>
        <time>2021-11-17T23:44:18.654Z</time>
      </trkpt>
      <trkpt lat="47.464364" lon="7.810630">
        <ele>375.282792</ele>
        <time>2021-11-17T23:44:20.179Z</time>
      </trkpt>
      <trkpt lat="47.464385" lon="7.810619">
        <ele>375.279644</ele>
        <time>2021-11-17T23:44:20.439Z</time>
      </trkpt>
      <trkpt lat="47.464417" lon="7.810573">
        <ele>375.273340</ele>
        <time>2021-11-17T23:44:21.235Z</time>
      </trkpt>
      <trkpt lat="47.464452" lon="7.810429">
        <ele>375.258724</ele>
        <time>2021-11-17T23:44:22.673Z</time>
      </trkpt>
      <trkpt lat="47.464510" lon="7.810204">
        <ele>375.235725</ele>
        <time>2021-11-17T23:44:25.071Z</time>
      </trkpt>
      <trkpt lat="47.464553" lon="7.810043">
        <ele>375.219191</ele>
        <time>2021-11-17T23:44:26.881Z</time>
      </trkpt>
      <trkpt lat="47.464574" lon="7.809967">
        <ele>375.211349</ele>
        <time>2021-11-17T23:44:27.605Z</time>
      </trkpt>
      <trkpt lat="47.464595" lon="7.809881">
        <ele>375.202615</ele>
        <time>2021-11-17T23:44:28.579Z</time>
      </trkpt>
      <trkpt lat="47.464602" lon="7.809851">
        <ele>375.199584</ele>
        <time>2021-11-17T23:44:28.938Z</time>
      </trkpt>
      <trkpt lat="47.464662" lon="7.809564">
        <ele>375.170891</ele>
        <time>2021-11-17T23:44:32.120Z</time>
      </trkpt>
      <trkpt lat="47.464811" lon="7.808597">
        <ele>375.054643</ele>
        <time>2021-11-17T23:44:41.968Z</time>
      </trkpt>
      <trkpt lat="47.464826" lon="7.808468">
        <ele>375.027945</ele>
        <time>2021-11-17T23:44:43.389Z</time>
      </trkpt>
      <trkpt lat="47.464869" lon="7.807851">
        <ele>374.901431</ele>
        <time>2021-11-17T23:44:49.826Z</time>
      </trkpt>
      <trkpt lat="47.464860" lon="7.807604">
        <ele>374.850978</ele>
        <time>2021-11-17T23:44:52.432Z</time>
      </trkpt>
      <trkpt lat="47.464839" lon="7.807091">
        <ele>374.746151</ele>
        <time>2021-11-17T23:44:57.674Z</time>
      </trkpt>
      <trkpt lat="47.464820" lon="7.806610">
        <ele>374.647876</ele>
        <time>2021-11-17T23:45:02.327Z</time>
      </trkpt>
      <trkpt lat="47.464830" lon="7.806346">
        <ele>374.593944</ele>
        <time>2021-11-17T23:45:04.697Z</time>
      </trkpt>
      <trkpt lat="47.464852" lon="7.806188">
        <ele>374.561041</ele>
        <time>2021-11-17T23:45:06.076Z</time>
      </trkpt>
      <trkpt lat="47.464879" lon="7.806011">
        <ele>374.355697</ele>
        <time>2021-11-17T23:45:07.546Z</time>
      </trkpt>
      <trkpt lat="47.465361" lon="7.804383">
        <ele>371.845998</ele>
        <time>2021-11-17T23:45:20.371Z</time>
      </trkpt>
      <trkpt lat="47.465464" lon="7.803785">
        <ele>370.974589</ele>
        <time>2021-11-17T23:45:24.783Z</time>
      </trkpt>
      <trkpt lat="47.465562" lon="7.802933">
        <ele>369.803972</ele>
        <time>2021-11-17T23:45:31.020Z</time>
      </trkpt>
      <trkpt lat="47.465594" lon="7.802678">
        <ele>369.455245</ele>
        <time>2021-11-17T23:45:32.925Z</time>
      </trkpt>
      <trkpt lat="47.465633" lon="7.802373">
        <ele>369.037874</ele>
        <time>2021-11-17T23:45:35.201Z</time>
      </trkpt>
      <trkpt lat="47.465735" lon="7.801577">
        <ele>367.948527</ele>
        <time>2021-11-17T23:45:41.184Z</time>
      </trkpt>
      <trkpt lat="47.465858" lon="7.800715">
        <ele>366.932413</ele>
        <time>2021-11-17T23:45:48.173Z</time>
      </trkpt>
      <trkpt lat="47.465866" lon="7.800659">
        <ele>366.884002</ele>
        <time>2021-11-17T23:45:48.649Z</time>
      </trkpt>
      <trkpt lat="47.466033" lon="7.800108">
        <ele>366.373268</ele>
        <time>2021-11-17T23:45:53.739Z</time>
      </trkpt>
      <trkpt lat="47.466090" lon="7.800039">
        <ele>366.281117</ele>
        <time>2021-11-17T23:45:54.603Z</time>
      </trkpt>
      <trkpt lat="47.466042" lon="7.799777">
        <ele>366.051522</ele>
        <time>2021-11-17T23:46:14.440Z</time>
      </trkpt>
      <trkpt lat="47.466172" lon="7.799019">
        <ele>365.390093</ele>
        <time>2021-11-17T23:47:10.834Z</time>
      </trkpt>
      <trkpt lat="47.466186" lon="7.797669">
        <ele>364.208564</ele>
        <time>2021-11-17T23:48:47.101Z</time>
      </trkpt>
      <trkpt lat="47.466430" lon="7.795789">
        <ele>362.560853</ele>
        <time>2021-11-17T23:51:04.369Z</time>
      </trkpt>
      <trkpt lat="47.466774" lon="7.793016">
        <ele>361.785347</ele>
        <time>2021-11-17T23:54:33.886Z</time>
      </trkpt>
      <trkpt lat="47.467163" lon="7.789876">
        <ele>361.588056</ele>
        <time>2021-11-17T23:58:36.164Z</time>
      </trkpt>
      <trkpt lat="47.467228" lon="7.789417">
        <ele>361.328348</ele>
        <time>2021-11-17T23:58:42.079Z</time>
      </trkpt>
      <trkpt lat="47.467240" lon="7.789331">
        <ele>361.279718</ele>
        <time>2021-11-17T23:58:43.043Z</time>
      </trkpt>
      <trkpt lat="47.467307" lon="7.788932">
        <ele>361.052041</ele>
        <time>2021-11-17T23:58:48.032Z</time>
      </trkpt>
      <trkpt lat="47.467339" lon="7.788734">
        <ele>360.939301</ele>
        <time>2021-11-17T23:58:50.159Z</time>
      </trkpt>
      <trkpt lat="47.467451" lon="7.788042">
        <ele>360.531269</ele>
        <time>2021-11-17T23:58:58.059Z</time>
      </trkpt>
      <trkpt lat="47.467504" lon="7.787622">
        <ele>359.946777</ele>
        <time>2021-11-17T23:59:02.448Z</time>
      </trkpt>
      <trkpt lat="47.467538" lon="7.787352">
        <ele>359.571059</ele>
        <time>2021-11-17T23:59:05.349Z</time>
      </trkpt>
      <trkpt lat="47.467566" lon="7.787128">
        <ele>359.259430</ele>
        <time>2021-11-17T23:59:07.616Z</time>
      </trkpt>
      <trkpt lat="47.467577" lon="7.787046">
        <ele>359.145065</ele>
        <time>2021-11-17T23:59:08.475Z</time>
      </trkpt>
      <trkpt lat="47.467559" lon="7.786904">
        <ele>358.947422</ele>
        <time>2021-11-17T23:59:10.150Z</time>
      </trkpt>
      <trkpt lat="47.467636" lon="7.786830">
        <ele>358.761603</ele>
        <time>2021-11-17T23:59:11.452Z</time>
      </trkpt>
      <trkpt lat="47.468403" lon="7.786854">
        <ele>357.209103</ele>
        <time>2021-11-17T23:59:23.646Z</time>
      </trkpt>
      <trkpt lat="47.468535" lon="7.786880">
        <ele>356.939622</ele>
        <time>2021-11-17T23:59:25.800Z</time>
      </trkpt>
      <trkpt lat="47.468582" lon="7.786483">
        <ele>356.534819</ele>
        <time>2021-11-17T23:59:30.205Z</time>
      </trkpt>
      <trkpt lat="47.468800" lon="7.784631">
        <ele>354.678827</ele>
        <time>2021-11-17T23:59:51.010Z</time>
      </trkpt>
      <trkpt lat="47.468831" lon="7.784400">
        <ele>354.446310</ele>
        <time>2021-11-17T23:59:53.738Z</time>
      </trkpt>
      <trkpt lat="47.469211" lon="7.782028">
        <ele>352.863056</ele>
        <time>2021-11-18T00:00:22.636Z</time>
      </trkpt>
      <trkpt lat="47.469352" lon="7.781141">
        <ele>352.186982</ele>
        <time>2021-11-18T00:00:33.823Z</time>
      </trkpt>
      <trkpt lat="47.469631" lon="7.779469">
        <ele>350.763692</ele>
        <time>2021-11-18T00:00:53.747Z</time>
      </trkpt>
      <trkpt lat="47.469806" lon="7.778420">
        <ele>349.403257</ele>
        <time>2021-11-18T00:01:05.251Z</time>
      </trkpt>
      <trkpt lat="47.469866" lon="7.778066">
        <ele>348.846850</ele>
        <time>2021-11-18T00:01:09.068Z</time>
      </trkpt>
      <trkpt lat="47.469958" lon="7.776819">
        <ele>346.934413</ele>
        <time>2021-11-18T00:01:21.927Z</time>
      </trkpt>
      <trkpt lat="47.470028" lon="7.775062">
        <ele>344.743996</ele>
        <time>2021-11-18T00:01:40.253Z</time>
      </trkpt>
      <trkpt lat="47.470034" lon="7.774910">
        <ele>344.565928</ele>
        <time>2021-11-18T00:01:41.867Z</time>
      </trkpt>
      <trkpt lat="47.470122" lon="7.772830">
        <ele>342.568074</ele>
        <time>2021-11-18T00:02:06.331Z</time>
      </trkpt>
      <trkpt lat="47.470261" lon="7.772145">
        <ele>342.057786</ele>
        <time>2021-11-18T00:02:14.864Z</time>
      </trkpt>
      <trkpt lat="47.470499" lon="7.771171">
        <ele>341.293934</ele>
        <time>2021-11-18T00:02:26.954Z</time>
      </trkpt>
      <trkpt lat="47.470712" lon="7.770050">
        <ele>339.924178</ele>
        <time>2021-11-18T00:02:39.794Z</time>
      </trkpt>
      <trkpt lat="47.470854" lon="7.769162">
        <ele>338.850781</ele>
        <time>2021-11-18T00:02:49.764Z</time>
      </trkpt>
      <trkpt lat="47.470868" lon="7.769055">
        <ele>338.722580</ele>
        <time>2021-11-18T00:02:50.823Z</time>
      </trkpt>
      <trkpt lat="47.470979" lon="7.768192">
        <ele>337.914286</ele>
        <time>2021-11-18T00:02:59.973Z</time>
      </trkpt>
      <trkpt lat="47.471145" lon="7.767252">
        <ele>337.249534</ele>
        <time>2021-11-18T00:03:10.357Z</time>
      </trkpt>
      <trkpt lat="47.471489" lon="7.767465">
        <ele>336.872064</ele>
        <time>2021-11-18T00:03:15.058Z</time>
      </trkpt>
      <trkpt lat="47.471760" lon="7.767638">
        <ele>336.573304</ele>
        <time>2021-11-18T00:03:19.698Z</time>
      </trkpt>
      <trkpt lat="47.472050" lon="7.767821">
        <ele>336.851232</ele>
        <time>2021-11-18T00:03:25.327Z</time>
      </trkpt>
      <trkpt lat="47.472121" lon="7.767867">
        <ele>337.080035</ele>
        <time>2021-11-18T00:03:27.206Z</time>
      </trkpt>
      <trkpt lat="47.472271" lon="7.767979">
        <ele>337.576022</ele>
        <time>2021-11-18T00:03:30.497Z</time>
      </trkpt>
      <trkpt lat="47.472412" lon="7.768062">
        <ele>338.023980</ele>
        <time>2021-11-18T00:03:34.150Z</time>
      </trkpt>
      <trkpt lat="47.472685" lon="7.768157">
        <ele>338.851846</ele>
        <time>2021-11-18T00:03:40.030Z</time>
      </trkpt>
      <trkpt lat="47.472693" lon="7.768159">
        <ele>338.875796</ele>
        <time>2021-11-18T00:03:40.643Z</time>
      </trkpt>
      <trkpt lat="47.472772" lon="7.768203">
        <ele>339.124976</ele>
        <time>2021-11-18T00:03:42.934Z</time>
      </trkpt>
      <trkpt lat="47.472779" lon="7.768229">
        <ele>339.180818</ele>
        <time>2021-11-18T00:03:43.489Z</time>
      </trkpt>
      <trkpt lat="47.472804" lon="7.768269">
        <ele>339.289521</ele>
        <time>2021-11-18T00:03:44.384Z</time>
      </trkpt>
      <trkpt lat="47.472821" lon="7.768281">
        <ele>339.345123</ele>
        <time>2021-11-18T00:03:45.006Z</time>
      </trkpt>
      <trkpt lat="47.472786" lon="7.768446">
        <ele>339.690181</ele>
        <time>2021-11-18T00:03:47.971Z</time>
      </trkpt>
      <trkpt lat="47.472725" lon="7.768743">
        <ele>340.309544</ele>
        <time>2021-11-18T00:03:54.532Z</time>
      </trkpt>
      <trkpt lat="47.472681" lon="7.769085">
        <ele>341.004195</ele>
        <time>2021-11-18T00:04:02.220Z</time>
      </trkpt>
      <trkpt lat="47.472845" lon="7.769105">
        <ele>341.489951</ele>
        <time>2021-11-18T00:04:08.156Z</time>
      </trkpt>
      <trkpt lat="47.473281" lon="7.769280">
        <ele>344.295340</ele>
        <time>2021-11-18T00:04:25.024Z</time>
      </trkpt>
      <trkpt lat="47.473515" lon="7.769442">
        <ele>346.071549</ele>
        <time>2021-11-18T00:04:34.331Z</time>
      </trkpt>
      <trkpt lat="47.473787" lon="7.769648">
        <ele>348.172368</ele>
        <time>2021-11-18T00:04:45.595Z</time>
      </trkpt>
      <trkpt lat="47.473844" lon="7.769703">
        <ele>348.640232</ele>
        <time>2021-11-18T00:04:49.092Z</time>
      </trkpt>
      <trkpt lat="47.473893" lon="7.769749">
        <ele>349.039211</ele>
        <time>2021-11-18T00:04:52.274Z</time>
      </trkpt>
      <trkpt lat="47.473962" lon="7.769836">
        <ele>349.662503</ele>
        <time>2021-11-18T00:04:56.099Z</time>
      </trkpt>
      <trkpt lat="47.473979" lon="7.769978">
        <ele>350.332656</ele>
        <time>2021-11-18T00:04:59.835Z</time>
      </trkpt>
      <trkpt lat="47.473954" lon="7.770162">
        <ele>351.204820</ele>
        <time>2021-11-18T00:05:06.422Z</time>
      </trkpt>
      <trkpt lat="47.473938" lon="7.770245">
        <ele>351.605905</ele>
        <time>2021-11-18T00:05:09.788Z</time>
      </trkpt>
      <trkpt lat="47.473948" lon="7.770383">
        <ele>352.250875</ele>
        <time>2021-11-18T00:05:13.698Z</time>
      </trkpt>
      <trkpt lat="47.474083" lon="7.771488">
        <ele>359.183061</ele>
        <time>2021-11-18T00:05:51.849Z</time>
      </trkpt>
      <trkpt lat="47.474104" lon="7.771595">
        <ele>359.962838</ele>
        <time>2021-11-18T00:05:55.752Z</time>
      </trkpt>
      <trkpt lat="47.474185" lon="7.771812">
        <ele>361.697719</ele>
        <time>2021-11-18T00:06:07.809Z</time>
      </trkpt>
      <trkpt lat="47.474347" lon="7.771974">
        <ele>363.722314</ele>
        <time>2021-11-18T00:06:17.786Z</time>
      </trkpt>
      <trkpt lat="47.474415" lon="7.772041">
        <ele>364.568244</ele>
        <time>2021-11-18T00:06:23.477Z</time>
      </trkpt>
      <trkpt lat="47.475019" lon="7.772425">
        <ele>371.375099</ele>
        <time>2021-11-18T00:07:00.562Z</time>
      </trkpt>
      <trkpt lat="47.475466" lon="7.772645">
        <ele>376.714204</ele>
        <time>2021-11-18T00:07:30.118Z</time>
      </trkpt>
      <trkpt lat="47.475728" lon="7.772690">
        <ele>379.800440</ele>
        <time>2021-11-18T00:07:45.152Z</time>
      </trkpt>
      <trkpt lat="47.475996" lon="7.772715">
        <ele>382.942519</ele>
        <time>2021-11-18T00:08:01.291Z</time>
      </trkpt>
      <trkpt lat="47.476546" lon="7.772768">
        <ele>389.391672</ele>
        <time>2021-11-18T00:08:36.147Z</time>
      </trkpt>
      <trkpt lat="47.476849" lon="7.772776">
        <ele>392.937622</ele>
        <time>2021-11-18T00:08:55.796Z</time>
      </trkpt>
      <trkpt lat="47.477573" lon="7.772824">
        <ele>404.117394</ele>
        <time>2021-11-18T00:09:41.406Z</time>
      </trkpt>
      <trkpt lat="47.478443" lon="7.772824">
        <ele>417.882083</ele>
        <time>2021-11-18T00:10:51.843Z</time>
      </trkpt>
      <trkpt lat="47.478820" lon="7.772738">
        <ele>424.342215</ele>
        <time>2021-11-18T00:11:29.939Z</time>
      </trkpt>
      <trkpt lat="47.479168" lon="7.772609">
        <ele>431.429702</ele>
        <time>2021-11-18T00:12:04.458Z</time>
      </trkpt>
      <trkpt lat="47.479313" lon="7.772352">
        <ele>435.899706</ele>
        <time>2021-11-18T00:12:28.092Z</time>
      </trkpt>
      <trkpt lat="47.479508" lon="7.771873">
        <ele>443.365950</ele>
        <time>2021-11-18T00:13:06.133Z</time>
      </trkpt>
      <trkpt lat="47.479678" lon="7.771357">
        <ele>451.030566</ele>
        <time>2021-11-18T00:13:42.988Z</time>
      </trkpt>
      <trkpt lat="47.479951" lon="7.770850">
        <ele>459.096845</ele>
        <time>2021-11-18T00:14:20.107Z</time>
      </trkpt>
      <trkpt lat="47.480156" lon="7.770553">
        <ele>463.047644</ele>
        <time>2021-11-18T00:14:44.294Z</time>
      </trkpt>
      <trkpt lat="47.480388" lon="7.770295">
        <ele>467.044063</ele>
        <time>2021-11-18T00:15:06.722Z</time>
      </trkpt>
      <trkpt lat="47.480692" lon="7.770102">
        <ele>471.599294</ele>
        <time>2021-11-18T00:15:30.612Z</time>
      </trkpt>
      <trkpt lat="47.481483" lon="7.769920">
        <ele>482.611921</ele>
        <time>2021-11-18T00:16:18.110Z</time>
      </trkpt>
      <trkpt lat="47.481815" lon="7.769904">
        <ele>486.757793</ele>
        <time>2021-11-18T00:16:34.595Z</time>
      </trkpt>
      <trkpt lat="47.482031" lon="7.769953">
        <ele>489.485176</ele>
        <time>2021-11-18T00:16:46.306Z</time>
      </trkpt>
      <trkpt lat="47.482572" lon="7.770227">
        <ele>496.621947</ele>
        <time>2021-11-18T00:17:21.173Z</time>
      </trkpt>
      <trkpt lat="47.482997" lon="7.770807">
        <ele>503.837899</ele>
        <time>2021-11-18T00:18:05.473Z</time>
      </trkpt>
      <trkpt lat="47.483200" lon="7.771322">
        <ele>509.147623</ele>
        <time>2021-11-18T00:18:36.890Z</time>
      </trkpt>
      <trkpt lat="47.483339" lon="7.771802">
        <ele>513.868951</ele>
        <time>2021-11-18T00:19:03.724Z</time>
      </trkpt>
      <trkpt lat="47.483458" lon="7.772106">
        <ele>517.045197</ele>
        <time>2021-11-18T00:19:20.920Z</time>
      </trkpt>
      <trkpt lat="47.483577" lon="7.772266">
        <ele>519.196242</ele>
        <time>2021-11-18T00:19:32.300Z</time>
      </trkpt>
      <trkpt lat="47.483809" lon="7.772652">
        <ele>523.866567</ele>
        <time>2021-11-18T00:19:55.584Z</time>
      </trkpt>
      <trkpt lat="47.484099" lon="7.773038">
        <ele>529.036828</ele>
        <time>2021-11-18T00:20:19.426Z</time>
      </trkpt>
      <trkpt lat="47.484250" lon="7.773244">
        <ele>529.718349</ele>
        <time>2021-11-18T00:20:31.249Z</time>
      </trkpt>
      <trkpt lat="47.484389" lon="7.773424">
        <ele>530.331278</ele>
        <time>2021-11-18T00:20:40.506Z</time>
      </trkpt>
      <trkpt lat="47.484679" lon="7.773897">
        <ele>531.763453</ele>
        <time>2021-11-18T00:20:55.721Z</time>
      </trkpt>
      <trkpt lat="47.485317" lon="7.774412">
        <ele>534.175051</ele>
        <time>2021-11-18T00:21:06.347Z</time>
      </trkpt>
      <trkpt lat="47.485752" lon="7.774626">
        <ele>534.750029</ele>
        <time>2021-11-18T00:21:11.287Z</time>
      </trkpt>
      <trkpt lat="47.485895" lon="7.774732">
        <ele>534.570218</ele>
        <time>2021-11-18T00:21:12.818Z</time>
      </trkpt>
      <trkpt lat="47.486126" lon="7.774937">
        <ele>534.267394</ele>
        <time>2021-11-18T00:21:16.032Z</time>
      </trkpt>
      <trkpt lat="47.486160" lon="7.774746">
        <ele>534.117334</ele>
        <time>2021-11-18T00:21:17.334Z</time>
      </trkpt>
      <trkpt lat="47.486219" lon="7.774600">
        <ele>533.988093</ele>
        <time>2021-11-18T00:21:19.389Z</time>
      </trkpt>
      <trkpt lat="47.486452" lon="7.774370">
        <ele>533.673209</ele>
        <time>2021-11-18T00:21:22.550Z</time>
      </trkpt>
      <trkpt lat="47.486703" lon="7.774131">
        <ele>533.337650</ele>
        <time>2021-11-18T00:21:26.207Z</time>
      </trkpt>
      <trkpt lat="47.487094" lon="7.773657">
        <ele>533.066126</ele>
        <time>2021-11-18T00:21:34.190Z</time>
      </trkpt>
      <trkpt lat="47.487530" lon="7.773097">
        <ele>533.390056</ele>
        <time>2021-11-18T00:21:45.742Z</time>
      </trkpt>
      <trkpt lat="47.487758" lon="7.772679">
        <ele>533.593732</ele>
        <time>2021-11-18T00:21:54.343Z</time>
      </trkpt>
      <trkpt lat="47.488008" lon="7.772013">
        <ele>533.882594</ele>
        <time>2021-11-18T00:22:07.037Z</time>
      </trkpt>
      <trkpt lat="47.488198" lon="7.770997">
        <ele>530.290864</ele>
        <time>2021-11-18T00:22:14.220Z</time>
      </trkpt>
      <trkpt lat="47.488684" lon="7.770026">
        <ele>524.768172</ele>
        <time>2021-11-18T00:22:21.468Z</time>
      </trkpt>
      <trkpt lat="47.488741" lon="7.769888">
        <ele>524.028959</ele>
        <time>2021-11-18T00:22:22.384Z</time>
      </trkpt>
      <trkpt lat="47.488934" lon="7.769333">
        <ele>520.722019</ele>
        <time>2021-11-18T00:22:26.008Z</time>
      </trkpt>
      <trkpt lat="47.489120" lon="7.768662">
        <ele>515.036412</ele>
        <time>2021-11-18T00:22:30.182Z</time>
      </trkpt>
      <trkpt lat="47.489191" lon="7.768403">
        <ele>512.845303</ele>
        <time>2021-11-18T00:22:31.763Z</time>
      </trkpt>
      <trkpt lat="47.489233" lon="7.768329">
        <ele>512.087711</ele>
        <time>2021-11-18T00:22:32.331Z</time>
      </trkpt>
      <trkpt lat="47.489260" lon="7.768283">
        <ele>511.610055</ele>
        <time>2021-11-18T00:22:32.671Z</time>
      </trkpt>
      <trkpt lat="47.489330" lon="7.768521">
        <ele>509.575221</ele>
        <time>2021-11-18T00:22:34.147Z</time>
      </trkpt>
      <trkpt lat="47.489759" lon="7.769607">
        <ele>499.868739</ele>
        <time>2021-11-18T00:22:41.347Z</time>
      </trkpt>
      <trkpt lat="47.489882" lon="7.769861">
        <ele>497.727574</ele>
        <time>2021-11-18T00:22:43.140Z</time>
      </trkpt>
      <trkpt lat="47.490063" lon="7.770088">
        <ele>495.321783</ele>
        <time>2021-11-18T00:22:45.164Z</time>
      </trkpt>
      <trkpt lat="47.490367" lon="7.770241">
        <ele>492.065779</ele>
        <time>2021-11-18T00:22:47.907Z</time>
      </trkpt>
      <trkpt lat="47.491182" lon="7.770222">
        <ele>483.800495</ele>
        <time>2021-11-18T00:22:54.923Z</time>
      </trkpt>
      <trkpt lat="47.492020" lon="7.770184">
        <ele>478.910067</ele>
        <time>2021-11-18T00:23:02.474Z</time>
      </trkpt>
      <trkpt lat="47.492137" lon="7.770169">
        <ele>478.299782</ele>
        <time>2021-11-18T00:23:03.651Z</time>
      </trkpt>
      <trkpt lat="47.492435" lon="7.770039">
        <ele>476.685305</ele>
        <time>2021-11-18T00:23:06.609Z</time>
      </trkpt>
      <trkpt lat="47.492661" lon="7.769832">
        <ele>475.304141</ele>
        <time>2021-11-18T00:23:09.200Z</time>
      </trkpt>
      <trkpt lat="47.492753" lon="7.769701">
        <ele>474.640700</ele>
        <time>2021-11-18T00:23:10.563Z</time>
      </trkpt>
      <trkpt lat="47.492732" lon="7.769629">
        <ele>474.365339</ele>
        <time>2021-11-18T00:23:14.890Z</time>
      </trkpt>
      <trkpt lat="47.492832" lon="7.769442">
        <ele>473.527968</ele>
        <time>2021-11-18T00:23:16.448Z</time>
      </trkpt>
      <trkpt lat="47.492871" lon="7.769321">
        <ele>473.127032</ele>
        <time>2021-11-18T00:23:17.439Z</time>
      </trkpt>
      <trkpt lat="47.492983" lon="7.768975">
        <ele>472.091403</ele>
        <time>2021-11-18T00:23:20.346Z</time>
      </trkpt>
      <trkpt lat="47.492999" lon="7.768874">
        <ele>471.811374</ele>
        <time>2021-11-18T00:23:21.097Z</time>
      </trkpt>
      <trkpt lat="47.493006" lon="7.768806">
        <ele>471.625700</ele>
        <time>2021-11-18T00:23:22.057Z</time>
      </trkpt>
      <trkpt lat="47.492941" lon="7.765577">
        <ele>458.319268</ele>
        <time>2021-11-18T00:23:42.880Z</time>
      </trkpt>
      <trkpt lat="47.493010" lon="7.765043">
        <ele>454.791990</ele>
        <time>2021-11-18T00:23:46.016Z</time>
      </trkpt>
      <trkpt lat="47.493029" lon="7.764995">
        <ele>454.431071</ele>
        <time>2021-11-18T00:23:46.330Z</time>
      </trkpt>
      <trkpt lat="47.493115" lon="7.764783">
        <ele>452.826809</ele>
        <time>2021-11-18T00:23:47.735Z</time>
      </trkpt>
      <trkpt lat="47.493274" lon="7.764563">
        <ele>450.736820</ele>
        <time>2021-11-18T00:23:49.538Z</time>
      </trkpt>
      <trkpt lat="47.493545" lon="7.764429">
        <ele>447.411822</ele>
        <time>2021-11-18T00:23:51.904Z</time>
      </trkpt>
      <trkpt lat="47.493822" lon="7.764461">
        <ele>443.038703</ele>
        <time>2021-11-18T00:23:54.201Z</time>
      </trkpt>
      <trkpt lat="47.494327" lon="7.764912">
        <ele>433.755265</ele>
        <time>2021-11-18T00:23:59.065Z</time>
      </trkpt>
      <trkpt lat="47.494523" lon="7.765111">
        <ele>430.014193</ele>
        <time>2021-11-18T00:24:01.023Z</time>
      </trkpt>
      <trkpt lat="47.494623" lon="7.765176">
        <ele>428.295135</ele>
        <time>2021-11-18T00:24:01.926Z</time>
      </trkpt>
      <trkpt lat="47.494837" lon="7.765306">
        <ele>424.654188</ele>
        <time>2021-11-18T00:24:03.852Z</time>
      </trkpt>
      <trkpt lat="47.495429" lon="7.765534">
        <ele>416.502366</ele>
        <time>2021-11-18T00:24:08.952Z</time>
      </trkpt>
      <trkpt lat="47.495891" lon="7.765655">
        <ele>411.075995</ele>
        <time>2021-11-18T00:24:12.903Z</time>
      </trkpt>
      <trkpt lat="47.495904" lon="7.765657">
        <ele>410.924830</ele>
        <time>2021-11-18T00:24:13.008Z</time>
      </trkpt>
      <trkpt lat="47.496345" lon="7.765747">
        <ele>405.776094</ele>
        <time>2021-11-18T00:24:16.852Z</time>
      </trkpt>
      <trkpt lat="47.496601" lon="7.765776">
        <ele>402.806613</ele>
        <time>2021-11-18T00:24:19.099Z</time>
      </trkpt>
      <trkpt lat="47.496981" lon="7.765800">
        <ele>398.842299</ele>
        <time>2021-11-18T00:24:22.361Z</time>
      </trkpt>
      <trkpt lat="47.497514" lon="7.765781">
        <ele>394.614034</ele>
        <time>2021-11-18T00:24:26.997Z</time>
      </trkpt>
      <trkpt lat="47.497683" lon="7.765775">
        <ele>393.273368</ele>
        <time>2021-11-18T00:24:28.523Z</time>
      </trkpt>
      <trkpt lat="47.497832" lon="7.765749">
        <ele>392.083516</ele>
        <time>2021-11-18T00:24:29.819Z</time>
      </trkpt>
      <trkpt lat="47.498206" lon="7.765691">
        <ele>389.101215</ele>
        <time>2021-11-18T00:24:33.161Z</time>
      </trkpt>
      <trkpt lat="47.498581" lon="7.765578">
        <ele>386.066214</ele>
        <time>2021-11-18T00:24:36.622Z</time>
      </trkpt>
      <trkpt lat="47.499021" lon="7.765388">
        <ele>383.782308</ele>
        <time>2021-11-18T00:24:40.867Z</time>
      </trkpt>
      <trkpt lat="47.500096" lon="7.764668">
        <ele>378.509638</ele>
        <time>2021-11-18T00:24:52.148Z</time>
      </trkpt>
      <trkpt lat="47.500750" lon="7.764229">
        <ele>376.981798</ele>
        <time>2021-11-18T00:24:59.875Z</time>
      </trkpt>
      <trkpt lat="47.501206" lon="7.764177">
        <ele>376.508311</ele>
        <time>2021-11-18T00:25:06.753Z</time>
      </trkpt>
      <trkpt lat="47.501281" lon="7.764267">
        <ele>376.408354</ele>
        <time>2021-11-18T00:25:09.923Z</time>
      </trkpt>
      <trkpt lat="47.501345" lon="7.764315">
        <ele>376.334077</ele>
        <time>2021-11-18T00:25:10.505Z</time>
      </trkpt>
      <trkpt lat="47.501402" lon="7.764367">
        <ele>376.264758</ele>
        <time>2021-11-18T00:25:15.866Z</time>
      </trkpt>
      <trkpt lat="47.501717" lon="7.764903">
        <ele>375.767882</ele>
        <time>2021-11-18T00:25:24.092Z</time>
      </trkpt>
      <trkpt lat="47.501785" lon="7.764941">
        <ele>375.692633</ele>
        <time>2021-11-18T00:25:27.543Z</time>
      </trkpt>
      <trkpt lat="47.501861" lon="7.764937">
        <ele>375.619374</ele>
        <time>2021-11-18T00:25:28.162Z</time>
      </trkpt>
      <trkpt lat="47.502114" lon="7.764835">
        <ele>375.464771</ele>
        <time>2021-11-18T00:25:36.846Z</time>
      </trkpt>
      <trkpt lat="47.502299" lon="7.764761">
        <ele>375.351782</ele>
        <time>2021-11-18T00:25:38.730Z</time>
      </trkpt>
      <trkpt lat="47.502400" lon="7.764717">
        <ele>375.289707</ele>
        <time>2021-11-18T00:25:41.524Z</time>
      </trkpt>
      <trkpt lat="47.502578" lon="7.764620">
        <ele>375.177872</ele>
        <time>2021-11-18T00:25:43.222Z</time>
      </trkpt>
      <trkpt lat="47.503736" lon="7.764325">
        <ele>374.173928</ele>
        <time>2021-11-18T00:26:03.960Z</time>
      </trkpt>
      <trkpt lat="47.504400" lon="7.764478">
        <ele>372.256743</ele>
        <time>2021-11-18T00:26:10.717Z</time>
      </trkpt>
      <trkpt lat="47.505115" lon="7.765011">
        <ele>369.972823</ele>
        <time>2021-11-18T00:26:18.480Z</time>
      </trkpt>
      <trkpt lat="47.506143" lon="7.764883">
        <ele>367.024463</ele>
        <time>2021-11-18T00:26:29.322Z</time>
      </trkpt>
      <trkpt lat="47.506301" lon="7.764884">
        <ele>366.572725</ele>
        <time>2021-11-18T00:26:30.878Z</time>
      </trkpt>
      <trkpt lat="47.506377" lon="7.764894">
        <ele>366.354578</ele>
        <time>2021-11-18T00:26:31.726Z</time>
      </trkpt>
      <trkpt lat="47.506619" lon="7.764938">
        <ele>365.657482</ele>
        <time>2021-11-18T00:26:34.441Z</time>
      </trkpt>
      <trkpt lat="47.506716" lon="7.764971">
        <ele>365.372922</ele>
        <time>2021-11-18T00:26:35.437Z</time>
      </trkpt>
      <trkpt lat="47.506870" lon="7.765037">
        <ele>364.914544</ele>
        <time>2021-11-18T00:26:37.290Z</time>
      </trkpt>
      <trkpt lat="47.507429" lon="7.765409">
        <ele>362.961969</ele>
        <time>2021-11-18T00:26:43.321Z</time>
      </trkpt>
      <trkpt lat="47.507506" lon="7.765470">
        <ele>362.668019</ele>
        <time>2021-11-18T00:26:44.379Z</time>
      </trkpt>
      <trkpt lat="47.507650" lon="7.765503">
        <ele>362.177558</ele>
        <time>2021-11-18T00:26:45.738Z</time>
      </trkpt>
      <trkpt lat="47.507977" lon="7.765561">
        <ele>361.069041</ele>
        <time>2021-11-18T00:26:49.219Z</time>
      </trkpt>
      <trkpt lat="47.508137" lon="7.765584">
        <ele>360.527965</ele>
        <time>2021-11-18T00:26:50.881Z</time>
      </trkpt>
      <trkpt lat="47.508322" lon="7.765556">
        <ele>359.902030</ele>
        <time>2021-11-18T00:26:52.818Z</time>
      </trkpt>
      <trkpt lat="47.508744" lon="7.765478">
        <ele>358.470596</ele>
        <time>2021-11-18T00:26:57.020Z</time>
      </trkpt>
      <trkpt lat="47.509057" lon="7.765447">
        <ele>357.519152</ele>
        <time>2021-11-18T00:27:00.045Z</time>
      </trkpt>
      <trkpt lat="47.509436" lon="7.765441">
        <ele>356.405205</ele>
        <time>2021-11-18T00:27:03.673Z</time>
      </trkpt>
      <trkpt lat="47.509600" lon="7.765443">
        <ele>355.923192</ele>
        <time>2021-11-18T00:27:05.282Z</time>
      </trkpt>
      <trkpt lat="47.509741" lon="7.765454">
        <ele>355.508217</ele>
        <time>2021-11-18T00:27:06.668Z</time>
      </trkpt>
      <trkpt lat="47.509899" lon="7.765445">
        <ele>355.043510</ele>
        <time>2021-11-18T00:27:08.303Z</time>
      </trkpt>
      <trkpt lat="47.509942" lon="7.765436">
        <ele>354.915876</ele>
        <time>2021-11-18T00:27:08.788Z</time>
      </trkpt>
      <trkpt lat="47.510019" lon="7.765402">
        <ele>354.679722</ele>
        <time>2021-11-18T00:27:09.627Z</time>
      </trkpt>
      <trkpt lat="47.510078" lon="7.765363">
        <ele>354.489821</ele>
        <time>2021-11-18T00:27:10.445Z</time>
      </trkpt>
      <trkpt lat="47.510179" lon="7.765273">
        <ele>354.143360</ele>
        <time>2021-11-18T00:27:11.742Z</time>
      </trkpt>
      <trkpt lat="47.510392" lon="7.765088">
        <ele>353.417575</ele>
        <time>2021-11-18T00:27:14.768Z</time>
      </trkpt>
      <trkpt lat="47.510486" lon="7.765012">
        <ele>353.102796</ele>
        <time>2021-11-18T00:27:16.093Z</time>
      </trkpt>
      <trkpt lat="47.510628" lon="7.764909">
        <ele>352.764808</ele>
        <time>2021-11-18T00:27:17.905Z</time>
      </trkpt>
      <trkpt lat="47.510922" lon="7.764773">
        <ele>352.225110</ele>
        <time>2021-11-18T00:27:21.660Z</time>
      </trkpt>
      <trkpt lat="47.511261" lon="7.764772">
        <ele>351.631123</ele>
        <time>2021-11-18T00:27:25.358Z</time>
      </trkpt>
      <trkpt lat="47.511298" lon="7.764777">
        <ele>351.566023</ele>
        <time>2021-11-18T00:27:25.745Z</time>
      </trkpt>
      <trkpt lat="47.511360" lon="7.764807">
        <ele>351.451734</ele>
        <time>2021-11-18T00:27:26.387Z</time>
      </trkpt>
      <trkpt lat="47.511702" lon="7.765093">
        <ele>350.763506</ele>
        <time>2021-11-18T00:27:30.599Z</time>
      </trkpt>
      <trkpt lat="47.511866" lon="7.765218">
        <ele>350.440306</ele>
        <time>2021-11-18T00:27:32.584Z</time>
      </trkpt>
      <trkpt lat="47.511929" lon="7.765269">
        <ele>350.314495</ele>
        <time>2021-11-18T00:27:33.631Z</time>
      </trkpt>
      <trkpt lat="47.512026" lon="7.765311">
        <ele>350.137416</ele>
        <time>2021-11-18T00:27:34.773Z</time>
      </trkpt>
      <trkpt lat="47.512359" lon="7.765319">
        <ele>349.603170</ele>
        <time>2021-11-18T00:27:38.971Z</time>
      </trkpt>
      <trkpt lat="47.512523" lon="7.765308">
        <ele>349.373044</ele>
        <time>2021-11-18T00:27:40.730Z</time>
      </trkpt>
      <trkpt lat="47.512596" lon="7.765294">
        <ele>349.269861</ele>
        <time>2021-11-18T00:27:41.593Z</time>
      </trkpt>
      <trkpt lat="47.512876" lon="7.765238">
        <ele>348.873802</ele>
        <time>2021-11-18T00:27:45.001Z</time>
      </trkpt>
      <trkpt lat="47.512947" lon="7.765205">
        <ele>348.769487</ele>
        <time>2021-11-18T00:27:45.869Z</time>
      </trkpt>
      <trkpt lat="47.512959" lon="7.765198">
        <ele>348.751408</ele>
        <time>2021-11-18T00:27:46.038Z</time>
      </trkpt>
      <trkpt lat="47.513036" lon="7.765134">
        <ele>348.627626</ele>
        <time>2021-11-18T00:27:47.586Z</time>
      </trkpt>
      <trkpt lat="47.513615" lon="7.764654">
        <ele>347.697434</ele>
        <time>2021-11-18T00:27:54.914Z</time>
      </trkpt>
      <trkpt lat="47.513661" lon="7.764590">
        <ele>347.608950</ele>
        <time>2021-11-18T00:27:56.476Z</time>
      </trkpt>
      <trkpt lat="47.513707" lon="7.764494">
        <ele>347.497510</ele>
        <time>2021-11-18T00:27:57.321Z</time>
      </trkpt>
      <trkpt lat="47.513747" lon="7.764397">
        <ele>347.389910</ele>
        <time>2021-11-18T00:27:58.111Z</time>
      </trkpt>
      <trkpt lat="47.513810" lon="7.764252">
        <ele>347.193391</ele>
        <time>2021-11-18T00:27:59.437Z</time>
      </trkpt>
      <trkpt lat="47.513823" lon="7.764227">
        <ele>347.144564</ele>
        <time>2021-11-18T00:27:59.691Z</time>
      </trkpt>
      <trkpt lat="47.514022" lon="7.763802">
        <ele>346.344252</ele>
        <time>2021-11-18T00:28:03.758Z</time>
      </trkpt>
      <trkpt lat="47.514365" lon="7.763357">
        <ele>345.299301</ele>
        <time>2021-11-18T00:28:09.524Z</time>
      </trkpt>
      <trkpt lat="47.514492" lon="7.763207">
        <ele>344.927059</ele>
        <time>2021-11-18T00:28:11.184Z</time>
      </trkpt>
      <trkpt lat="47.514873" lon="7.762981">
        <ele>343.986620</ele>
        <time>2021-11-18T00:28:15.372Z</time>
      </trkpt>
      <trkpt lat="47.515023" lon="7.762891">
        <ele>343.615777</ele>
        <time>2021-11-18T00:28:17.035Z</time>
      </trkpt>
      <trkpt lat="47.515108" lon="7.762767">
        <ele>343.342363</ele>
        <time>2021-11-18T00:28:18.197Z</time>
      </trkpt>
      <trkpt lat="47.515150" lon="7.762617">
        <ele>343.055428</ele>
        <time>2021-11-18T00:28:19.264Z</time>
      </trkpt>
      <trkpt lat="47.515194" lon="7.761991">
        <ele>341.561852</ele>
        <time>2021-11-18T00:28:23.523Z</time>
      </trkpt>
      <trkpt lat="47.515220" lon="7.761710">
        <ele>340.888786</ele>
        <time>2021-11-18T00:28:25.387Z</time>
      </trkpt>
      <trkpt lat="47.515265" lon="7.761533">
        <ele>340.439977</ele>
        <time>2021-11-18T00:28:26.638Z</time>
      </trkpt>
      <trkpt lat="47.515394" lon="7.761200">
        <ele>339.528979</ele>
        <time>2021-11-18T00:28:29.182Z</time>
      </trkpt>
      <trkpt lat="47.515929" lon="7.760077">
        <ele>336.511625</ele>
        <time>2021-11-18T00:28:38.448Z</time>
      </trkpt>
      <trkpt lat="47.516501" lon="7.759179">
        <ele>334.834814</ele>
        <time>2021-11-18T00:28:47.451Z</time>
      </trkpt>
      <trkpt lat="47.516954" lon="7.758506">
        <ele>333.544096</ele>
        <time>2021-11-18T00:28:54.906Z</time>
      </trkpt>
      <trkpt lat="47.517863" lon="7.757421">
        <ele>332.775208</ele>
        <time>2021-11-18T00:29:09.345Z</time>
      </trkpt>
      <trkpt lat="47.518866" lon="7.755813">
        <ele>332.817937</ele>
        <time>2021-11-18T00:29:32.617Z</time>
      </trkpt>
      <trkpt lat="47.519558" lon="7.754516">
        <ele>333.453808</ele>
        <time>2021-11-18T00:29:52.923Z</time>
      </trkpt>
      <trkpt lat="47.519771" lon="7.754124">
        <ele>333.359138</ele>
        <time>2021-11-18T00:29:58.895Z</time>
      </trkpt>
      <trkpt lat="47.520081" lon="7.753575">
        <ele>333.224487</ele>
        <time>2021-11-18T00:30:06.654Z</time>
      </trkpt>
      <trkpt lat="47.520500" lon="7.752840">
        <ele>333.043505</ele>
        <time>2021-11-18T00:30:15.408Z</time>
      </trkpt>
      <trkpt lat="47.520691" lon="7.752581">
        <ele>332.971346</ele>
        <time>2021-11-18T00:30:18.631Z</time>
      </trkpt>
      <trkpt lat="47.521128" lon="7.752139">
        <ele>331.780480</ele>
        <time>2021-11-18T00:30:24.387Z</time>
      </trkpt>
      <trkpt lat="47.522153" lon="7.751504">
        <ele>328.983858</ele>
        <time>2021-11-18T00:30:35.974Z</time>
      </trkpt>
      <trkpt lat="47.522660" lon="7.751079">
        <ele>327.155236</ele>
        <time>2021-11-18T00:30:41.822Z</time>
      </trkpt>
      <trkpt lat="47.523810" lon="7.749861">
        <ele>322.178626</ele>
        <time>2021-11-18T00:30:55.801Z</time>
      </trkpt>
      <trkpt lat="47.524595" lon="7.748826">
        <ele>318.916783</ele>
        <time>2021-11-18T00:31:06.411Z</time>
      </trkpt>
      <trkpt lat="47.524786" lon="7.748513">
        <ele>318.035419</ele>
        <time>2021-11-18T00:31:09.318Z</time>
      </trkpt>
      <trkpt lat="47.524939" lon="7.748210">
        <ele>317.244984</ele>
        <time>2021-11-18T00:31:12.042Z</time>
      </trkpt>
      <trkpt lat="47.525034" lon="7.748003">
        <ele>316.722098</ele>
        <time>2021-11-18T00:31:13.817Z</time>
      </trkpt>
      <trkpt lat="47.525102" lon="7.747843">
        <ele>316.377073</ele>
        <time>2021-11-18T00:31:15.221Z</time>
      </trkpt>
      <trkpt lat="47.525175" lon="7.747653">
        <ele>316.032328</ele>
        <time>2021-11-18T00:31:16.721Z</time>
      </trkpt>
      <trkpt lat="47.525493" lon="7.746648">
        <ele>314.282035</ele>
        <time>2021-11-18T00:31:24.603Z</time>
      </trkpt>
      <trkpt lat="47.525698" lon="7.745676">
        <ele>312.676137</ele>
        <time>2021-11-18T00:31:32.056Z</time>
      </trkpt>
      <trkpt lat="47.525754" lon="7.745361">
        <ele>312.219782</ele>
        <time>2021-11-18T00:31:34.460Z</time>
      </trkpt>
      <trkpt lat="47.525761" lon="7.745310">
        <ele>312.165754</ele>
        <time>2021-11-18T00:31:34.847Z</time>
      </trkpt>
      <trkpt lat="47.525817" lon="7.744920">
        <ele>311.751829</ele>
        <time>2021-11-18T00:31:37.901Z</time>
      </trkpt>
      <trkpt lat="47.525836" lon="7.744800">
        <ele>311.623874</ele>
        <time>2021-11-18T00:31:38.815Z</time>
      </trkpt>
      <trkpt lat="47.525969" lon="7.743974">
        <ele>310.742334</ele>
        <time>2021-11-18T00:31:45.364Z</time>
      </trkpt>
      <trkpt lat="47.526222" lon="7.742784">
        <ele>309.501251</ele>
        <time>2021-11-18T00:31:55.252Z</time>
      </trkpt>
      <trkpt lat="47.526782" lon="7.740808">
        <ele>308.297443</ele>
        <time>2021-11-18T00:32:13.111Z</time>
      </trkpt>
      <trkpt lat="47.527038" lon="7.739424">
        <ele>308.323141</ele>
        <time>2021-11-18T00:32:26.839Z</time>
      </trkpt>
      <trkpt lat="47.527054" lon="7.739284">
        <ele>308.358290</ele>
        <time>2021-11-18T00:32:28.284Z</time>
      </trkpt>
      <trkpt lat="47.527103" lon="7.738847">
        <ele>308.467949</ele>
        <time>2021-11-18T00:32:33.610Z</time>
      </trkpt>
      <trkpt lat="47.527349" lon="7.738840">
        <ele>308.558150</ele>
        <time>2021-11-18T00:32:38.206Z</time>
      </trkpt>
      <trkpt lat="47.527567" lon="7.738827">
        <ele>308.638134</ele>
        <time>2021-11-18T00:32:42.151Z</time>
      </trkpt>
      <trkpt lat="47.527841" lon="7.738820">
        <ele>308.746175</ele>
        <time>2021-11-18T00:32:46.947Z</time>
      </trkpt>
      <trkpt lat="47.528292" lon="7.738774">
        <ele>309.031500</ele>
        <time>2021-11-18T00:32:57.869Z</time>
      </trkpt>
      <trkpt lat="47.528341" lon="7.738762">
        <ele>309.062847</ele>
        <time>2021-11-18T00:32:58.891Z</time>
      </trkpt>
      <trkpt lat="47.528601" lon="7.738620">
        <ele>309.237750</ele>
        <time>2021-11-18T00:33:04.346Z</time>
      </trkpt>
      <trkpt lat="47.528842" lon="7.738378">
        <ele>309.421525</ele>
        <time>2021-11-18T00:33:09.697Z</time>
      </trkpt>
      <trkpt lat="47.528896" lon="7.738303">
        <ele>309.468250</ele>
        <time>2021-11-18T00:33:11.338Z</time>
      </trkpt>
      <trkpt lat="47.528997" lon="7.738134">
        <ele>309.564431</ele>
        <time>2021-11-18T00:33:13.686Z</time>
      </trkpt>
      <trkpt lat="47.529534" lon="7.737005">
        <ele>309.885108</ele>
        <time>2021-11-18T00:33:27.354Z</time>
      </trkpt>
      <trkpt lat="47.529603" lon="7.736896">
        <ele>309.889898</ele>
        <time>2021-11-18T00:33:28.504Z</time>
      </trkpt>
      <trkpt lat="47.529741" lon="7.736731">
        <ele>309.898317</ele>
        <time>2021-11-18T00:33:30.707Z</time>
      </trkpt>
      <trkpt lat="47.530193" lon="7.736351">
        <ele>309.922991</ele>
        <time>2021-11-18T00:33:37.773Z</time>
      </trkpt>
      <trkpt lat="47.530882" lon="7.735983">
        <ele>310.353908</ele>
        <time>2021-11-18T00:33:50.593Z</time>
      </trkpt>
      <trkpt lat="47.531325" lon="7.735684">
        <ele>311.388410</ele>
        <time>2021-11-18T00:34:00.706Z</time>
      </trkpt>
      <trkpt lat="47.531389" lon="7.735745">
        <ele>311.550135</ele>
        <time>2021-11-18T00:34:03.451Z</time>
      </trkpt>
      <trkpt lat="47.531710" lon="7.735855">
        <ele>312.250270</ele>
        <time>2021-11-18T00:34:11.237Z</time>
      </trkpt>
      <trkpt lat="47.531874" lon="7.736048">
        <ele>312.695382</ele>
        <time>2021-11-18T00:34:16.575Z</time>
      </trkpt>
      <trkpt lat="47.533153" lon="7.739664">
        <ele>319.108012</ele>
        <time>2021-11-18T00:35:29.034Z</time>
      </trkpt>
      <trkpt lat="47.533191" lon="7.739816">
        <ele>319.183390</ele>
        <time>2021-11-18T00:35:31.217Z</time>
      </trkpt>
      <trkpt lat="47.533352" lon="7.740430">
        <ele>319.489706</ele>
        <time>2021-11-18T00:35:38.411Z</time>
      </trkpt>
      <trkpt lat="47.533707" lon="7.742025">
        <ele>319.801549</ele>
        <time>2021-11-18T00:35:53.412Z</time>
      </trkpt>
      <trkpt lat="47.533870" lon="7.743466">
        <ele>319.123109</ele>
        <time>2021-11-18T00:36:05.490Z</time>
      </trkpt>
      <trkpt lat="47.534043" lon="7.744207">
        <ele>318.789775</ele>
        <time>2021-11-18T00:36:12.573Z</time>
      </trkpt>
      <trkpt lat="47.534097" lon="7.744343">
        <ele>318.772957</ele>
        <time>2021-11-18T00:36:14.021Z</time>
      </trkpt>
      <trkpt lat="47.534179" lon="7.744495">
        <ele>318.752219</ele>
        <time>2021-11-18T00:36:15.900Z</time>
      </trkpt>
      <trkpt lat="47.534370" lon="7.744709">
        <ele>318.714409</ele>
        <time>2021-11-18T00:36:19.194Z</time>
      </trkpt>
      <trkpt lat="47.534429" lon="7.744856">
        <ele>318.696180</ele>
        <time>2021-11-18T00:36:20.956Z</time>
      </trkpt>
      <trkpt lat="47.534874" lon="7.746551">
        <ele>318.539038</ele>
        <time>2021-11-18T00:36:38.506Z</time>
      </trkpt>
      <trkpt lat="47.535912" lon="7.749669">
        <ele>319.235788</ele>
        <time>2021-11-18T00:37:16.846Z</time>
      </trkpt>
      <trkpt lat="47.537134" lon="7.752309">
        <ele>320.117156</ele>
        <time>2021-11-18T00:37:50.999Z</time>
      </trkpt>
      <trkpt lat="47.537371" lon="7.752851">
        <ele>320.357577</ele>
        <time>2021-11-18T00:37:57.648Z</time>
      </trkpt>
      <trkpt lat="47.537564" lon="7.753073">
        <ele>320.492336</ele>
        <time>2021-11-18T00:38:01.463Z</time>
      </trkpt>
      <trkpt lat="47.537715" lon="7.753194">
        <ele>320.724393</ele>
        <time>2021-11-18T00:38:05.308Z</time>
      </trkpt>
      <trkpt lat="47.538052" lon="7.753460">
        <ele>322.122360</ele>
        <time>2021-11-18T00:38:14.392Z</time>
      </trkpt>
      <trkpt lat="47.538359" lon="7.753900">
        <ele>323.686245</ele>
        <time>2021-11-18T00:38:25.624Z</time>
      </trkpt>
      <trkpt lat="47.538494" lon="7.754103">
        <ele>324.390500</ele>
        <time>2021-11-18T00:38:31.428Z</time>
      </trkpt>
      <trkpt lat="47.538723" lon="7.754445">
        <ele>325.580996</ele>
        <time>2021-11-18T00:38:41.621Z</time>
      </trkpt>
      <trkpt lat="47.538792" lon="7.754549">
        <ele>325.941378</ele>
        <time>2021-11-18T00:38:45.483Z</time>
      </trkpt>
      <trkpt lat="47.539079" lon="7.754976">
        <ele>327.546195</ele>
        <time>2021-11-18T00:39:01.182Z</time>
      </trkpt>
      <trkpt lat="47.539230" lon="7.755294">
        <ele>328.899462</ele>
        <time>2021-11-18T00:39:11.842Z</time>
      </trkpt>
      <trkpt lat="47.539346" lon="7.755736">
        <ele>330.550119</ele>
        <time>2021-11-18T00:39:25.133Z</time>
      </trkpt>
      <trkpt lat="47.539595" lon="7.757548">
        <ele>336.396903</ele>
        <time>2021-11-18T00:40:09.055Z</time>
      </trkpt>
      <trkpt lat="47.539722" lon="7.758107">
        <ele>336.308678</ele>
        <time>2021-11-18T00:40:18.062Z</time>
      </trkpt>
      <trkpt lat="47.539949" lon="7.758688">
        <ele>336.208264</ele>
        <time>2021-11-18T00:40:25.275Z</time>
      </trkpt>
      <trkpt lat="47.540447" lon="7.759585">
        <ele>336.034543</ele>
        <time>2021-11-18T00:40:33.798Z</time>
      </trkpt>
      <trkpt lat="47.540567" lon="7.759901">
        <ele>334.851867</ele>
        <time>2021-11-18T00:40:36.185Z</time>
      </trkpt>
      <trkpt lat="47.540921" lon="7.761599">
        <ele>327.502632</ele>
        <time>2021-11-18T00:40:47.307Z</time>
      </trkpt>
      <trkpt lat="47.541004" lon="7.762306">
        <ele>324.278289</ele>
        <time>2021-11-18T00:40:51.528Z</time>
      </trkpt>
      <trkpt lat="47.541023" lon="7.762922">
        <ele>320.332938</ele>
        <time>2021-11-18T00:40:55.111Z</time>
      </trkpt>
      <trkpt lat="47.541219" lon="7.763853">
        <ele>314.093357</ele>
        <time>2021-11-18T00:41:00.734Z</time>
      </trkpt>
      <trkpt lat="47.541334" lon="7.764020">
        <ele>312.567042</ele>
        <time>2021-11-18T00:41:02.201Z</time>
      </trkpt>
      <trkpt lat="47.541377" lon="7.764045">
        <ele>312.129231</ele>
        <time>2021-11-18T00:41:02.574Z</time>
      </trkpt>
      <trkpt lat="47.541364" lon="7.764150">
        <ele>311.446228</ele>
        <time>2021-11-18T00:41:03.185Z</time>
      </trkpt>
      <trkpt lat="47.541443" lon="7.764512">
        <ele>309.012106</ele>
        <time>2021-11-18T00:41:05.495Z</time>
      </trkpt>
      <trkpt lat="47.541552" lon="7.764869">
        <ele>307.162877</ele>
        <time>2021-11-18T00:41:07.789Z</time>
      </trkpt>
      <trkpt lat="47.541697" lon="7.765479">
        <ele>304.899577</ele>
        <time>2021-11-18T00:41:11.671Z</time>
      </trkpt>
      <trkpt lat="47.542317" lon="7.768533">
        <ele>296.925427</ele>
        <time>2021-11-18T00:41:33.145Z</time>
      </trkpt>
      <trkpt lat="47.542450" lon="7.769311">
        <ele>295.945792</ele>
        <time>2021-11-18T00:41:40.860Z</time>
      </trkpt>
      <trkpt lat="47.542720" lon="7.770771">
        <ele>295.647347</ele>
        <time>2021-11-18T00:41:57.403Z</time>
      </trkpt>
      <trkpt lat="47.543108" lon="7.773069">
        <ele>296.132489</ele>
        <time>2021-11-18T00:42:24.256Z</time>
      </trkpt>
      <trkpt lat="47.543145" lon="7.773277">
        <ele>296.153576</ele>
        <time>2021-11-18T00:42:26.381Z</time>
      </trkpt>
      <trkpt lat="47.543350" lon="7.774507">
        <ele>296.277777</ele>
        <time>2021-11-18T00:42:38.845Z</time>
      </trkpt>
      <trkpt lat="47.543402" lon="7.775016">
        <ele>296.374664</ele>
        <time>2021-11-18T00:42:43.908Z</time>
      </trkpt>
      <trkpt lat="47.543449" lon="7.775478">
        <ele>296.670425</ele>
        <time>2021-11-18T00:42:48.601Z</time>
      </trkpt>
      <trkpt lat="47.543482" lon="7.776095">
        <ele>297.062226</ele>
        <time>2021-11-18T00:42:55.309Z</time>
      </trkpt>
      <trkpt lat="47.543527" lon="7.776532">
        <ele>297.342058</ele>
        <time>2021-11-18T00:43:00.468Z</time>
      </trkpt>
      <trkpt lat="47.543707" lon="7.777394">
        <ele>297.913237</ele>
        <time>2021-11-18T00:43:12.754Z</time>
      </trkpt>
      <trkpt lat="47.543933" lon="7.778374">
        <ele>300.645108</ele>
        <time>2021-11-18T00:43:31.081Z</time>
      </trkpt>
      <trkpt lat="47.544100" lon="7.779438">
        <ele>303.889789</ele>
        <time>2021-11-18T00:43:55.281Z</time>
      </trkpt>
      <trkpt lat="47.544461" lon="7.782254">
        <ele>313.612834</ele>
        <time>2021-11-18T00:45:15.907Z</time>
      </trkpt>
      <trkpt lat="47.544469" lon="7.782455">
        <ele>314.322455</ele>
        <time>2021-11-18T00:45:20.853Z</time>
      </trkpt>
      <trkpt lat="47.544474" lon="7.782623">
        <ele>314.915117</ele>
        <time>2021-11-18T00:45:23.304Z</time>
      </trkpt>
      <trkpt lat="47.544475" lon="7.782644">
        <ele>314.989312</ele>
        <time>2021-11-18T00:45:23.515Z</time>
      </trkpt>
      <trkpt lat="47.544490" lon="7.783060">
        <ele>314.573565</ele>
        <time>2021-11-18T00:45:27.146Z</time>
      </trkpt>
      <trkpt lat="47.544490" lon="7.783060">
        <ele>314.573565</ele>
        <time>2021-11-18T00:45:27.176Z</time>
      </trkpt>
      <trkpt lat="47.544555" lon="7.783372">
        <ele>313.832026</ele>
        <time>2021-11-18T00:45:29.660Z</time>
      </trkpt>
      <trkpt lat="47.544627" lon="7.783499">
        <ele>313.455377</ele>
        <time>2021-11-18T00:45:31.026Z</time>
      </trkpt>
      <trkpt lat="47.544950" lon="7.784008">
        <ele>311.868832</ele>
        <time>2021-11-18T00:45:37.868Z</time>
      </trkpt>
      <trkpt lat="47.545054" lon="7.784227">
        <ele>311.260732</ele>
        <time>2021-11-18T00:45:40.422Z</time>
      </trkpt>
      <trkpt lat="47.545240" lon="7.784746">
        <ele>309.926263</ele>
        <time>2021-11-18T00:45:45.574Z</time>
      </trkpt>
      <trkpt lat="47.545250" lon="7.784778">
        <ele>309.846181</ele>
        <time>2021-11-18T00:45:45.848Z</time>
      </trkpt>
      <trkpt lat="47.545624" lon="7.785548">
        <ele>306.923749</ele>
        <time>2021-11-18T00:45:54.016Z</time>
      </trkpt>
      <trkpt lat="47.545672" lon="7.785654">
        <ele>306.491930</ele>
        <time>2021-11-18T00:45:55.025Z</time>
      </trkpt>
      <trkpt lat="47.545856" lon="7.785973">
        <ele>305.072406</ele>
        <time>2021-11-18T00:45:58.866Z</time>
      </trkpt>
      <trkpt lat="47.546102" lon="7.786217">
        <ele>303.588677</ele>
        <time>2021-11-18T00:46:02.851Z</time>
      </trkpt>
      <trkpt lat="47.546417" lon="7.786331">
        <ele>301.963520</ele>
        <time>2021-11-18T00:46:07.425Z</time>
      </trkpt>
      <trkpt lat="47.546464" lon="7.786335">
        <ele>301.727574</ele>
        <time>2021-11-18T00:46:08.187Z</time>
      </trkpt>
      <trkpt lat="47.546526" lon="7.786353">
        <ele>301.410929</ele>
        <time>2021-11-18T00:46:09.184Z</time>
      </trkpt>
      <trkpt lat="47.546913" lon="7.786470">
        <ele>300.200466</ele>
        <time>2021-11-18T00:46:15.342Z</time>
      </trkpt>
      <trkpt lat="47.546952" lon="7.786540">
        <ele>300.183323</ele>
        <time>2021-11-18T00:46:16.280Z</time>
      </trkpt>
      <trkpt lat="47.546959" lon="7.786598">
        <ele>300.172195</ele>
        <time>2021-11-18T00:46:16.981Z</time>
      </trkpt>
      <trkpt lat="47.546897" lon="7.787133">
        <ele>300.069671</ele>
        <time>2021-11-18T00:46:24.173Z</time>
      </trkpt>
      <trkpt lat="47.546695" lon="7.788763">
        <ele>299.756667</ele>
        <time>2021-11-18T00:46:48.168Z</time>
      </trkpt>
      <trkpt lat="47.546673" lon="7.788921">
        <ele>299.799573</ele>
        <time>2021-11-18T00:46:50.782Z</time>
      </trkpt>
      <trkpt lat="47.546488" lon="7.790282">
        <ele>300.706030</ele>
        <time>2021-11-18T00:47:12.643Z</time>
      </trkpt>
      <trkpt lat="47.546253" lon="7.791998">
        <ele>301.610722</ele>
        <time>2021-11-18T00:47:43.058Z</time>
      </trkpt>
      <trkpt lat="47.546027" lon="7.793254">
        <ele>301.907463</ele>
        <time>2021-11-18T00:48:02.564Z</time>
      </trkpt>
      <trkpt lat="47.545969" lon="7.793663">
        <ele>302.002871</ele>
        <time>2021-11-18T00:48:07.700Z</time>
      </trkpt>
      <trkpt lat="47.545921" lon="7.794468">
        <ele>301.984217</ele>
        <time>2021-11-18T00:48:17.549Z</time>
      </trkpt>
      <trkpt lat="47.545947" lon="7.794710">
        <ele>301.922482</ele>
        <time>2021-11-18T00:48:20.415Z</time>
      </trkpt>
      <trkpt lat="47.545947" lon="7.794710">
        <ele>301.922482</ele>
        <time>2021-11-18T00:48:20.419Z</time>
      </trkpt>
      <trkpt lat="47.546019" lon="7.795020">
        <ele>301.839888</ele>
        <time>2021-11-18T00:48:24.471Z</time>
      </trkpt>
      <trkpt lat="47.546165" lon="7.795511">
        <ele>301.704719</ele>
        <time>2021-11-18T00:48:31.386Z</time>
      </trkpt>
      <trkpt lat="47.546170" lon="7.795612">
        <ele>301.679205</ele>
        <time>2021-11-18T00:48:32.452Z</time>
      </trkpt>
      <trkpt lat="47.546154" lon="7.795747">
        <ele>301.644674</ele>
        <time>2021-11-18T00:48:34.197Z</time>
      </trkpt>
      <trkpt lat="47.546105" lon="7.795928">
        <ele>301.595544</ele>
        <time>2021-11-18T00:48:37.345Z</time>
      </trkpt>
      <trkpt lat="47.546038" lon="7.796107">
        <ele>301.543978</ele>
        <time>2021-11-18T00:48:39.704Z</time>
      </trkpt>
      <trkpt lat="47.546038" lon="7.796107">
        <ele>301.543978</ele>
        <time>2021-11-18T00:48:39.707Z</time>
      </trkpt>
      <trkpt lat="47.545889" lon="7.796500">
        <ele>301.430419</ele>
        <time>2021-11-18T00:48:46.584Z</time>
      </trkpt>
      <trkpt lat="47.545788" lon="7.796748">
        <ele>301.428215</ele>
        <time>2021-11-18T00:48:50.199Z</time>
      </trkpt>
      <trkpt lat="47.545728" lon="7.796950">
        <ele>301.436053</ele>
        <time>2021-11-18T00:48:53.545Z</time>
      </trkpt>
      <trkpt lat="47.545689" lon="7.797076">
        <ele>301.440976</ele>
        <time>2021-11-18T00:48:54.996Z</time>
      </trkpt>
      <trkpt lat="47.545670" lon="7.797142">
        <ele>301.443525</ele>
        <time>2021-11-18T00:48:56.057Z</time>
      </trkpt>
      <trkpt lat="47.545645" lon="7.797258">
        <ele>301.447850</ele>
        <time>2021-11-18T00:48:57.821Z</time>
      </trkpt>
      <trkpt lat="47.545637" lon="7.797310">
        <ele>301.449744</ele>
        <time>2021-11-18T00:48:59.168Z</time>
      </trkpt>
      <trkpt lat="47.545558" lon="7.798144">
        <ele>301.479654</ele>
        <time>2021-11-18T00:49:10.445Z</time>
      </trkpt>
      <trkpt lat="47.545511" lon="7.798680">
        <ele>301.498851</ele>
        <time>2021-11-18T00:49:18.515Z</time>
      </trkpt>
      <trkpt lat="47.545581" lon="7.798713">
        <ele>301.502716</ele>
        <time>2021-11-18T00:49:20.026Z</time>
      </trkpt>
      <trkpt lat="47.545731" lon="7.798810">
        <ele>301.511328</ele>
        <time>2021-11-18T00:49:24.031Z</time>
      </trkpt>
      <trkpt lat="47.545807" lon="7.798846">
        <ele>301.500203</ele>
        <time>2021-11-18T00:49:25.369Z</time>
      </trkpt>
      <trkpt lat="47.546418" lon="7.798980">
        <ele>301.181160</ele>
        <time>2021-11-18T00:49:37.425Z</time>
      </trkpt>
      <trkpt lat="47.547540" lon="7.799538">
        <ele>300.578885</ele>
        <time>2021-11-18T00:49:58.065Z</time>
      </trkpt>
      <trkpt lat="47.547912" lon="7.799646">
        <ele>300.499641</ele>
        <time>2021-11-18T00:50:05.446Z</time>
      </trkpt>
      <trkpt lat="47.548459" lon="7.799691">
        <ele>300.385117</ele>
        <time>2021-11-18T00:50:16.384Z</time>
      </trkpt>
      <trkpt lat="47.548535" lon="7.799720">
        <ele>300.368711</ele>
        <time>2021-11-18T00:50:17.898Z</time>
      </trkpt>
      <trkpt lat="47.548514" lon="7.799795">
        <ele>300.357254</ele>
        <time>2021-11-18T00:50:18.960Z</time>
      </trkpt>
      <trkpt lat="47.548519" lon="7.799896">
        <ele>300.342965</ele>
        <time>2021-11-18T00:50:20.317Z</time>
      </trkpt>
      <trkpt lat="47.548545" lon="7.800404">
        <ele>300.271082</ele>
        <time>2021-11-18T00:50:27.108Z</time>
      </trkpt>
      <trkpt lat="47.548560" lon="7.800672">
        <ele>300.233137</ele>
        <time>2021-11-18T00:50:30.807Z</time>
      </trkpt>
      <trkpt lat="47.548569" lon="7.800838">
        <ele>300.209640</ele>
        <time>2021-11-18T00:50:33.041Z</time>
      </trkpt>
      <trkpt lat="47.548576" lon="7.800968">
        <ele>300.196296</ele>
        <time>2021-11-18T00:50:34.821Z</time>
      </trkpt>
      <trkpt lat="47.548596" lon="7.801213">
        <ele>300.171364</ele>
        <time>2021-11-18T00:50:38.206Z</time>
      </trkpt>
      <trkpt lat="47.548600" lon="7.801363">
        <ele>300.156198</ele>
        <time>2021-11-18T00:50:40.212Z</time>
      </trkpt>
      <trkpt lat="47.548607" lon="7.801690">
        <ele>300.123146</ele>
        <time>2021-11-18T00:50:44.708Z</time>
      </trkpt>
      <trkpt lat="47.548626" lon="7.802129">
        <ele>300.078704</ele>
        <time>2021-11-18T00:50:50.625Z</time>
      </trkpt>
      <trkpt lat="47.548877" lon="7.802168">
        <ele>300.040928</ele>
        <time>2021-11-18T00:50:55.612Z</time>
      </trkpt>
      <trkpt lat="47.549410" lon="7.802226">
        <ele>299.960935</ele>
        <time>2021-11-18T00:51:06.033Z</time>
      </trkpt>
      <trkpt lat="47.549481" lon="7.802234">
        <ele>299.950277</ele>
        <time>2021-11-18T00:51:07.368Z</time>
      </trkpt>
      <trkpt lat="47.549879" lon="7.802247">
        <ele>299.827438</ele>
        <time>2021-11-18T00:51:14.837Z</time>
      </trkpt>
      <trkpt lat="47.550146" lon="7.802262">
        <ele>299.735965</ele>
        <time>2021-11-18T00:51:19.911Z</time>
      </trkpt>
      <trkpt lat="47.550134" lon="7.803051">
        <ele>299.553608</ele>
        <time>2021-11-18T00:51:30.135Z</time>
      </trkpt>
      <trkpt lat="47.550196" lon="7.803120">
        <ele>299.527061</ele>
        <time>2021-11-18T00:51:31.594Z</time>
      </trkpt>
      <trkpt lat="47.550981" lon="7.803132">
        <ele>299.383678</ele>
        <time>2021-11-18T00:51:46.240Z</time>
      </trkpt>
      <trkpt lat="47.551163" lon="7.803129">
        <ele>299.440158</ele>
        <time>2021-11-18T00:51:49.644Z</time>
      </trkpt>
      <trkpt lat="47.551598" lon="7.803160">
        <ele>299.575299</ele>
        <time>2021-11-18T00:51:58.236Z</time>
      </trkpt>
      <trkpt lat="47.551666" lon="7.803144">
        <ele>299.596665</ele>
        <time>2021-11-18T00:52:02.981Z</time>
      </trkpt>
      <trkpt lat="47.551732" lon="7.803125">
        <ele>299.617528</ele>
        <time>2021-11-18T00:52:07.648Z</time>
      </trkpt>
      <trkpt lat="47.551744" lon="7.803277">
        <ele>299.649580</ele>
        <time>2021-11-18T00:52:09.342Z</time>
      </trkpt>
      <trkpt lat="47.551751" lon="7.803369">
        <ele>299.668970</ele>
        <time>2021-11-18T00:52:10.415Z</time>
      </trkpt>
      <trkpt lat="47.551692" lon="7.803510">
        <ele>299.703715</ele>
        <time>2021-11-18T00:52:13.108Z</time>
      </trkpt>
      <trkpt lat="47.551741" lon="7.804294">
        <ele>299.868615</ele>
        <time>2021-11-18T00:52:26.074Z</time>
      </trkpt>
      <trkpt lat="47.551744" lon="7.804473">
        <ele>299.932877</ele>
        <time>2021-11-18T00:52:28.639Z</time>
      </trkpt>
      <trkpt lat="47.551731" lon="7.804667">
        <ele>300.019406</ele>
        <time>2021-11-18T00:52:32.606Z</time>
      </trkpt>
      <trkpt lat="47.551709" lon="7.805000">
        <ele>300.167913</ele>
        <time>2021-11-18T00:52:37.106Z</time>
      </trkpt>
      <trkpt lat="47.551681" lon="7.805477">
        <ele>300.380425</ele>
        <time>2021-11-18T00:52:44.776Z</time>
      </trkpt>
      <trkpt lat="47.551680" lon="7.805557">
        <ele>300.415939</ele>
        <time>2021-11-18T00:52:46.002Z</time>
      </trkpt>
      <trkpt lat="47.551671" lon="7.806117">
        <ele>300.664562</ele>
        <time>2021-11-18T00:52:54.952Z</time>
      </trkpt>
      <trkpt lat="47.551651" lon="7.806246">
        <ele>300.723309</ele>
        <time>2021-11-18T00:52:57.828Z</time>
      </trkpt>
      <trkpt lat="47.551895" lon="7.806278">
        <ele>300.884396</ele>
        <time>2021-11-18T00:53:01.376Z</time>
      </trkpt>
      <trkpt lat="47.552015" lon="7.806307">
        <ele>300.964353</ele>
        <time>2021-11-18T00:53:04.219Z</time>
      </trkpt>
      <trkpt lat="47.552068" lon="7.806445">
        <ele>301.034826</ele>
        <time>2021-11-18T00:53:05.653Z</time>
      </trkpt>
      <trkpt lat="47.552398" lon="7.808880">
        <ele>300.394161</ele>
        <time>2021-11-18T00:53:27.767Z</time>
      </trkpt>
      <trkpt lat="47.552566" lon="7.810386">
        <ele>299.767663</ele>
        <time>2021-11-18T00:53:40.779Z</time>
      </trkpt>
      <trkpt lat="47.552711" lon="7.812955">
        <ele>298.778917</ele>
        <time>2021-11-18T00:54:03.659Z</time>
      </trkpt>
      <trkpt lat="47.552808" lon="7.815488">
        <ele>298.670714</ele>
        <time>2021-11-18T00:54:26.616Z</time>
      </trkpt>
      <trkpt lat="47.552844" lon="7.816432">
        <ele>298.997136</ele>
        <time>2021-11-18T00:54:38.052Z</time>
      </trkpt>
      <trkpt lat="47.552368" lon="7.816478">
        <ele>299.274000</ele>
        <time>2021-11-18T00:54:50.289Z</time>
      </trkpt>
      <trkpt lat="47.551537" lon="7.816539">
        <ele>300.521015</ele>
        <time>2021-11-18T00:55:13.668Z</time>
      </trkpt>
      <trkpt lat="47.550839" lon="7.816590">
        <ele>301.568436</ele>
        <time>2021-11-18T00:55:32.325Z</time>
      </trkpt>
      <trkpt lat="47.550457" lon="7.816559">
        <ele>301.903471</ele>
        <time>2021-11-18T00:55:41.751Z</time>
      </trkpt>
      <trkpt lat="47.550240" lon="7.817600">
        <ele>301.821949</ele>
        <time>2021-11-18T00:55:57.198Z</time>
      </trkpt>
      <trkpt lat="47.549870" lon="7.819908">
        <ele>301.513254</ele>
        <time>2021-11-18T00:56:25.875Z</time>
      </trkpt>
      <trkpt lat="47.549781" lon="7.820506">
        <ele>301.388378</ele>
        <time>2021-11-18T00:56:33.712Z</time>
      </trkpt>
      <trkpt lat="47.549636" lon="7.821487">
        <ele>301.183587</ele>
        <time>2021-11-18T00:56:47.101Z</time>
      </trkpt>
      <trkpt lat="47.549580" lon="7.821865">
        <ele>301.415487</ele>
        <time>2021-11-18T00:56:52.649Z</time>
      </trkpt>
      <trkpt lat="47.549309" lon="7.823603">
        <ele>302.613515</ele>
        <time>2021-11-18T00:57:21.070Z</time>
      </trkpt>
      <trkpt lat="47.548993" lon="7.825343">
        <ele>304.846651</ele>
        <time>2021-11-18T00:57:56.039Z</time>
      </trkpt>
      <trkpt lat="47.548679" lon="7.826710">
        <ele>306.968596</ele>
        <time>2021-11-18T00:58:25.213Z</time>
      </trkpt>
      <trkpt lat="47.548237" lon="7.826410">
        <ele>307.955677</ele>
        <time>2021-11-18T00:58:38.986Z</time>
      </trkpt>
      <trkpt lat="47.547666" lon="7.826091">
        <ele>309.194662</ele>
        <time>2021-11-18T00:58:56.365Z</time>
      </trkpt>
      <trkpt lat="47.547233" lon="7.825872">
        <ele>310.123598</ele>
        <time>2021-11-18T00:59:09.137Z</time>
      </trkpt>
      <trkpt lat="47.547154" lon="7.825835">
        <ele>310.291816</ele>
        <time>2021-11-18T00:59:11.379Z</time>
      </trkpt>
      <trkpt lat="47.546930" lon="7.825729">
        <ele>310.773406</ele>
        <time>2021-11-18T00:59:17.717Z</time>
      </trkpt>
      <trkpt lat="47.546693" lon="7.825618">
        <ele>311.287438</ele>
        <time>2021-11-18T00:59:24.519Z</time>
      </trkpt>
      <trkpt lat="47.546589" lon="7.825597">
        <ele>311.504502</ele>
        <time>2021-11-18T00:59:27.442Z</time>
      </trkpt>
      <trkpt lat="47.546574" lon="7.826239">
        <ele>312.401208</ele>
        <time>2021-11-18T00:59:39.736Z</time>
      </trkpt>
      <trkpt lat="47.546592" lon="7.826850">
        <ele>313.254917</ele>
        <time>2021-11-18T00:59:51.544Z</time>
      </trkpt>
      <trkpt lat="47.546721" lon="7.828140">
        <ele>315.099621</ele>
        <time>2021-11-18T01:00:17.824Z</time>
      </trkpt>
      <trkpt lat="47.546823" lon="7.829336">
        <ele>316.832911</ele>
        <time>2021-11-18T01:00:41.124Z</time>
      </trkpt>
      <trkpt lat="47.546946" lon="7.830852">
        <ele>318.915955</ele>
        <time>2021-11-18T01:01:10.367Z</time>
      </trkpt>
      <trkpt lat="47.547020" lon="7.831965">
        <ele>320.330183</ele>
        <time>2021-11-18T01:01:31.205Z</time>
      </trkpt>
      <trkpt lat="47.547190" lon="7.835066">
        <ele>324.115964</ele>
        <time>2021-11-18T01:02:28.296Z</time>
      </trkpt>
      <trkpt lat="47.547240" lon="7.836221">
        <ele>325.556227</ele>
        <time>2021-11-18T01:02:49.770Z</time>
      </trkpt>
      <trkpt lat="47.547276" lon="7.837287">
        <ele>326.916490</ele>
        <time>2021-11-18T01:03:09.881Z</time>
      </trkpt>
      <trkpt lat="47.547300" lon="7.838688">
        <ele>328.520893</ele>
        <time>2021-11-18T01:03:36.628Z</time>
      </trkpt>
      <trkpt lat="47.547332" lon="7.840572">
        <ele>330.251400</ele>
        <time>2021-11-18T01:04:09.255Z</time>
      </trkpt>
      <trkpt lat="47.547339" lon="7.841072">
        <ele>330.540959</ele>
        <time>2021-11-18T01:04:17.033Z</time>
      </trkpt>
      <trkpt lat="47.547362" lon="7.841665">
        <ele>330.648215</ele>
        <time>2021-11-18T01:04:25.803Z</time>
      </trkpt>
      <trkpt lat="47.547448" lon="7.842262">
        <ele>330.758444</ele>
        <time>2021-11-18T01:04:34.199Z</time>
      </trkpt>
      <trkpt lat="47.547354" lon="7.842839">
        <ele>330.865626</ele>
        <time>2021-11-18T01:04:42.081Z</time>
      </trkpt>
      <trkpt lat="47.547313" lon="7.843735">
        <ele>331.146401</ele>
        <time>2021-11-18T01:04:54.404Z</time>
      </trkpt>
      <trkpt lat="47.547295" lon="7.844722">
        <ele>331.772867</ele>
        <time>2021-11-18T01:05:09.151Z</time>
      </trkpt>
      <trkpt lat="47.547274" lon="7.845536">
        <ele>332.289715</ele>
        <time>2021-11-18T01:05:22.603Z</time>
      </trkpt>
      <trkpt lat="47.547124" lon="7.848795">
        <ele>336.226656</ele>
        <time>2021-11-18T01:06:24.757Z</time>
      </trkpt>
      <trkpt lat="47.547143" lon="7.849985">
        <ele>337.603363</ele>
        <time>2021-11-18T01:06:47.607Z</time>
      </trkpt>
      <trkpt lat="47.547141" lon="7.850355">
        <ele>338.031308</ele>
        <time>2021-11-18T01:06:54.705Z</time>
      </trkpt>
      <trkpt lat="47.546945" lon="7.851719">
        <ele>339.437169</ele>
        <time>2021-11-18T01:07:19.225Z</time>
      </trkpt>
      <trkpt lat="47.546752" lon="7.854214">
        <ele>340.504842</ele>
        <time>2021-11-18T01:07:57.074Z</time>
      </trkpt>
      <trkpt lat="47.546717" lon="7.854659">
        <ele>340.549346</ele>
        <time>2021-11-18T01:08:03.284Z</time>
      </trkpt>
      <trkpt lat="47.546582" lon="7.856413">
        <ele>340.724712</ele>
        <time>2021-11-18T01:08:27.485Z</time>
      </trkpt>
      <trkpt lat="47.546537" lon="7.857497">
        <ele>340.902261</ele>
        <time>2021-11-18T01:08:42.834Z</time>
      </trkpt>
      <trkpt lat="47.546487" lon="7.859119">
        <ele>341.210090</ele>
        <time>2021-11-18T01:09:06.309Z</time>
      </trkpt>
      <trkpt lat="47.546526" lon="7.861665">
        <ele>341.459109</ele>
        <time>2021-11-18T01:09:43.483Z</time>
      </trkpt>
      <trkpt lat="47.546592" lon="7.863006">
        <ele>340.603929</ele>
        <time>2021-11-18T01:09:59.950Z</time>
      </trkpt>
      <trkpt lat="47.546877" lon="7.864345">
        <ele>339.300542</ele>
        <time>2021-11-18T01:10:15.119Z</time>
      </trkpt>
      <trkpt lat="47.546885" lon="7.864500">
        <ele>339.156230</ele>
        <time>2021-11-18T01:10:16.799Z</time>
      </trkpt>
      <trkpt lat="47.546894" lon="7.864837">
        <ele>338.771075</ele>
        <time>2021-11-18T01:10:20.278Z</time>
      </trkpt>
      <trkpt lat="47.546889" lon="7.865225">
        <ele>338.263207</ele>
        <time>2021-11-18T01:10:24.399Z</time>
      </trkpt>
      <trkpt lat="47.546819" lon="7.865489">
        <ele>337.892009</ele>
        <time>2021-11-18T01:10:27.477Z</time>
      </trkpt>
      <trkpt lat="47.546510" lon="7.865766">
        <ele>337.191765</ele>
        <time>2021-11-18T01:10:33.171Z</time>
      </trkpt>
      <trkpt lat="47.546327" lon="7.865959">
        <ele>336.756233</ele>
        <time>2021-11-18T01:10:36.502Z</time>
      </trkpt>
      <trkpt lat="47.546096" lon="7.866147">
        <ele>336.245227</ele>
        <time>2021-11-18T01:10:40.568Z</time>
      </trkpt>
      <trkpt lat="47.545240" lon="7.866887">
        <ele>335.611255</ele>
        <time>2021-11-18T01:10:57.242Z</time>
      </trkpt>
      <trkpt lat="47.545160" lon="7.866985">
        <ele>335.624509</ele>
        <time>2021-11-18T01:10:59.198Z</time>
      </trkpt>
      <trkpt lat="47.545003" lon="7.867278">
        <ele>335.656750</ele>
        <time>2021-11-18T01:11:04.866Z</time>
      </trkpt>
      <trkpt lat="47.544568" lon="7.867693">
        <ele>335.722809</ele>
        <time>2021-11-18T01:11:17.657Z</time>
      </trkpt>
      <trkpt lat="47.544469" lon="7.867776">
        <ele>335.737333</ele>
        <time>2021-11-18T01:11:20.519Z</time>
      </trkpt>
      <trkpt lat="47.544410" lon="7.867825">
        <ele>335.745969</ele>
        <time>2021-11-18T01:11:22.607Z</time>
      </trkpt>
      <trkpt lat="47.544246" lon="7.867967">
        <ele>335.863421</ele>
        <time>2021-11-18T01:11:27.291Z</time>
      </trkpt>
      <trkpt lat="47.544214" lon="7.867988">
        <ele>335.914828</ele>
        <time>2021-11-18T01:11:28.139Z</time>
      </trkpt>
      <trkpt lat="47.543801" lon="7.868269">
        <ele>336.582364</ele>
        <time>2021-11-18T01:11:39.742Z</time>
      </trkpt>
      <trkpt lat="47.543657" lon="7.868359">
        <ele>336.811925</ele>
        <time>2021-11-18T01:11:44.091Z</time>
      </trkpt>
      <trkpt lat="47.543201" lon="7.868657">
        <ele>337.543974</ele>
        <time>2021-11-18T01:11:54.292Z</time>
      </trkpt>
      <trkpt lat="47.543105" lon="7.868711">
        <ele>337.694802</ele>
        <time>2021-11-18T01:11:56.876Z</time>
      </trkpt>
      <trkpt lat="47.543049" lon="7.868759">
        <ele>337.789831</ele>
        <time>2021-11-18T01:11:58.253Z</time>
      </trkpt>
      <trkpt lat="47.542722" lon="7.869201">
        <ele>338.403203</ele>
        <time>2021-11-18T01:12:08.085Z</time>
      </trkpt>
      <trkpt lat="47.542696" lon="7.869257">
        <ele>338.403203</ele>
        <time>2021-11-18T01:12:08.915Z</time>
      </trkpt>
      <trkpt lat="47.542657" lon="7.869354">
        <ele>338.403203</ele>
        <time>2021-11-18T01:12:10.350Z</time>
      </trkpt>
      <trkpt lat="47.542372" lon="7.869746">
        <ele>338.403203</ele>
        <time>2021-11-18T01:12:17.551Z</time>
      </trkpt>
      <trkpt lat="47.542329" lon="7.869820">
        <ele>338.403203</ele>
        <time>2021-11-18T01:12:18.750Z</time>
      </trkpt>
      <trkpt lat="47.542348" lon="7.869983">
        <ele>338.403203</ele>
        <time>2021-11-18T01:12:20.332Z</time>
      </trkpt>
      <trkpt lat="47.542317" lon="7.870012">
        <ele>338.403203</ele>
        <time>2021-11-18T01:12:21.038Z</time>
      </trkpt>
      <trkpt lat="47.542181" lon="7.870131">
        <ele>338.403203</ele>
        <time>2021-11-18T01:12:23.647Z</time>
      </trkpt>
      <trkpt lat="47.542118" lon="7.870135">
        <ele>338.403203</ele>
        <time>2021-11-18T01:12:24.667Z</time>
      </trkpt>
      <trkpt lat="47.542014" lon="7.870126">
        <ele>338.403203</ele>
        <time>2021-11-18T01:12:26.057Z</time>
      </trkpt>
      <trkpt lat="47.541910" lon="7.870106">
        <ele>338.403203</ele>
        <time>2021-11-18T01:12:27.722Z</time>
      </trkpt>
      <trkpt lat="47.541606" lon="7.870424">
        <ele>338.403203</ele>
        <time>2021-11-18T01:12:33.094Z</time>
      </trkpt>
      <trkpt lat="47.541521" lon="7.870517">
        <ele>338.403203</ele>
        <time>2021-11-18T01:12:34.577Z</time>
      </trkpt>
      <trkpt lat="47.541550" lon="7.870601">
        <ele>338.403203</ele>
        <time>2021-11-18T01:12:35.448Z</time>
      </trkpt>
      <trkpt lat="47.541576" lon="7.870664">
        <ele>338.403203</ele>
        <time>2021-11-18T01:12:36.129Z</time>
      </trkpt>
      <trkpt lat="47.541410" lon="7.870791">
        <ele>338.403203</ele>
        <time>2021-11-18T01:12:39.332Z</time>
      </trkpt>
      <trkpt lat="47.541236" lon="7.870935">
        <ele>338.403203</ele>
        <time>2021-11-18T01:12:42.150Z</time>
      </trkpt>
    </trkseg>
  </trk>
</gpx>